<?xml version="1.0" encoding="UTF-8" standalone="no" ?>
<gpx xmlns="http://www.topografix.com/GPX/1/1" xmlns:xsi="http://www.w3.org/2001/XMLSchema-instance" xsi:schemaLocation="http://www.topografix.com/GPX/1/1 http://www.topografix.com/GPX/1/1/gpx.xsd" version="1.1" creator="VisuGPX - https://www.visugpx.com">
  <metadata>
    <name>Raid Encantats 2011 - J1</name>
    <desc><![CDATA[[b]J1[/b] : Pont de Ressec - Refuge Restanca - Tossa del Mar - Refuge Restanca]]></desc>
  </metadata>
  <trk>
    <name><![CDATA[J1---------16:05:47]]></name>
    <trkseg>
      <trkpt lat="42.65865" lon="0.87168">
        <ele>1195.54</ele>
        <time>2011-03-10T09:43:27Z</time>
      </trkpt>
      <trkpt lat="42.65865" lon="0.87168">
        <ele>1195.54</ele>
        <time>2011-03-10T09:43:28Z</time>
      </trkpt>
      <trkpt lat="42.65865" lon="0.87168">
        <ele>1194.09</ele>
        <time>2011-03-10T09:43:29Z</time>
      </trkpt>
      <trkpt lat="42.65865" lon="0.87168">
        <ele>1196.02</ele>
        <time>2011-03-10T09:43:32Z</time>
      </trkpt>
      <trkpt lat="42.65865" lon="0.87168">
        <ele>1194.58</ele>
        <time>2011-03-10T09:43:33Z</time>
      </trkpt>
      <trkpt lat="42.65865" lon="0.87168">
        <ele>1192.65</ele>
        <time>2011-03-10T09:43:34Z</time>
      </trkpt>
      <trkpt lat="42.65865" lon="0.87168">
        <ele>1186.88</ele>
        <time>2011-03-10T09:43:35Z</time>
      </trkpt>
      <trkpt lat="42.65865" lon="0.87168">
        <ele>1192.17</ele>
        <time>2011-03-10T09:43:37Z</time>
      </trkpt>
      <trkpt lat="42.65865" lon="0.87167">
        <ele>1189.77</ele>
        <time>2011-03-10T09:43:38Z</time>
      </trkpt>
      <trkpt lat="42.65864" lon="0.87167">
        <ele>1193.13</ele>
        <time>2011-03-10T09:43:44Z</time>
      </trkpt>
      <trkpt lat="42.65864" lon="0.87167">
        <ele>1193.13</ele>
        <time>2011-03-10T09:43:45Z</time>
      </trkpt>
      <trkpt lat="42.65864" lon="0.87167">
        <ele>1188.81</ele>
        <time>2011-03-10T09:43:46Z</time>
      </trkpt>
      <trkpt lat="42.65864" lon="0.87167">
        <ele>1190.25</ele>
        <time>2011-03-10T09:43:47Z</time>
      </trkpt>
      <trkpt lat="42.65864" lon="0.87167">
        <ele>1192.17</ele>
        <time>2011-03-10T09:43:48Z</time>
      </trkpt>
      <trkpt lat="42.65864" lon="0.87165">
        <ele>1192.65</ele>
        <time>2011-03-10T09:43:52Z</time>
      </trkpt>
      <trkpt lat="42.65862" lon="0.87158">
        <ele>1193.61</ele>
        <time>2011-03-10T09:43:58Z</time>
      </trkpt>
      <trkpt lat="42.65856" lon="0.87144">
        <ele>1193.13</ele>
        <time>2011-03-10T09:44:07Z</time>
      </trkpt>
      <trkpt lat="42.65854" lon="0.87137">
        <ele>1194.09</ele>
        <time>2011-03-10T09:44:15Z</time>
      </trkpt>
      <trkpt lat="42.65853" lon="0.87134">
        <ele>1193.61</ele>
        <time>2011-03-10T09:44:17Z</time>
      </trkpt>
      <trkpt lat="42.65848" lon="0.87121">
        <ele>1194.58</ele>
        <time>2011-03-10T09:44:22Z</time>
      </trkpt>
      <trkpt lat="42.65842" lon="0.87113">
        <ele>1194.58</ele>
        <time>2011-03-10T09:44:27Z</time>
      </trkpt>
      <trkpt lat="42.65823" lon="0.8711">
        <ele>1194.58</ele>
        <time>2011-03-10T09:44:40Z</time>
      </trkpt>
      <trkpt lat="42.65816" lon="0.87108">
        <ele>1196.02</ele>
        <time>2011-03-10T09:44:44Z</time>
      </trkpt>
      <trkpt lat="42.65802" lon="0.87107">
        <ele>1197.46</ele>
        <time>2011-03-10T09:44:54Z</time>
      </trkpt>
      <trkpt lat="42.65801" lon="0.87106">
        <ele>1196.5</ele>
        <time>2011-03-10T09:44:55Z</time>
      </trkpt>
      <trkpt lat="42.65798" lon="0.87102">
        <ele>1197.94</ele>
        <time>2011-03-10T09:44:58Z</time>
      </trkpt>
      <trkpt lat="42.65782" lon="0.87091">
        <ele>1199.38</ele>
        <time>2011-03-10T09:45:14Z</time>
      </trkpt>
      <trkpt lat="42.65782" lon="0.87088">
        <ele>1200.82</ele>
        <time>2011-03-10T09:45:26Z</time>
      </trkpt>
      <trkpt lat="42.65782" lon="0.87087">
        <ele>1199.86</ele>
        <time>2011-03-10T09:45:33Z</time>
      </trkpt>
      <trkpt lat="42.65782" lon="0.87087">
        <ele>1202.75</ele>
        <time>2011-03-10T09:45:45Z</time>
      </trkpt>
      <trkpt lat="42.65782" lon="0.87085">
        <ele>1203.71</ele>
        <time>2011-03-10T09:45:53Z</time>
      </trkpt>
      <trkpt lat="42.65778" lon="0.87084">
        <ele>1206.59</ele>
        <time>2011-03-10T09:46:37Z</time>
      </trkpt>
      <trkpt lat="42.65778" lon="0.87084">
        <ele>1206.59</ele>
        <time>2011-03-10T09:46:38Z</time>
      </trkpt>
      <trkpt lat="42.65767" lon="0.87075">
        <ele>1207.55</ele>
        <time>2011-03-10T09:46:51Z</time>
      </trkpt>
      <trkpt lat="42.65765" lon="0.87074">
        <ele>1209.48</ele>
        <time>2011-03-10T09:47:04Z</time>
      </trkpt>
      <trkpt lat="42.65765" lon="0.87074">
        <ele>1212.84</ele>
        <time>2011-03-10T09:47:42Z</time>
      </trkpt>
      <trkpt lat="42.65765" lon="0.87074">
        <ele>1215.24</ele>
        <time>2011-03-10T09:48:14Z</time>
      </trkpt>
      <trkpt lat="42.65765" lon="0.87074">
        <ele>1215.24</ele>
        <time>2011-03-10T09:48:16Z</time>
      </trkpt>
      <trkpt lat="42.6576" lon="0.87074">
        <ele>1216.21</ele>
        <time>2011-03-10T09:48:20Z</time>
      </trkpt>
      <trkpt lat="42.65758" lon="0.87073">
        <ele>1216.21</ele>
        <time>2011-03-10T09:48:22Z</time>
      </trkpt>
      <trkpt lat="42.65753" lon="0.87072">
        <ele>1217.17</ele>
        <time>2011-03-10T09:48:26Z</time>
      </trkpt>
      <trkpt lat="42.65742" lon="0.87068">
        <ele>1217.17</ele>
        <time>2011-03-10T09:48:38Z</time>
      </trkpt>
      <trkpt lat="42.65737" lon="0.87068">
        <ele>1219.57</ele>
        <time>2011-03-10T09:48:54Z</time>
      </trkpt>
      <trkpt lat="42.65734" lon="0.87066">
        <ele>1220.53</ele>
        <time>2011-03-10T09:48:57Z</time>
      </trkpt>
      <trkpt lat="42.65724" lon="0.87062">
        <ele>1221.01</ele>
        <time>2011-03-10T09:49:07Z</time>
      </trkpt>
      <trkpt lat="42.65718" lon="0.8706">
        <ele>1221.97</ele>
        <time>2011-03-10T09:49:12Z</time>
      </trkpt>
      <trkpt lat="42.65716" lon="0.8706">
        <ele>1222.45</ele>
        <time>2011-03-10T09:49:14Z</time>
      </trkpt>
      <trkpt lat="42.6571" lon="0.87057">
        <ele>1222.93</ele>
        <time>2011-03-10T09:49:20Z</time>
      </trkpt>
      <trkpt lat="42.65698" lon="0.87052">
        <ele>1224.38</ele>
        <time>2011-03-10T09:49:32Z</time>
      </trkpt>
      <trkpt lat="42.65688" lon="0.87048">
        <ele>1226.78</ele>
        <time>2011-03-10T09:49:44Z</time>
      </trkpt>
      <trkpt lat="42.65676" lon="0.87045">
        <ele>1228.7</ele>
        <time>2011-03-10T09:49:57Z</time>
      </trkpt>
      <trkpt lat="42.65671" lon="0.87041">
        <ele>1228.7</ele>
        <time>2011-03-10T09:50:04Z</time>
      </trkpt>
      <trkpt lat="42.65661" lon="0.87036">
        <ele>1229.66</ele>
        <time>2011-03-10T09:50:15Z</time>
      </trkpt>
      <trkpt lat="42.65646" lon="0.87026">
        <ele>1232.07</ele>
        <time>2011-03-10T09:50:30Z</time>
      </trkpt>
      <trkpt lat="42.65637" lon="0.87021">
        <ele>1233.03</ele>
        <time>2011-03-10T09:50:40Z</time>
      </trkpt>
      <trkpt lat="42.65625" lon="0.87015">
        <ele>1234.95</ele>
        <time>2011-03-10T09:50:53Z</time>
      </trkpt>
      <trkpt lat="42.65615" lon="0.87013">
        <ele>1236.39</ele>
        <time>2011-03-10T09:51:04Z</time>
      </trkpt>
      <trkpt lat="42.65609" lon="0.87015">
        <ele>1237.83</ele>
        <time>2011-03-10T09:51:11Z</time>
      </trkpt>
      <trkpt lat="42.65596" lon="0.87014">
        <ele>1239.28</ele>
        <time>2011-03-10T09:51:24Z</time>
      </trkpt>
      <trkpt lat="42.65585" lon="0.87015">
        <ele>1241.2</ele>
        <time>2011-03-10T09:51:37Z</time>
      </trkpt>
      <trkpt lat="42.65571" lon="0.87016">
        <ele>1243.6</ele>
        <time>2011-03-10T09:51:51Z</time>
      </trkpt>
      <trkpt lat="42.6557" lon="0.87015">
        <ele>1243.12</ele>
        <time>2011-03-10T09:51:52Z</time>
      </trkpt>
      <trkpt lat="42.65563" lon="0.87015">
        <ele>1244.08</ele>
        <time>2011-03-10T09:51:59Z</time>
      </trkpt>
      <trkpt lat="42.65561" lon="0.87015">
        <ele>1244.56</ele>
        <time>2011-03-10T09:52:01Z</time>
      </trkpt>
      <trkpt lat="42.6555" lon="0.87018">
        <ele>1246.01</ele>
        <time>2011-03-10T09:52:14Z</time>
      </trkpt>
      <trkpt lat="42.65541" lon="0.8702">
        <ele>1247.93</ele>
        <time>2011-03-10T09:52:23Z</time>
      </trkpt>
      <trkpt lat="42.65538" lon="0.87021">
        <ele>1248.41</ele>
        <time>2011-03-10T09:52:27Z</time>
      </trkpt>
      <trkpt lat="42.65526" lon="0.87021">
        <ele>1250.33</ele>
        <time>2011-03-10T09:52:40Z</time>
      </trkpt>
      <trkpt lat="42.65513" lon="0.87026">
        <ele>1252.25</ele>
        <time>2011-03-10T09:52:54Z</time>
      </trkpt>
      <trkpt lat="42.65509" lon="0.87027">
        <ele>1252.74</ele>
        <time>2011-03-10T09:52:59Z</time>
      </trkpt>
      <trkpt lat="42.65505" lon="0.87028">
        <ele>1253.22</ele>
        <time>2011-03-10T09:53:03Z</time>
      </trkpt>
      <trkpt lat="42.65499" lon="0.87031">
        <ele>1254.66</ele>
        <time>2011-03-10T09:53:11Z</time>
      </trkpt>
      <trkpt lat="42.65494" lon="0.87033">
        <ele>1255.14</ele>
        <time>2011-03-10T09:53:16Z</time>
      </trkpt>
      <trkpt lat="42.65482" lon="0.87035">
        <ele>1257.06</ele>
        <time>2011-03-10T09:53:29Z</time>
      </trkpt>
      <trkpt lat="42.65473" lon="0.8704">
        <ele>1258.98</ele>
        <time>2011-03-10T09:53:42Z</time>
      </trkpt>
      <trkpt lat="42.6547" lon="0.87041">
        <ele>1260.43</ele>
        <time>2011-03-10T09:53:55Z</time>
      </trkpt>
      <trkpt lat="42.65467" lon="0.87041">
        <ele>1260.43</ele>
        <time>2011-03-10T09:53:57Z</time>
      </trkpt>
      <trkpt lat="42.65464" lon="0.87043">
        <ele>1261.39</ele>
        <time>2011-03-10T09:54:00Z</time>
      </trkpt>
      <trkpt lat="42.6545" lon="0.87048">
        <ele>1262.83</ele>
        <time>2011-03-10T09:54:12Z</time>
      </trkpt>
      <trkpt lat="42.65449" lon="0.87048">
        <ele>1262.83</ele>
        <time>2011-03-10T09:54:14Z</time>
      </trkpt>
      <trkpt lat="42.65445" lon="0.8705">
        <ele>1264.27</ele>
        <time>2011-03-10T09:54:18Z</time>
      </trkpt>
      <trkpt lat="42.65441" lon="0.8705">
        <ele>1264.27</ele>
        <time>2011-03-10T09:54:22Z</time>
      </trkpt>
      <trkpt lat="42.65427" lon="0.87053">
        <ele>1265.71</ele>
        <time>2011-03-10T09:54:35Z</time>
      </trkpt>
      <trkpt lat="42.65416" lon="0.87054">
        <ele>1268.6</ele>
        <time>2011-03-10T09:54:47Z</time>
      </trkpt>
      <trkpt lat="42.65413" lon="0.87055">
        <ele>1269.08</ele>
        <time>2011-03-10T09:54:50Z</time>
      </trkpt>
      <trkpt lat="42.65403" lon="0.87056">
        <ele>1271</ele>
        <time>2011-03-10T09:55:02Z</time>
      </trkpt>
      <trkpt lat="42.65397" lon="0.87054">
        <ele>1271</ele>
        <time>2011-03-10T09:55:16Z</time>
      </trkpt>
      <trkpt lat="42.65397" lon="0.87054">
        <ele>1272.44</ele>
        <time>2011-03-10T09:55:19Z</time>
      </trkpt>
      <trkpt lat="42.65397" lon="0.87055">
        <ele>1273.4</ele>
        <time>2011-03-10T09:55:34Z</time>
      </trkpt>
      <trkpt lat="42.65394" lon="0.87055">
        <ele>1274.85</ele>
        <time>2011-03-10T09:55:38Z</time>
      </trkpt>
      <trkpt lat="42.65392" lon="0.87055">
        <ele>1275.81</ele>
        <time>2011-03-10T09:55:48Z</time>
      </trkpt>
      <trkpt lat="42.65377" lon="0.8705">
        <ele>1279.17</ele>
        <time>2011-03-10T09:56:02Z</time>
      </trkpt>
      <trkpt lat="42.65366" lon="0.87045">
        <ele>1281.57</ele>
        <time>2011-03-10T09:56:12Z</time>
      </trkpt>
      <trkpt lat="42.65363" lon="0.87042">
        <ele>1281.57</ele>
        <time>2011-03-10T09:56:16Z</time>
      </trkpt>
      <trkpt lat="42.65354" lon="0.87036">
        <ele>1283.98</ele>
        <time>2011-03-10T09:56:25Z</time>
      </trkpt>
      <trkpt lat="42.65347" lon="0.87024">
        <ele>1286.86</ele>
        <time>2011-03-10T09:56:38Z</time>
      </trkpt>
      <trkpt lat="42.65345" lon="0.87019">
        <ele>1287.82</ele>
        <time>2011-03-10T09:56:45Z</time>
      </trkpt>
      <trkpt lat="42.65348" lon="0.87004">
        <ele>1289.75</ele>
        <time>2011-03-10T09:56:56Z</time>
      </trkpt>
      <trkpt lat="42.65343" lon="0.86987">
        <ele>1292.15</ele>
        <time>2011-03-10T09:57:08Z</time>
      </trkpt>
      <trkpt lat="42.65342" lon="0.86984">
        <ele>1292.63</ele>
        <time>2011-03-10T09:57:10Z</time>
      </trkpt>
      <trkpt lat="42.65337" lon="0.86973">
        <ele>1295.51</ele>
        <time>2011-03-10T09:57:20Z</time>
      </trkpt>
      <trkpt lat="42.65337" lon="0.86971">
        <ele>1295.51</ele>
        <time>2011-03-10T09:57:21Z</time>
      </trkpt>
      <trkpt lat="42.65336" lon="0.86968">
        <ele>1295.03</ele>
        <time>2011-03-10T09:57:23Z</time>
      </trkpt>
      <trkpt lat="42.65324" lon="0.86949">
        <ele>1297.44</ele>
        <time>2011-03-10T09:57:36Z</time>
      </trkpt>
      <trkpt lat="42.65323" lon="0.86935">
        <ele>1299.84</ele>
        <time>2011-03-10T09:57:49Z</time>
      </trkpt>
      <trkpt lat="42.65314" lon="0.86921">
        <ele>1301.76</ele>
        <time>2011-03-10T09:58:00Z</time>
      </trkpt>
      <trkpt lat="42.65304" lon="0.86909">
        <ele>1304.17</ele>
        <time>2011-03-10T09:58:11Z</time>
      </trkpt>
      <trkpt lat="42.65298" lon="0.869">
        <ele>1306.09</ele>
        <time>2011-03-10T09:58:22Z</time>
      </trkpt>
      <trkpt lat="42.65294" lon="0.86895">
        <ele>1306.57</ele>
        <time>2011-03-10T09:58:27Z</time>
      </trkpt>
      <trkpt lat="42.65285" lon="0.86884">
        <ele>1309.93</ele>
        <time>2011-03-10T09:58:39Z</time>
      </trkpt>
      <trkpt lat="42.65278" lon="0.86872">
        <ele>1310.9</ele>
        <time>2011-03-10T09:58:49Z</time>
      </trkpt>
      <trkpt lat="42.65275" lon="0.86869">
        <ele>1311.38</ele>
        <time>2011-03-10T09:58:53Z</time>
      </trkpt>
      <trkpt lat="42.65271" lon="0.86864">
        <ele>1312.34</ele>
        <time>2011-03-10T09:58:59Z</time>
      </trkpt>
      <trkpt lat="42.65263" lon="0.86853">
        <ele>1314.74</ele>
        <time>2011-03-10T09:59:11Z</time>
      </trkpt>
      <trkpt lat="42.65256" lon="0.86843">
        <ele>1317.14</ele>
        <time>2011-03-10T09:59:22Z</time>
      </trkpt>
      <trkpt lat="42.65255" lon="0.86842">
        <ele>1317.62</ele>
        <time>2011-03-10T09:59:23Z</time>
      </trkpt>
      <trkpt lat="42.65246" lon="0.86836">
        <ele>1319.55</ele>
        <time>2011-03-10T09:59:36Z</time>
      </trkpt>
      <trkpt lat="42.65245" lon="0.86835">
        <ele>1320.03</ele>
        <time>2011-03-10T09:59:37Z</time>
      </trkpt>
      <trkpt lat="42.65241" lon="0.8683">
        <ele>1320.99</ele>
        <time>2011-03-10T09:59:43Z</time>
      </trkpt>
      <trkpt lat="42.6523" lon="0.8682">
        <ele>1322.91</ele>
        <time>2011-03-10T09:59:58Z</time>
      </trkpt>
      <trkpt lat="42.65219" lon="0.86813">
        <ele>1325.31</ele>
        <time>2011-03-10T10:00:12Z</time>
      </trkpt>
      <trkpt lat="42.65218" lon="0.86813">
        <ele>1324.35</ele>
        <time>2011-03-10T10:00:13Z</time>
      </trkpt>
      <trkpt lat="42.65212" lon="0.86808">
        <ele>1326.28</ele>
        <time>2011-03-10T10:00:21Z</time>
      </trkpt>
      <trkpt lat="42.65202" lon="0.86801">
        <ele>1327.24</ele>
        <time>2011-03-10T10:00:33Z</time>
      </trkpt>
      <trkpt lat="42.65198" lon="0.86799">
        <ele>1327.72</ele>
        <time>2011-03-10T10:00:39Z</time>
      </trkpt>
      <trkpt lat="42.65189" lon="0.8679">
        <ele>1329.16</ele>
        <time>2011-03-10T10:00:50Z</time>
      </trkpt>
      <trkpt lat="42.6518" lon="0.86782">
        <ele>1331.56</ele>
        <time>2011-03-10T10:01:01Z</time>
      </trkpt>
      <trkpt lat="42.65171" lon="0.86774">
        <ele>1332.52</ele>
        <time>2011-03-10T10:01:13Z</time>
      </trkpt>
      <trkpt lat="42.65166" lon="0.86771">
        <ele>1333.49</ele>
        <time>2011-03-10T10:01:19Z</time>
      </trkpt>
      <trkpt lat="42.65161" lon="0.8677">
        <ele>1334.93</ele>
        <time>2011-03-10T10:01:25Z</time>
      </trkpt>
      <trkpt lat="42.65149" lon="0.86766">
        <ele>1336.37</ele>
        <time>2011-03-10T10:01:40Z</time>
      </trkpt>
      <trkpt lat="42.65144" lon="0.86767">
        <ele>1337.33</ele>
        <time>2011-03-10T10:01:50Z</time>
      </trkpt>
      <trkpt lat="42.65133" lon="0.86771">
        <ele>1338.77</ele>
        <time>2011-03-10T10:02:01Z</time>
      </trkpt>
      <trkpt lat="42.65131" lon="0.86772">
        <ele>1340.22</ele>
        <time>2011-03-10T10:02:04Z</time>
      </trkpt>
      <trkpt lat="42.65127" lon="0.86773">
        <ele>1341.18</ele>
        <time>2011-03-10T10:02:08Z</time>
      </trkpt>
      <trkpt lat="42.65117" lon="0.86774">
        <ele>1342.62</ele>
        <time>2011-03-10T10:02:20Z</time>
      </trkpt>
      <trkpt lat="42.65113" lon="0.86773">
        <ele>1343.58</ele>
        <time>2011-03-10T10:02:24Z</time>
      </trkpt>
      <trkpt lat="42.65104" lon="0.86772">
        <ele>1345.98</ele>
        <time>2011-03-10T10:02:35Z</time>
      </trkpt>
      <trkpt lat="42.65099" lon="0.86772">
        <ele>1346.46</ele>
        <time>2011-03-10T10:02:40Z</time>
      </trkpt>
      <trkpt lat="42.65088" lon="0.86769">
        <ele>1347.91</ele>
        <time>2011-03-10T10:02:53Z</time>
      </trkpt>
      <trkpt lat="42.65079" lon="0.86763">
        <ele>1349.83</ele>
        <time>2011-03-10T10:03:04Z</time>
      </trkpt>
      <trkpt lat="42.65073" lon="0.86755">
        <ele>1351.75</ele>
        <time>2011-03-10T10:03:16Z</time>
      </trkpt>
      <trkpt lat="42.65071" lon="0.86752">
        <ele>1352.71</ele>
        <time>2011-03-10T10:03:20Z</time>
      </trkpt>
      <trkpt lat="42.65062" lon="0.86744">
        <ele>1353.67</ele>
        <time>2011-03-10T10:03:28Z</time>
      </trkpt>
      <trkpt lat="42.65055" lon="0.86733">
        <ele>1355.6</ele>
        <time>2011-03-10T10:03:40Z</time>
      </trkpt>
      <trkpt lat="42.65047" lon="0.86726">
        <ele>1357.52</ele>
        <time>2011-03-10T10:03:52Z</time>
      </trkpt>
      <trkpt lat="42.65039" lon="0.86718">
        <ele>1358.96</ele>
        <time>2011-03-10T10:04:04Z</time>
      </trkpt>
      <trkpt lat="42.65029" lon="0.86706">
        <ele>1360.4</ele>
        <time>2011-03-10T10:04:17Z</time>
      </trkpt>
      <trkpt lat="42.65019" lon="0.86696">
        <ele>1362.81</ele>
        <time>2011-03-10T10:04:31Z</time>
      </trkpt>
      <trkpt lat="42.6501" lon="0.86688">
        <ele>1364.25</ele>
        <time>2011-03-10T10:04:43Z</time>
      </trkpt>
      <trkpt lat="42.65006" lon="0.86686">
        <ele>1365.69</ele>
        <time>2011-03-10T10:04:48Z</time>
      </trkpt>
      <trkpt lat="42.64998" lon="0.8668">
        <ele>1366.65</ele>
        <time>2011-03-10T10:05:00Z</time>
      </trkpt>
      <trkpt lat="42.64994" lon="0.86675">
        <ele>1366.65</ele>
        <time>2011-03-10T10:05:06Z</time>
      </trkpt>
      <trkpt lat="42.64986" lon="0.86662">
        <ele>1369.05</ele>
        <time>2011-03-10T10:05:19Z</time>
      </trkpt>
      <trkpt lat="42.64982" lon="0.86654">
        <ele>1370.5</ele>
        <time>2011-03-10T10:05:29Z</time>
      </trkpt>
      <trkpt lat="42.64977" lon="0.86642">
        <ele>1372.42</ele>
        <time>2011-03-10T10:05:38Z</time>
      </trkpt>
      <trkpt lat="42.64978" lon="0.86639">
        <ele>1372.42</ele>
        <time>2011-03-10T10:05:42Z</time>
      </trkpt>
      <trkpt lat="42.64973" lon="0.86625">
        <ele>1374.34</ele>
        <time>2011-03-10T10:05:57Z</time>
      </trkpt>
      <trkpt lat="42.64967" lon="0.86609">
        <ele>1376.75</ele>
        <time>2011-03-10T10:06:10Z</time>
      </trkpt>
      <trkpt lat="42.64965" lon="0.86602">
        <ele>1377.71</ele>
        <time>2011-03-10T10:06:17Z</time>
      </trkpt>
      <trkpt lat="42.64963" lon="0.86584">
        <ele>1379.15</ele>
        <time>2011-03-10T10:06:30Z</time>
      </trkpt>
      <trkpt lat="42.64961" lon="0.86573">
        <ele>1381.07</ele>
        <time>2011-03-10T10:06:42Z</time>
      </trkpt>
      <trkpt lat="42.64961" lon="0.86567">
        <ele>1381.55</ele>
        <time>2011-03-10T10:06:47Z</time>
      </trkpt>
      <trkpt lat="42.64958" lon="0.86557">
        <ele>1382.99</ele>
        <time>2011-03-10T10:06:54Z</time>
      </trkpt>
      <trkpt lat="42.64955" lon="0.86544">
        <ele>1384.92</ele>
        <time>2011-03-10T10:07:07Z</time>
      </trkpt>
      <trkpt lat="42.64953" lon="0.86528">
        <ele>1386.84</ele>
        <time>2011-03-10T10:07:19Z</time>
      </trkpt>
      <trkpt lat="42.64956" lon="0.86512">
        <ele>1389.72</ele>
        <time>2011-03-10T10:07:33Z</time>
      </trkpt>
      <trkpt lat="42.64956" lon="0.86499">
        <ele>1391.17</ele>
        <time>2011-03-10T10:07:43Z</time>
      </trkpt>
      <trkpt lat="42.64954" lon="0.86494">
        <ele>1392.13</ele>
        <time>2011-03-10T10:07:48Z</time>
      </trkpt>
      <trkpt lat="42.64955" lon="0.86491">
        <ele>1392.13</ele>
        <time>2011-03-10T10:07:50Z</time>
      </trkpt>
      <trkpt lat="42.64955" lon="0.86485">
        <ele>1392.61</ele>
        <time>2011-03-10T10:07:55Z</time>
      </trkpt>
      <trkpt lat="42.64955" lon="0.86481">
        <ele>1394.05</ele>
        <time>2011-03-10T10:07:58Z</time>
      </trkpt>
      <trkpt lat="42.64955" lon="0.86472">
        <ele>1395.01</ele>
        <time>2011-03-10T10:08:07Z</time>
      </trkpt>
      <trkpt lat="42.64952" lon="0.86461">
        <ele>1396.93</ele>
        <time>2011-03-10T10:08:17Z</time>
      </trkpt>
      <trkpt lat="42.64946" lon="0.86449">
        <ele>1398.86</ele>
        <time>2011-03-10T10:08:30Z</time>
      </trkpt>
      <trkpt lat="42.64944" lon="0.8644">
        <ele>1400.3</ele>
        <time>2011-03-10T10:08:37Z</time>
      </trkpt>
      <trkpt lat="42.64941" lon="0.86435">
        <ele>1400.78</ele>
        <time>2011-03-10T10:08:42Z</time>
      </trkpt>
      <trkpt lat="42.64937" lon="0.86421">
        <ele>1403.18</ele>
        <time>2011-03-10T10:08:55Z</time>
      </trkpt>
      <trkpt lat="42.6493" lon="0.86408">
        <ele>1405.1</ele>
        <time>2011-03-10T10:09:09Z</time>
      </trkpt>
      <trkpt lat="42.64926" lon="0.86393">
        <ele>1407.51</ele>
        <time>2011-03-10T10:09:22Z</time>
      </trkpt>
      <trkpt lat="42.64929" lon="0.86377">
        <ele>1409.91</ele>
        <time>2011-03-10T10:09:35Z</time>
      </trkpt>
      <trkpt lat="42.64929" lon="0.86372">
        <ele>1411.35</ele>
        <time>2011-03-10T10:09:40Z</time>
      </trkpt>
      <trkpt lat="42.64929" lon="0.86371">
        <ele>1410.87</ele>
        <time>2011-03-10T10:09:41Z</time>
      </trkpt>
      <trkpt lat="42.64928" lon="0.86358">
        <ele>1413.76</ele>
        <time>2011-03-10T10:09:53Z</time>
      </trkpt>
      <trkpt lat="42.64923" lon="0.86353">
        <ele>1414.24</ele>
        <time>2011-03-10T10:09:58Z</time>
      </trkpt>
      <trkpt lat="42.64912" lon="0.8634">
        <ele>1416.64</ele>
        <time>2011-03-10T10:10:12Z</time>
      </trkpt>
      <trkpt lat="42.64903" lon="0.86324">
        <ele>1418.56</ele>
        <time>2011-03-10T10:10:26Z</time>
      </trkpt>
      <trkpt lat="42.64898" lon="0.86313">
        <ele>1420.49</ele>
        <time>2011-03-10T10:10:37Z</time>
      </trkpt>
      <trkpt lat="42.64896" lon="0.86297">
        <ele>1422.41</ele>
        <time>2011-03-10T10:10:51Z</time>
      </trkpt>
      <trkpt lat="42.64896" lon="0.86296">
        <ele>1422.89</ele>
        <time>2011-03-10T10:10:52Z</time>
      </trkpt>
      <trkpt lat="42.64891" lon="0.86279">
        <ele>1426.25</ele>
        <time>2011-03-10T10:11:06Z</time>
      </trkpt>
      <trkpt lat="42.64882" lon="0.86266">
        <ele>1427.21</ele>
        <time>2011-03-10T10:11:20Z</time>
      </trkpt>
      <trkpt lat="42.64877" lon="0.86254">
        <ele>1429.62</ele>
        <time>2011-03-10T10:11:32Z</time>
      </trkpt>
      <trkpt lat="42.64869" lon="0.86245">
        <ele>1431.54</ele>
        <time>2011-03-10T10:11:43Z</time>
      </trkpt>
      <trkpt lat="42.64864" lon="0.86237">
        <ele>1432.98</ele>
        <time>2011-03-10T10:11:52Z</time>
      </trkpt>
      <trkpt lat="42.64856" lon="0.86229">
        <ele>1433.94</ele>
        <time>2011-03-10T10:12:02Z</time>
      </trkpt>
      <trkpt lat="42.64852" lon="0.86224">
        <ele>1435.39</ele>
        <time>2011-03-10T10:12:09Z</time>
      </trkpt>
      <trkpt lat="42.64842" lon="0.86222">
        <ele>1438.27</ele>
        <time>2011-03-10T10:12:23Z</time>
      </trkpt>
      <trkpt lat="42.64836" lon="0.86216">
        <ele>1438.27</ele>
        <time>2011-03-10T10:12:29Z</time>
      </trkpt>
      <trkpt lat="42.64832" lon="0.86206">
        <ele>1439.23</ele>
        <time>2011-03-10T10:12:36Z</time>
      </trkpt>
      <trkpt lat="42.64833" lon="0.86194">
        <ele>1441.63</ele>
        <time>2011-03-10T10:12:48Z</time>
      </trkpt>
      <trkpt lat="42.64833" lon="0.8618">
        <ele>1443.56</ele>
        <time>2011-03-10T10:13:01Z</time>
      </trkpt>
      <trkpt lat="42.6483" lon="0.86167">
        <ele>1445.48</ele>
        <time>2011-03-10T10:13:14Z</time>
      </trkpt>
      <trkpt lat="42.64823" lon="0.86153">
        <ele>1447.4</ele>
        <time>2011-03-10T10:13:27Z</time>
      </trkpt>
      <trkpt lat="42.64822" lon="0.86148">
        <ele>1447.88</ele>
        <time>2011-03-10T10:13:32Z</time>
      </trkpt>
      <trkpt lat="42.64822" lon="0.86146">
        <ele>1448.84</ele>
        <time>2011-03-10T10:13:34Z</time>
      </trkpt>
      <trkpt lat="42.64821" lon="0.8613">
        <ele>1450.29</ele>
        <time>2011-03-10T10:13:48Z</time>
      </trkpt>
      <trkpt lat="42.64817" lon="0.86114">
        <ele>1453.17</ele>
        <time>2011-03-10T10:14:01Z</time>
      </trkpt>
      <trkpt lat="42.64814" lon="0.86097">
        <ele>1455.09</ele>
        <time>2011-03-10T10:14:16Z</time>
      </trkpt>
      <trkpt lat="42.6481" lon="0.86086">
        <ele>1457.5</ele>
        <time>2011-03-10T10:14:27Z</time>
      </trkpt>
      <trkpt lat="42.64804" lon="0.86077">
        <ele>1458.94</ele>
        <time>2011-03-10T10:14:38Z</time>
      </trkpt>
      <trkpt lat="42.64797" lon="0.86062">
        <ele>1461.34</ele>
        <time>2011-03-10T10:14:52Z</time>
      </trkpt>
      <trkpt lat="42.64789" lon="0.86048">
        <ele>1463.74</ele>
        <time>2011-03-10T10:15:07Z</time>
      </trkpt>
      <trkpt lat="42.64787" lon="0.86042">
        <ele>1464.23</ele>
        <time>2011-03-10T10:15:12Z</time>
      </trkpt>
      <trkpt lat="42.64779" lon="0.86028">
        <ele>1466.15</ele>
        <time>2011-03-10T10:15:26Z</time>
      </trkpt>
      <trkpt lat="42.64776" lon="0.86024">
        <ele>1467.11</ele>
        <time>2011-03-10T10:15:32Z</time>
      </trkpt>
      <trkpt lat="42.64775" lon="0.86016">
        <ele>1468.55</ele>
        <time>2011-03-10T10:15:40Z</time>
      </trkpt>
      <trkpt lat="42.6477" lon="0.8601">
        <ele>1469.51</ele>
        <time>2011-03-10T10:15:46Z</time>
      </trkpt>
      <trkpt lat="42.64764" lon="0.86002">
        <ele>1470.95</ele>
        <time>2011-03-10T10:15:55Z</time>
      </trkpt>
      <trkpt lat="42.64759" lon="0.85997">
        <ele>1471.44</ele>
        <time>2011-03-10T10:16:02Z</time>
      </trkpt>
      <trkpt lat="42.6475" lon="0.85986">
        <ele>1473.36</ele>
        <time>2011-03-10T10:16:15Z</time>
      </trkpt>
      <trkpt lat="42.6474" lon="0.85974">
        <ele>1475.76</ele>
        <time>2011-03-10T10:16:29Z</time>
      </trkpt>
      <trkpt lat="42.64738" lon="0.8597">
        <ele>1476.72</ele>
        <time>2011-03-10T10:16:41Z</time>
      </trkpt>
      <trkpt lat="42.64735" lon="0.85959">
        <ele>1478.65</ele>
        <time>2011-03-10T10:16:54Z</time>
      </trkpt>
      <trkpt lat="42.64735" lon="0.85956">
        <ele>1479.13</ele>
        <time>2011-03-10T10:16:57Z</time>
      </trkpt>
      <trkpt lat="42.64733" lon="0.8595">
        <ele>1479.61</ele>
        <time>2011-03-10T10:17:01Z</time>
      </trkpt>
      <trkpt lat="42.64732" lon="0.85943">
        <ele>1481.05</ele>
        <time>2011-03-10T10:17:07Z</time>
      </trkpt>
      <trkpt lat="42.64729" lon="0.85929">
        <ele>1483.45</ele>
        <time>2011-03-10T10:17:20Z</time>
      </trkpt>
      <trkpt lat="42.64723" lon="0.85917">
        <ele>1485.85</ele>
        <time>2011-03-10T10:17:32Z</time>
      </trkpt>
      <trkpt lat="42.64717" lon="0.85906">
        <ele>1487.78</ele>
        <time>2011-03-10T10:17:44Z</time>
      </trkpt>
      <trkpt lat="42.64709" lon="0.85892">
        <ele>1489.7</ele>
        <time>2011-03-10T10:17:59Z</time>
      </trkpt>
      <trkpt lat="42.64702" lon="0.8588">
        <ele>1492.1</ele>
        <time>2011-03-10T10:18:10Z</time>
      </trkpt>
      <trkpt lat="42.64693" lon="0.85871">
        <ele>1493.06</ele>
        <time>2011-03-10T10:18:22Z</time>
      </trkpt>
      <trkpt lat="42.64689" lon="0.85867">
        <ele>1494.51</ele>
        <time>2011-03-10T10:18:27Z</time>
      </trkpt>
      <trkpt lat="42.64679" lon="0.85856">
        <ele>1496.43</ele>
        <time>2011-03-10T10:18:40Z</time>
      </trkpt>
      <trkpt lat="42.6467" lon="0.85846">
        <ele>1498.35</ele>
        <time>2011-03-10T10:18:53Z</time>
      </trkpt>
      <trkpt lat="42.64659" lon="0.85836">
        <ele>1500.76</ele>
        <time>2011-03-10T10:19:08Z</time>
      </trkpt>
      <trkpt lat="42.64653" lon="0.85831">
        <ele>1501.24</ele>
        <time>2011-03-10T10:19:17Z</time>
      </trkpt>
      <trkpt lat="42.6465" lon="0.85829">
        <ele>1501.72</ele>
        <time>2011-03-10T10:19:20Z</time>
      </trkpt>
      <trkpt lat="42.64638" lon="0.85817">
        <ele>1503.16</ele>
        <time>2011-03-10T10:19:33Z</time>
      </trkpt>
      <trkpt lat="42.64635" lon="0.85812">
        <ele>1503.64</ele>
        <time>2011-03-10T10:19:37Z</time>
      </trkpt>
      <trkpt lat="42.64625" lon="0.85802">
        <ele>1505.08</ele>
        <time>2011-03-10T10:19:50Z</time>
      </trkpt>
      <trkpt lat="42.64613" lon="0.85795">
        <ele>1506.52</ele>
        <time>2011-03-10T10:20:05Z</time>
      </trkpt>
      <trkpt lat="42.64603" lon="0.85786">
        <ele>1507.48</ele>
        <time>2011-03-10T10:20:20Z</time>
      </trkpt>
      <trkpt lat="42.64595" lon="0.85775">
        <ele>1508.93</ele>
        <time>2011-03-10T10:20:31Z</time>
      </trkpt>
      <trkpt lat="42.64591" lon="0.85769">
        <ele>1509.41</ele>
        <time>2011-03-10T10:20:37Z</time>
      </trkpt>
      <trkpt lat="42.64586" lon="0.85755">
        <ele>1510.37</ele>
        <time>2011-03-10T10:20:48Z</time>
      </trkpt>
      <trkpt lat="42.64585" lon="0.85734">
        <ele>1512.29</ele>
        <time>2011-03-10T10:21:01Z</time>
      </trkpt>
      <trkpt lat="42.6458" lon="0.85722">
        <ele>1512.77</ele>
        <time>2011-03-10T10:21:11Z</time>
      </trkpt>
      <trkpt lat="42.64576" lon="0.85716">
        <ele>1513.25</ele>
        <time>2011-03-10T10:21:17Z</time>
      </trkpt>
      <trkpt lat="42.64572" lon="0.8571">
        <ele>1514.21</ele>
        <time>2011-03-10T10:21:23Z</time>
      </trkpt>
      <trkpt lat="42.64565" lon="0.85696">
        <ele>1516.14</ele>
        <time>2011-03-10T10:21:37Z</time>
      </trkpt>
      <trkpt lat="42.64559" lon="0.85689">
        <ele>1517.1</ele>
        <time>2011-03-10T10:21:44Z</time>
      </trkpt>
      <trkpt lat="42.64557" lon="0.85686">
        <ele>1517.58</ele>
        <time>2011-03-10T10:21:48Z</time>
      </trkpt>
      <trkpt lat="42.64551" lon="0.8567">
        <ele>1519.5</ele>
        <time>2011-03-10T10:22:02Z</time>
      </trkpt>
      <trkpt lat="42.64548" lon="0.85657">
        <ele>1520.94</ele>
        <time>2011-03-10T10:22:15Z</time>
      </trkpt>
      <trkpt lat="42.64544" lon="0.85651">
        <ele>1522.39</ele>
        <time>2011-03-10T10:22:21Z</time>
      </trkpt>
      <trkpt lat="42.6454" lon="0.85635">
        <ele>1524.31</ele>
        <time>2011-03-10T10:22:35Z</time>
      </trkpt>
      <trkpt lat="42.64535" lon="0.85621">
        <ele>1525.27</ele>
        <time>2011-03-10T10:22:48Z</time>
      </trkpt>
      <trkpt lat="42.64533" lon="0.85617">
        <ele>1526.23</ele>
        <time>2011-03-10T10:22:51Z</time>
      </trkpt>
      <trkpt lat="42.64526" lon="0.85604">
        <ele>1527.67</ele>
        <time>2011-03-10T10:23:04Z</time>
      </trkpt>
      <trkpt lat="42.64522" lon="0.85598">
        <ele>1529.11</ele>
        <time>2011-03-10T10:23:10Z</time>
      </trkpt>
      <trkpt lat="42.64515" lon="0.85583">
        <ele>1530.08</ele>
        <time>2011-03-10T10:23:24Z</time>
      </trkpt>
      <trkpt lat="42.64506" lon="0.85575">
        <ele>1531.52</ele>
        <time>2011-03-10T10:23:36Z</time>
      </trkpt>
      <trkpt lat="42.64503" lon="0.85569">
        <ele>1532.96</ele>
        <time>2011-03-10T10:23:42Z</time>
      </trkpt>
      <trkpt lat="42.64496" lon="0.85556">
        <ele>1534.88</ele>
        <time>2011-03-10T10:23:55Z</time>
      </trkpt>
      <trkpt lat="42.6449" lon="0.85544">
        <ele>1535.84</ele>
        <time>2011-03-10T10:24:06Z</time>
      </trkpt>
      <trkpt lat="42.64484" lon="0.85531">
        <ele>1538.25</ele>
        <time>2011-03-10T10:24:19Z</time>
      </trkpt>
      <trkpt lat="42.64478" lon="0.85522">
        <ele>1540.17</ele>
        <time>2011-03-10T10:24:31Z</time>
      </trkpt>
      <trkpt lat="42.64466" lon="0.85512">
        <ele>1541.61</ele>
        <time>2011-03-10T10:24:45Z</time>
      </trkpt>
      <trkpt lat="42.64465" lon="0.85511">
        <ele>1541.61</ele>
        <time>2011-03-10T10:24:46Z</time>
      </trkpt>
      <trkpt lat="42.64452" lon="0.85504">
        <ele>1543.53</ele>
        <time>2011-03-10T10:25:01Z</time>
      </trkpt>
      <trkpt lat="42.64444" lon="0.85502">
        <ele>1544.5</ele>
        <time>2011-03-10T10:25:14Z</time>
      </trkpt>
      <trkpt lat="42.64432" lon="0.85498">
        <ele>1546.9</ele>
        <time>2011-03-10T10:25:27Z</time>
      </trkpt>
      <trkpt lat="42.64427" lon="0.85495">
        <ele>1546.9</ele>
        <time>2011-03-10T10:25:32Z</time>
      </trkpt>
      <trkpt lat="42.64425" lon="0.85493">
        <ele>1547.38</ele>
        <time>2011-03-10T10:25:34Z</time>
      </trkpt>
      <trkpt lat="42.64414" lon="0.85485">
        <ele>1549.3</ele>
        <time>2011-03-10T10:25:49Z</time>
      </trkpt>
      <trkpt lat="42.64413" lon="0.85483">
        <ele>1550.74</ele>
        <time>2011-03-10T10:26:09Z</time>
      </trkpt>
      <trkpt lat="42.64413" lon="0.85484">
        <ele>1551.71</ele>
        <time>2011-03-10T10:26:38Z</time>
      </trkpt>
      <trkpt lat="42.64408" lon="0.8548">
        <ele>1553.63</ele>
        <time>2011-03-10T10:27:14Z</time>
      </trkpt>
      <trkpt lat="42.64396" lon="0.85471">
        <ele>1554.59</ele>
        <time>2011-03-10T10:27:28Z</time>
      </trkpt>
      <trkpt lat="42.64387" lon="0.85463">
        <ele>1556.99</ele>
        <time>2011-03-10T10:27:42Z</time>
      </trkpt>
      <trkpt lat="42.64383" lon="0.85459">
        <ele>1557.47</ele>
        <time>2011-03-10T10:27:47Z</time>
      </trkpt>
      <trkpt lat="42.64379" lon="0.85456">
        <ele>1558.43</ele>
        <time>2011-03-10T10:27:52Z</time>
      </trkpt>
      <trkpt lat="42.64375" lon="0.85452">
        <ele>1558.92</ele>
        <time>2011-03-10T10:27:57Z</time>
      </trkpt>
      <trkpt lat="42.64367" lon="0.85445">
        <ele>1560.84</ele>
        <time>2011-03-10T10:28:10Z</time>
      </trkpt>
      <trkpt lat="42.64364" lon="0.8544">
        <ele>1561.8</ele>
        <time>2011-03-10T10:28:16Z</time>
      </trkpt>
      <trkpt lat="42.64352" lon="0.85433">
        <ele>1563.24</ele>
        <time>2011-03-10T10:28:31Z</time>
      </trkpt>
      <trkpt lat="42.64346" lon="0.8543">
        <ele>1564.68</ele>
        <time>2011-03-10T10:28:38Z</time>
      </trkpt>
      <trkpt lat="42.64341" lon="0.85427">
        <ele>1565.16</ele>
        <time>2011-03-10T10:28:45Z</time>
      </trkpt>
      <trkpt lat="42.64335" lon="0.85425">
        <ele>1566.12</ele>
        <time>2011-03-10T10:28:51Z</time>
      </trkpt>
      <trkpt lat="42.64322" lon="0.85423">
        <ele>1568.05</ele>
        <time>2011-03-10T10:29:05Z</time>
      </trkpt>
      <trkpt lat="42.6432" lon="0.85422">
        <ele>1568.53</ele>
        <time>2011-03-10T10:29:07Z</time>
      </trkpt>
      <trkpt lat="42.64311" lon="0.85415">
        <ele>1569.49</ele>
        <time>2011-03-10T10:29:19Z</time>
      </trkpt>
      <trkpt lat="42.64307" lon="0.85407">
        <ele>1570.45</ele>
        <time>2011-03-10T10:29:26Z</time>
      </trkpt>
      <trkpt lat="42.64302" lon="0.85391">
        <ele>1572.37</ele>
        <time>2011-03-10T10:29:39Z</time>
      </trkpt>
      <trkpt lat="42.64301" lon="0.85385">
        <ele>1572.85</ele>
        <time>2011-03-10T10:29:44Z</time>
      </trkpt>
      <trkpt lat="42.64298" lon="0.8538">
        <ele>1573.33</ele>
        <time>2011-03-10T10:29:48Z</time>
      </trkpt>
      <trkpt lat="42.64296" lon="0.85375">
        <ele>1573.33</ele>
        <time>2011-03-10T10:29:53Z</time>
      </trkpt>
      <trkpt lat="42.64289" lon="0.8536">
        <ele>1575.26</ele>
        <time>2011-03-10T10:30:06Z</time>
      </trkpt>
      <trkpt lat="42.64286" lon="0.85351">
        <ele>1577.18</ele>
        <time>2011-03-10T10:30:15Z</time>
      </trkpt>
      <trkpt lat="42.64276" lon="0.85339">
        <ele>1578.62</ele>
        <time>2011-03-10T10:30:28Z</time>
      </trkpt>
      <trkpt lat="42.64267" lon="0.85334">
        <ele>1580.54</ele>
        <time>2011-03-10T10:30:40Z</time>
      </trkpt>
      <trkpt lat="42.64258" lon="0.85328">
        <ele>1581.51</ele>
        <time>2011-03-10T10:30:51Z</time>
      </trkpt>
      <trkpt lat="42.64256" lon="0.85326">
        <ele>1581.99</ele>
        <time>2011-03-10T10:30:54Z</time>
      </trkpt>
      <trkpt lat="42.64252" lon="0.85319">
        <ele>1582.95</ele>
        <time>2011-03-10T10:31:01Z</time>
      </trkpt>
      <trkpt lat="42.64247" lon="0.85302">
        <ele>1584.87</ele>
        <time>2011-03-10T10:31:16Z</time>
      </trkpt>
      <trkpt lat="42.64246" lon="0.85289">
        <ele>1586.31</ele>
        <time>2011-03-10T10:31:28Z</time>
      </trkpt>
      <trkpt lat="42.64243" lon="0.85274">
        <ele>1587.75</ele>
        <time>2011-03-10T10:31:41Z</time>
      </trkpt>
      <trkpt lat="42.64242" lon="0.8526">
        <ele>1589.2</ele>
        <time>2011-03-10T10:31:52Z</time>
      </trkpt>
      <trkpt lat="42.64242" lon="0.85244">
        <ele>1590.64</ele>
        <time>2011-03-10T10:32:05Z</time>
      </trkpt>
      <trkpt lat="42.64242" lon="0.85242">
        <ele>1591.6</ele>
        <time>2011-03-10T10:32:07Z</time>
      </trkpt>
      <trkpt lat="42.64242" lon="0.85226">
        <ele>1593.52</ele>
        <time>2011-03-10T10:32:21Z</time>
      </trkpt>
      <trkpt lat="42.64243" lon="0.85219">
        <ele>1594</ele>
        <time>2011-03-10T10:32:27Z</time>
      </trkpt>
      <trkpt lat="42.64243" lon="0.8521">
        <ele>1594</ele>
        <time>2011-03-10T10:32:34Z</time>
      </trkpt>
      <trkpt lat="42.64245" lon="0.85197">
        <ele>1596.89</ele>
        <time>2011-03-10T10:32:46Z</time>
      </trkpt>
      <trkpt lat="42.64247" lon="0.85186">
        <ele>1597.85</ele>
        <time>2011-03-10T10:32:55Z</time>
      </trkpt>
      <trkpt lat="42.64247" lon="0.85169">
        <ele>1599.29</ele>
        <time>2011-03-10T10:33:10Z</time>
      </trkpt>
      <trkpt lat="42.64248" lon="0.85166">
        <ele>1599.77</ele>
        <time>2011-03-10T10:33:12Z</time>
      </trkpt>
      <trkpt lat="42.64248" lon="0.8516">
        <ele>1599.77</ele>
        <time>2011-03-10T10:33:30Z</time>
      </trkpt>
      <trkpt lat="42.64248" lon="0.8516">
        <ele>1600.25</ele>
        <time>2011-03-10T10:34:06Z</time>
      </trkpt>
      <trkpt lat="42.64248" lon="0.8516">
        <ele>1603.14</ele>
        <time>2011-03-10T10:35:24Z</time>
      </trkpt>
      <trkpt lat="42.64248" lon="0.8516">
        <ele>1608.42</ele>
        <time>2011-03-10T10:35:56Z</time>
      </trkpt>
      <trkpt lat="42.64248" lon="0.8516">
        <ele>1606.5</ele>
        <time>2011-03-10T10:35:57Z</time>
      </trkpt>
      <trkpt lat="42.64248" lon="0.8516">
        <ele>1603.62</ele>
        <time>2011-03-10T10:35:58Z</time>
      </trkpt>
      <trkpt lat="42.64248" lon="0.8516">
        <ele>1606.98</ele>
        <time>2011-03-10T10:37:47Z</time>
      </trkpt>
      <trkpt lat="42.64248" lon="0.85158">
        <ele>1607.46</ele>
        <time>2011-03-10T10:37:56Z</time>
      </trkpt>
      <trkpt lat="42.64248" lon="0.85158">
        <ele>1607.46</ele>
        <time>2011-03-10T10:38:15Z</time>
      </trkpt>
      <trkpt lat="42.64247" lon="0.85157">
        <ele>1607.94</ele>
        <time>2011-03-10T10:39:03Z</time>
      </trkpt>
      <trkpt lat="42.64245" lon="0.85156">
        <ele>1608.42</ele>
        <time>2011-03-10T10:39:07Z</time>
      </trkpt>
      <trkpt lat="42.64232" lon="0.8516">
        <ele>1610.35</ele>
        <time>2011-03-10T10:39:19Z</time>
      </trkpt>
      <trkpt lat="42.64227" lon="0.8516">
        <ele>1612.27</ele>
        <time>2011-03-10T10:39:28Z</time>
      </trkpt>
      <trkpt lat="42.6422" lon="0.85157">
        <ele>1614.19</ele>
        <time>2011-03-10T10:39:39Z</time>
      </trkpt>
      <trkpt lat="42.64218" lon="0.85156">
        <ele>1616.11</ele>
        <time>2011-03-10T10:39:49Z</time>
      </trkpt>
      <trkpt lat="42.64215" lon="0.85152">
        <ele>1617.56</ele>
        <time>2011-03-10T10:39:59Z</time>
      </trkpt>
      <trkpt lat="42.64213" lon="0.85152">
        <ele>1618.04</ele>
        <time>2011-03-10T10:40:03Z</time>
      </trkpt>
      <trkpt lat="42.64205" lon="0.85153">
        <ele>1618.52</ele>
        <time>2011-03-10T10:40:10Z</time>
      </trkpt>
      <trkpt lat="42.642" lon="0.85152">
        <ele>1621.4</ele>
        <time>2011-03-10T10:40:21Z</time>
      </trkpt>
      <trkpt lat="42.64196" lon="0.85155">
        <ele>1622.84</ele>
        <time>2011-03-10T10:40:32Z</time>
      </trkpt>
      <trkpt lat="42.64193" lon="0.85154">
        <ele>1624.28</ele>
        <time>2011-03-10T10:40:41Z</time>
      </trkpt>
      <trkpt lat="42.64187" lon="0.85153">
        <ele>1626.21</ele>
        <time>2011-03-10T10:40:54Z</time>
      </trkpt>
      <trkpt lat="42.64186" lon="0.85146">
        <ele>1628.13</ele>
        <time>2011-03-10T10:41:06Z</time>
      </trkpt>
      <trkpt lat="42.64181" lon="0.85144">
        <ele>1631.01</ele>
        <time>2011-03-10T10:41:19Z</time>
      </trkpt>
      <trkpt lat="42.64179" lon="0.85139">
        <ele>1631.98</ele>
        <time>2011-03-10T10:41:30Z</time>
      </trkpt>
      <trkpt lat="42.64178" lon="0.85137">
        <ele>1633.9</ele>
        <time>2011-03-10T10:41:49Z</time>
      </trkpt>
      <trkpt lat="42.64169" lon="0.85127">
        <ele>1637.26</ele>
        <time>2011-03-10T10:42:11Z</time>
      </trkpt>
      <trkpt lat="42.64166" lon="0.85125">
        <ele>1636.78</ele>
        <time>2011-03-10T10:42:16Z</time>
      </trkpt>
      <trkpt lat="42.64165" lon="0.85121">
        <ele>1638.22</ele>
        <time>2011-03-10T10:42:20Z</time>
      </trkpt>
      <trkpt lat="42.64161" lon="0.85115">
        <ele>1639.67</ele>
        <time>2011-03-10T10:42:29Z</time>
      </trkpt>
      <trkpt lat="42.64152" lon="0.85119">
        <ele>1641.11</ele>
        <time>2011-03-10T10:42:41Z</time>
      </trkpt>
      <trkpt lat="42.64146" lon="0.85121">
        <ele>1642.55</ele>
        <time>2011-03-10T10:42:48Z</time>
      </trkpt>
      <trkpt lat="42.64138" lon="0.85125">
        <ele>1643.99</ele>
        <time>2011-03-10T10:42:59Z</time>
      </trkpt>
      <trkpt lat="42.64132" lon="0.85129">
        <ele>1645.91</ele>
        <time>2011-03-10T10:43:10Z</time>
      </trkpt>
      <trkpt lat="42.64128" lon="0.85136">
        <ele>1648.8</ele>
        <time>2011-03-10T10:43:25Z</time>
      </trkpt>
      <trkpt lat="42.64125" lon="0.85139">
        <ele>1649.76</ele>
        <time>2011-03-10T10:43:37Z</time>
      </trkpt>
      <trkpt lat="42.64121" lon="0.85139">
        <ele>1652.64</ele>
        <time>2011-03-10T10:43:52Z</time>
      </trkpt>
      <trkpt lat="42.64113" lon="0.85153">
        <ele>1653.6</ele>
        <time>2011-03-10T10:44:05Z</time>
      </trkpt>
      <trkpt lat="42.64108" lon="0.85158">
        <ele>1655.05</ele>
        <time>2011-03-10T10:44:17Z</time>
      </trkpt>
      <trkpt lat="42.64105" lon="0.85158">
        <ele>1656.01</ele>
        <time>2011-03-10T10:44:21Z</time>
      </trkpt>
      <trkpt lat="42.64097" lon="0.85151">
        <ele>1656.97</ele>
        <time>2011-03-10T10:44:31Z</time>
      </trkpt>
      <trkpt lat="42.64091" lon="0.85146">
        <ele>1658.89</ele>
        <time>2011-03-10T10:44:42Z</time>
      </trkpt>
      <trkpt lat="42.64087" lon="0.8514">
        <ele>1660.81</ele>
        <time>2011-03-10T10:44:55Z</time>
      </trkpt>
      <trkpt lat="42.64084" lon="0.85131">
        <ele>1663.7</ele>
        <time>2011-03-10T10:45:09Z</time>
      </trkpt>
      <trkpt lat="42.64083" lon="0.85125">
        <ele>1665.14</ele>
        <time>2011-03-10T10:45:23Z</time>
      </trkpt>
      <trkpt lat="42.64081" lon="0.85123">
        <ele>1666.58</ele>
        <time>2011-03-10T10:45:37Z</time>
      </trkpt>
      <trkpt lat="42.64078" lon="0.85118">
        <ele>1668.99</ele>
        <time>2011-03-10T10:45:52Z</time>
      </trkpt>
      <trkpt lat="42.64076" lon="0.85106">
        <ele>1670.43</ele>
        <time>2011-03-10T10:46:03Z</time>
      </trkpt>
      <trkpt lat="42.64075" lon="0.85104">
        <ele>1671.39</ele>
        <time>2011-03-10T10:46:13Z</time>
      </trkpt>
      <trkpt lat="42.64073" lon="0.85096">
        <ele>1672.83</ele>
        <time>2011-03-10T10:46:26Z</time>
      </trkpt>
      <trkpt lat="42.64072" lon="0.85089">
        <ele>1675.23</ele>
        <time>2011-03-10T10:46:37Z</time>
      </trkpt>
      <trkpt lat="42.64068" lon="0.8508">
        <ele>1677.16</ele>
        <time>2011-03-10T10:46:48Z</time>
      </trkpt>
      <trkpt lat="42.64069" lon="0.85072">
        <ele>1678.6</ele>
        <time>2011-03-10T10:47:01Z</time>
      </trkpt>
      <trkpt lat="42.64072" lon="0.85057">
        <ele>1680.52</ele>
        <time>2011-03-10T10:47:23Z</time>
      </trkpt>
      <trkpt lat="42.64073" lon="0.85044">
        <ele>1682.44</ele>
        <time>2011-03-10T10:47:38Z</time>
      </trkpt>
      <trkpt lat="42.64076" lon="0.85028">
        <ele>1683.89</ele>
        <time>2011-03-10T10:47:51Z</time>
      </trkpt>
      <trkpt lat="42.64073" lon="0.8502">
        <ele>1686.29</ele>
        <time>2011-03-10T10:48:02Z</time>
      </trkpt>
      <trkpt lat="42.64072" lon="0.85019">
        <ele>1685.81</ele>
        <time>2011-03-10T10:48:09Z</time>
      </trkpt>
      <trkpt lat="42.64071" lon="0.85004">
        <ele>1688.21</ele>
        <time>2011-03-10T10:48:20Z</time>
      </trkpt>
      <trkpt lat="42.64067" lon="0.85004">
        <ele>1688.21</ele>
        <time>2011-03-10T10:48:32Z</time>
      </trkpt>
      <trkpt lat="42.64071" lon="0.85016">
        <ele>1690.14</ele>
        <time>2011-03-10T10:48:48Z</time>
      </trkpt>
      <trkpt lat="42.64066" lon="0.85031">
        <ele>1691.58</ele>
        <time>2011-03-10T10:49:01Z</time>
      </trkpt>
      <trkpt lat="42.64065" lon="0.85032">
        <ele>1691.58</ele>
        <time>2011-03-10T10:49:02Z</time>
      </trkpt>
      <trkpt lat="42.64056" lon="0.85038">
        <ele>1694.94</ele>
        <time>2011-03-10T10:49:16Z</time>
      </trkpt>
      <trkpt lat="42.64054" lon="0.85036">
        <ele>1697.34</ele>
        <time>2011-03-10T10:49:31Z</time>
      </trkpt>
      <trkpt lat="42.64052" lon="0.85041">
        <ele>1698.79</ele>
        <time>2011-03-10T10:49:41Z</time>
      </trkpt>
      <trkpt lat="42.64045" lon="0.85054">
        <ele>1701.19</ele>
        <time>2011-03-10T10:49:54Z</time>
      </trkpt>
      <trkpt lat="42.64044" lon="0.85056">
        <ele>1701.67</ele>
        <time>2011-03-10T10:50:08Z</time>
      </trkpt>
      <trkpt lat="42.64043" lon="0.85058">
        <ele>1702.63</ele>
        <time>2011-03-10T10:50:11Z</time>
      </trkpt>
      <trkpt lat="42.64042" lon="0.85062">
        <ele>1704.07</ele>
        <time>2011-03-10T10:50:23Z</time>
      </trkpt>
      <trkpt lat="42.64039" lon="0.85074">
        <ele>1706.96</ele>
        <time>2011-03-10T10:50:35Z</time>
      </trkpt>
      <trkpt lat="42.64037" lon="0.85081">
        <ele>1706.96</ele>
        <time>2011-03-10T10:50:41Z</time>
      </trkpt>
      <trkpt lat="42.64031" lon="0.85093">
        <ele>1709.36</ele>
        <time>2011-03-10T10:50:54Z</time>
      </trkpt>
      <trkpt lat="42.64028" lon="0.85082">
        <ele>1712.25</ele>
        <time>2011-03-10T10:51:09Z</time>
      </trkpt>
      <trkpt lat="42.64026" lon="0.85073">
        <ele>1713.21</ele>
        <time>2011-03-10T10:51:18Z</time>
      </trkpt>
      <trkpt lat="42.64022" lon="0.85061">
        <ele>1715.61</ele>
        <time>2011-03-10T10:51:31Z</time>
      </trkpt>
      <trkpt lat="42.64022" lon="0.85063">
        <ele>1717.05</ele>
        <time>2011-03-10T10:51:42Z</time>
      </trkpt>
      <trkpt lat="42.6402" lon="0.85071">
        <ele>1718.49</ele>
        <time>2011-03-10T10:51:56Z</time>
      </trkpt>
      <trkpt lat="42.6402" lon="0.85073">
        <ele>1719.46</ele>
        <time>2011-03-10T10:51:58Z</time>
      </trkpt>
      <trkpt lat="42.64019" lon="0.85074">
        <ele>1718.97</ele>
        <time>2011-03-10T10:51:59Z</time>
      </trkpt>
      <trkpt lat="42.64014" lon="0.85086">
        <ele>1720.42</ele>
        <time>2011-03-10T10:52:12Z</time>
      </trkpt>
      <trkpt lat="42.64013" lon="0.85093">
        <ele>1721.86</ele>
        <time>2011-03-10T10:52:21Z</time>
      </trkpt>
      <trkpt lat="42.6401" lon="0.85102">
        <ele>1724.26</ele>
        <time>2011-03-10T10:52:34Z</time>
      </trkpt>
      <trkpt lat="42.64009" lon="0.85099">
        <ele>1724.74</ele>
        <time>2011-03-10T10:52:41Z</time>
      </trkpt>
      <trkpt lat="42.64006" lon="0.85088">
        <ele>1726.18</ele>
        <time>2011-03-10T10:52:52Z</time>
      </trkpt>
      <trkpt lat="42.64006" lon="0.851">
        <ele>1727.63</ele>
        <time>2011-03-10T10:53:14Z</time>
      </trkpt>
      <trkpt lat="42.64004" lon="0.85113">
        <ele>1729.07</ele>
        <time>2011-03-10T10:53:27Z</time>
      </trkpt>
      <trkpt lat="42.64004" lon="0.85119">
        <ele>1729.07</ele>
        <time>2011-03-10T10:53:36Z</time>
      </trkpt>
      <trkpt lat="42.6401" lon="0.8513">
        <ele>1732.91</ele>
        <time>2011-03-10T10:53:51Z</time>
      </trkpt>
      <trkpt lat="42.64014" lon="0.85137">
        <ele>1733.39</ele>
        <time>2011-03-10T10:54:00Z</time>
      </trkpt>
      <trkpt lat="42.64008" lon="0.85143">
        <ele>1736.28</ele>
        <time>2011-03-10T10:54:13Z</time>
      </trkpt>
      <trkpt lat="42.64002" lon="0.8513">
        <ele>1739.16</ele>
        <time>2011-03-10T10:54:33Z</time>
      </trkpt>
      <trkpt lat="42.63998" lon="0.85128">
        <ele>1740.6</ele>
        <time>2011-03-10T10:54:40Z</time>
      </trkpt>
      <trkpt lat="42.63995" lon="0.85136">
        <ele>1743.01</ele>
        <time>2011-03-10T10:54:51Z</time>
      </trkpt>
      <trkpt lat="42.63995" lon="0.85137">
        <ele>1743.01</ele>
        <time>2011-03-10T10:54:52Z</time>
      </trkpt>
      <trkpt lat="42.63996" lon="0.85146">
        <ele>1744.45</ele>
        <time>2011-03-10T10:55:04Z</time>
      </trkpt>
      <trkpt lat="42.63999" lon="0.85155">
        <ele>1747.33</ele>
        <time>2011-03-10T10:55:17Z</time>
      </trkpt>
      <trkpt lat="42.63996" lon="0.85171">
        <ele>1749.26</ele>
        <time>2011-03-10T10:55:31Z</time>
      </trkpt>
      <trkpt lat="42.63995" lon="0.85175">
        <ele>1750.22</ele>
        <time>2011-03-10T10:55:34Z</time>
      </trkpt>
      <trkpt lat="42.63992" lon="0.8519">
        <ele>1750.7</ele>
        <time>2011-03-10T10:55:47Z</time>
      </trkpt>
      <trkpt lat="42.63988" lon="0.852">
        <ele>1753.1</ele>
        <time>2011-03-10T10:56:00Z</time>
      </trkpt>
      <trkpt lat="42.63983" lon="0.85197">
        <ele>1755.5</ele>
        <time>2011-03-10T10:56:14Z</time>
      </trkpt>
      <trkpt lat="42.63981" lon="0.85198">
        <ele>1756.95</ele>
        <time>2011-03-10T10:56:26Z</time>
      </trkpt>
      <trkpt lat="42.6398" lon="0.85208">
        <ele>1757.91</ele>
        <time>2011-03-10T10:56:36Z</time>
      </trkpt>
      <trkpt lat="42.63978" lon="0.85219">
        <ele>1760.31</ele>
        <time>2011-03-10T10:56:47Z</time>
      </trkpt>
      <trkpt lat="42.63975" lon="0.85213">
        <ele>1762.23</ele>
        <time>2011-03-10T10:56:59Z</time>
      </trkpt>
      <trkpt lat="42.63976" lon="0.85217">
        <ele>1763.68</ele>
        <time>2011-03-10T10:57:07Z</time>
      </trkpt>
      <trkpt lat="42.63978" lon="0.85222">
        <ele>1764.64</ele>
        <time>2011-03-10T10:57:12Z</time>
      </trkpt>
      <trkpt lat="42.63979" lon="0.85227">
        <ele>1765.12</ele>
        <time>2011-03-10T10:57:17Z</time>
      </trkpt>
      <trkpt lat="42.63983" lon="0.85231">
        <ele>1765.6</ele>
        <time>2011-03-10T10:57:23Z</time>
      </trkpt>
      <trkpt lat="42.63988" lon="0.85232">
        <ele>1768.96</ele>
        <time>2011-03-10T10:57:41Z</time>
      </trkpt>
      <trkpt lat="42.63975" lon="0.85225">
        <ele>1772.33</ele>
        <time>2011-03-10T10:58:02Z</time>
      </trkpt>
      <trkpt lat="42.63968" lon="0.85227">
        <ele>1774.73</ele>
        <time>2011-03-10T10:58:20Z</time>
      </trkpt>
      <trkpt lat="42.63968" lon="0.85229">
        <ele>1775.21</ele>
        <time>2011-03-10T10:58:43Z</time>
      </trkpt>
      <trkpt lat="42.63968" lon="0.8524">
        <ele>1777.61</ele>
        <time>2011-03-10T10:58:57Z</time>
      </trkpt>
      <trkpt lat="42.63963" lon="0.8524">
        <ele>1780.5</ele>
        <time>2011-03-10T10:59:10Z</time>
      </trkpt>
      <trkpt lat="42.63966" lon="0.85249">
        <ele>1781.94</ele>
        <time>2011-03-10T10:59:20Z</time>
      </trkpt>
      <trkpt lat="42.63969" lon="0.85257">
        <ele>1783.38</ele>
        <time>2011-03-10T10:59:33Z</time>
      </trkpt>
      <trkpt lat="42.63973" lon="0.85266">
        <ele>1785.31</ele>
        <time>2011-03-10T10:59:44Z</time>
      </trkpt>
      <trkpt lat="42.63973" lon="0.85279">
        <ele>1787.71</ele>
        <time>2011-03-10T10:59:56Z</time>
      </trkpt>
      <trkpt lat="42.63971" lon="0.85291">
        <ele>1789.15</ele>
        <time>2011-03-10T11:00:06Z</time>
      </trkpt>
      <trkpt lat="42.63973" lon="0.85298">
        <ele>1790.11</ele>
        <time>2011-03-10T11:00:16Z</time>
      </trkpt>
      <trkpt lat="42.63972" lon="0.85311">
        <ele>1793</ele>
        <time>2011-03-10T11:00:27Z</time>
      </trkpt>
      <trkpt lat="42.63966" lon="0.85311">
        <ele>1795.4</ele>
        <time>2011-03-10T11:00:42Z</time>
      </trkpt>
      <trkpt lat="42.63965" lon="0.85314">
        <ele>1795.88</ele>
        <time>2011-03-10T11:00:49Z</time>
      </trkpt>
      <trkpt lat="42.63962" lon="0.85313">
        <ele>1798.76</ele>
        <time>2011-03-10T11:01:00Z</time>
      </trkpt>
      <trkpt lat="42.63959" lon="0.85308">
        <ele>1800.21</ele>
        <time>2011-03-10T11:01:11Z</time>
      </trkpt>
      <trkpt lat="42.63955" lon="0.853">
        <ele>1803.09</ele>
        <time>2011-03-10T11:01:25Z</time>
      </trkpt>
      <trkpt lat="42.63953" lon="0.85295">
        <ele>1804.05</ele>
        <time>2011-03-10T11:01:32Z</time>
      </trkpt>
      <trkpt lat="42.63943" lon="0.85282">
        <ele>1805.01</ele>
        <time>2011-03-10T11:01:46Z</time>
      </trkpt>
      <trkpt lat="42.63935" lon="0.85276">
        <ele>1806.45</ele>
        <time>2011-03-10T11:01:56Z</time>
      </trkpt>
      <trkpt lat="42.63931" lon="0.85267">
        <ele>1808.86</ele>
        <time>2011-03-10T11:02:09Z</time>
      </trkpt>
      <trkpt lat="42.63928" lon="0.85258">
        <ele>1811.26</ele>
        <time>2011-03-10T11:02:25Z</time>
      </trkpt>
      <trkpt lat="42.63923" lon="0.85243">
        <ele>1814.15</ele>
        <time>2011-03-10T11:02:41Z</time>
      </trkpt>
      <trkpt lat="42.63918" lon="0.85239">
        <ele>1816.55</ele>
        <time>2011-03-10T11:02:55Z</time>
      </trkpt>
      <trkpt lat="42.63916" lon="0.85236">
        <ele>1817.99</ele>
        <time>2011-03-10T11:03:06Z</time>
      </trkpt>
      <trkpt lat="42.63915" lon="0.85239">
        <ele>1818.95</ele>
        <time>2011-03-10T11:03:20Z</time>
      </trkpt>
      <trkpt lat="42.63913" lon="0.85239">
        <ele>1819.43</ele>
        <time>2011-03-10T11:03:34Z</time>
      </trkpt>
      <trkpt lat="42.63913" lon="0.85249">
        <ele>1820.39</ele>
        <time>2011-03-10T11:04:05Z</time>
      </trkpt>
      <trkpt lat="42.63912" lon="0.8526">
        <ele>1821.84</ele>
        <time>2011-03-10T11:04:15Z</time>
      </trkpt>
      <trkpt lat="42.63907" lon="0.85268">
        <ele>1823.76</ele>
        <time>2011-03-10T11:04:28Z</time>
      </trkpt>
      <trkpt lat="42.63906" lon="0.85264">
        <ele>1826.64</ele>
        <time>2011-03-10T11:04:40Z</time>
      </trkpt>
      <trkpt lat="42.63904" lon="0.85257">
        <ele>1828.08</ele>
        <time>2011-03-10T11:04:51Z</time>
      </trkpt>
      <trkpt lat="42.63903" lon="0.85261">
        <ele>1830.49</ele>
        <time>2011-03-10T11:05:02Z</time>
      </trkpt>
      <trkpt lat="42.63902" lon="0.85264">
        <ele>1831.93</ele>
        <time>2011-03-10T11:05:12Z</time>
      </trkpt>
      <trkpt lat="42.63903" lon="0.85275">
        <ele>1833.37</ele>
        <time>2011-03-10T11:05:26Z</time>
      </trkpt>
      <trkpt lat="42.63902" lon="0.85277">
        <ele>1835.29</ele>
        <time>2011-03-10T11:05:37Z</time>
      </trkpt>
      <trkpt lat="42.63898" lon="0.8527">
        <ele>1837.22</ele>
        <time>2011-03-10T11:05:49Z</time>
      </trkpt>
      <trkpt lat="42.63897" lon="0.85268">
        <ele>1837.22</ele>
        <time>2011-03-10T11:05:53Z</time>
      </trkpt>
      <trkpt lat="42.63892" lon="0.85266">
        <ele>1840.1</ele>
        <time>2011-03-10T11:06:08Z</time>
      </trkpt>
      <trkpt lat="42.63892" lon="0.85274">
        <ele>1842.5</ele>
        <time>2011-03-10T11:06:21Z</time>
      </trkpt>
      <trkpt lat="42.63894" lon="0.8528">
        <ele>1842.98</ele>
        <time>2011-03-10T11:06:26Z</time>
      </trkpt>
      <trkpt lat="42.63894" lon="0.8529">
        <ele>1845.39</ele>
        <time>2011-03-10T11:06:39Z</time>
      </trkpt>
      <trkpt lat="42.63891" lon="0.85287">
        <ele>1846.35</ele>
        <time>2011-03-10T11:06:48Z</time>
      </trkpt>
      <trkpt lat="42.63889" lon="0.85283">
        <ele>1846.35</ele>
        <time>2011-03-10T11:06:52Z</time>
      </trkpt>
      <trkpt lat="42.63881" lon="0.85275">
        <ele>1848.27</ele>
        <time>2011-03-10T11:07:06Z</time>
      </trkpt>
      <trkpt lat="42.63877" lon="0.85271">
        <ele>1850.19</ele>
        <time>2011-03-10T11:07:17Z</time>
      </trkpt>
      <trkpt lat="42.63875" lon="0.8527">
        <ele>1852.6</ele>
        <time>2011-03-10T11:07:28Z</time>
      </trkpt>
      <trkpt lat="42.63875" lon="0.85278">
        <ele>1854.04</ele>
        <time>2011-03-10T11:07:41Z</time>
      </trkpt>
      <trkpt lat="42.63876" lon="0.85279">
        <ele>1854.04</ele>
        <time>2011-03-10T11:07:42Z</time>
      </trkpt>
      <trkpt lat="42.63878" lon="0.85294">
        <ele>1856.92</ele>
        <time>2011-03-10T11:07:59Z</time>
      </trkpt>
      <trkpt lat="42.63881" lon="0.85306">
        <ele>1858.37</ele>
        <time>2011-03-10T11:08:10Z</time>
      </trkpt>
      <trkpt lat="42.63882" lon="0.85314">
        <ele>1860.77</ele>
        <time>2011-03-10T11:08:19Z</time>
      </trkpt>
      <trkpt lat="42.63884" lon="0.85324">
        <ele>1861.73</ele>
        <time>2011-03-10T11:08:31Z</time>
      </trkpt>
      <trkpt lat="42.63885" lon="0.85333">
        <ele>1863.65</ele>
        <time>2011-03-10T11:08:44Z</time>
      </trkpt>
      <trkpt lat="42.63887" lon="0.85339">
        <ele>1864.61</ele>
        <time>2011-03-10T11:08:54Z</time>
      </trkpt>
      <trkpt lat="42.63886" lon="0.85338">
        <ele>1866.06</ele>
        <time>2011-03-10T11:09:04Z</time>
      </trkpt>
      <trkpt lat="42.6388" lon="0.85332">
        <ele>1867.5</ele>
        <time>2011-03-10T11:09:16Z</time>
      </trkpt>
      <trkpt lat="42.63878" lon="0.85332">
        <ele>1868.46</ele>
        <time>2011-03-10T11:09:22Z</time>
      </trkpt>
      <trkpt lat="42.63878" lon="0.85338">
        <ele>1870.38</ele>
        <time>2011-03-10T11:09:36Z</time>
      </trkpt>
      <trkpt lat="42.63878" lon="0.85339">
        <ele>1870.86</ele>
        <time>2011-03-10T11:09:38Z</time>
      </trkpt>
      <trkpt lat="42.63881" lon="0.85351">
        <ele>1872.3</ele>
        <time>2011-03-10T11:09:49Z</time>
      </trkpt>
      <trkpt lat="42.6388" lon="0.85351">
        <ele>1872.79</ele>
        <time>2011-03-10T11:09:56Z</time>
      </trkpt>
      <trkpt lat="42.63878" lon="0.85351">
        <ele>1873.27</ele>
        <time>2011-03-10T11:09:59Z</time>
      </trkpt>
      <trkpt lat="42.63874" lon="0.85348">
        <ele>1874.71</ele>
        <time>2011-03-10T11:10:11Z</time>
      </trkpt>
      <trkpt lat="42.63873" lon="0.85348">
        <ele>1876.15</ele>
        <time>2011-03-10T11:10:23Z</time>
      </trkpt>
      <trkpt lat="42.63869" lon="0.85359">
        <ele>1878.07</ele>
        <time>2011-03-10T11:10:37Z</time>
      </trkpt>
      <trkpt lat="42.63868" lon="0.85368">
        <ele>1880.48</ele>
        <time>2011-03-10T11:10:46Z</time>
      </trkpt>
      <trkpt lat="42.63871" lon="0.85378">
        <ele>1882.4</ele>
        <time>2011-03-10T11:11:00Z</time>
      </trkpt>
      <trkpt lat="42.63871" lon="0.85382">
        <ele>1882.88</ele>
        <time>2011-03-10T11:11:03Z</time>
      </trkpt>
      <trkpt lat="42.63867" lon="0.85385">
        <ele>1884.32</ele>
        <time>2011-03-10T11:11:08Z</time>
      </trkpt>
      <trkpt lat="42.63862" lon="0.85382">
        <ele>1884.8</ele>
        <time>2011-03-10T11:11:18Z</time>
      </trkpt>
      <trkpt lat="42.63856" lon="0.8537">
        <ele>1887.21</ele>
        <time>2011-03-10T11:11:31Z</time>
      </trkpt>
      <trkpt lat="42.63855" lon="0.85364">
        <ele>1888.65</ele>
        <time>2011-03-10T11:11:39Z</time>
      </trkpt>
      <trkpt lat="42.63852" lon="0.85357">
        <ele>1890.09</ele>
        <time>2011-03-10T11:11:50Z</time>
      </trkpt>
      <trkpt lat="42.63846" lon="0.85351">
        <ele>1892.01</ele>
        <time>2011-03-10T11:12:02Z</time>
      </trkpt>
      <trkpt lat="42.63842" lon="0.85358">
        <ele>1894.9</ele>
        <time>2011-03-10T11:12:15Z</time>
      </trkpt>
      <trkpt lat="42.63836" lon="0.85358">
        <ele>1897.78</ele>
        <time>2011-03-10T11:12:28Z</time>
      </trkpt>
      <trkpt lat="42.63833" lon="0.85363">
        <ele>1898.74</ele>
        <time>2011-03-10T11:12:39Z</time>
      </trkpt>
      <trkpt lat="42.63829" lon="0.85366">
        <ele>1900.66</ele>
        <time>2011-03-10T11:12:48Z</time>
      </trkpt>
      <trkpt lat="42.63822" lon="0.85368">
        <ele>1902.59</ele>
        <time>2011-03-10T11:13:00Z</time>
      </trkpt>
      <trkpt lat="42.6381" lon="0.85374">
        <ele>1904.03</ele>
        <time>2011-03-10T11:13:14Z</time>
      </trkpt>
      <trkpt lat="42.63803" lon="0.85378">
        <ele>1906.43</ele>
        <time>2011-03-10T11:13:24Z</time>
      </trkpt>
      <trkpt lat="42.63799" lon="0.8538">
        <ele>1908.35</ele>
        <time>2011-03-10T11:13:35Z</time>
      </trkpt>
      <trkpt lat="42.63793" lon="0.85385">
        <ele>1910.76</ele>
        <time>2011-03-10T11:13:49Z</time>
      </trkpt>
      <trkpt lat="42.63787" lon="0.8539">
        <ele>1911.24</ele>
        <time>2011-03-10T11:14:04Z</time>
      </trkpt>
      <trkpt lat="42.63787" lon="0.8539">
        <ele>1911.24</ele>
        <time>2011-03-10T11:14:09Z</time>
      </trkpt>
      <trkpt lat="42.63782" lon="0.85393">
        <ele>1912.2</ele>
        <time>2011-03-10T11:14:15Z</time>
      </trkpt>
      <trkpt lat="42.63773" lon="0.85396">
        <ele>1915.56</ele>
        <time>2011-03-10T11:14:27Z</time>
      </trkpt>
      <trkpt lat="42.63766" lon="0.85396">
        <ele>1916.53</ele>
        <time>2011-03-10T11:14:41Z</time>
      </trkpt>
      <trkpt lat="42.63758" lon="0.85397">
        <ele>1917.97</ele>
        <time>2011-03-10T11:15:16Z</time>
      </trkpt>
      <trkpt lat="42.63749" lon="0.85395">
        <ele>1921.81</ele>
        <time>2011-03-10T11:15:30Z</time>
      </trkpt>
      <trkpt lat="42.63741" lon="0.85397">
        <ele>1923.25</ele>
        <time>2011-03-10T11:15:41Z</time>
      </trkpt>
      <trkpt lat="42.6373" lon="0.854">
        <ele>1925.18</ele>
        <time>2011-03-10T11:15:54Z</time>
      </trkpt>
      <trkpt lat="42.6372" lon="0.85403">
        <ele>1924.7</ele>
        <time>2011-03-10T11:16:02Z</time>
      </trkpt>
      <trkpt lat="42.63718" lon="0.85403">
        <ele>1925.18</ele>
        <time>2011-03-10T11:16:04Z</time>
      </trkpt>
      <trkpt lat="42.63712" lon="0.85402">
        <ele>1925.66</ele>
        <time>2011-03-10T11:16:11Z</time>
      </trkpt>
      <trkpt lat="42.63702" lon="0.85399">
        <ele>1927.58</ele>
        <time>2011-03-10T11:16:25Z</time>
      </trkpt>
      <trkpt lat="42.63697" lon="0.85396">
        <ele>1927.1</ele>
        <time>2011-03-10T11:16:32Z</time>
      </trkpt>
      <trkpt lat="42.63691" lon="0.85394">
        <ele>1929.02</ele>
        <time>2011-03-10T11:16:38Z</time>
      </trkpt>
      <trkpt lat="42.63686" lon="0.85392">
        <ele>1929.5</ele>
        <time>2011-03-10T11:16:46Z</time>
      </trkpt>
      <trkpt lat="42.63678" lon="0.85388">
        <ele>1930.46</ele>
        <time>2011-03-10T11:16:55Z</time>
      </trkpt>
      <trkpt lat="42.6367" lon="0.85384">
        <ele>1931.91</ele>
        <time>2011-03-10T11:17:05Z</time>
      </trkpt>
      <trkpt lat="42.63663" lon="0.85385">
        <ele>1933.35</ele>
        <time>2011-03-10T11:17:16Z</time>
      </trkpt>
      <trkpt lat="42.63655" lon="0.85387">
        <ele>1935.27</ele>
        <time>2011-03-10T11:17:29Z</time>
      </trkpt>
      <trkpt lat="42.63651" lon="0.85388">
        <ele>1937.19</ele>
        <time>2011-03-10T11:17:40Z</time>
      </trkpt>
      <trkpt lat="42.63654" lon="0.85382">
        <ele>1938.64</ele>
        <time>2011-03-10T11:17:51Z</time>
      </trkpt>
      <trkpt lat="42.63654" lon="0.8538">
        <ele>1938.64</ele>
        <time>2011-03-10T11:17:52Z</time>
      </trkpt>
      <trkpt lat="42.63656" lon="0.85373">
        <ele>1940.08</ele>
        <time>2011-03-10T11:18:07Z</time>
      </trkpt>
      <trkpt lat="42.63655" lon="0.85373">
        <ele>1940.56</ele>
        <time>2011-03-10T11:18:08Z</time>
      </trkpt>
      <trkpt lat="42.63647" lon="0.85377">
        <ele>1942.96</ele>
        <time>2011-03-10T11:18:20Z</time>
      </trkpt>
      <trkpt lat="42.63642" lon="0.85381">
        <ele>1944.4</ele>
        <time>2011-03-10T11:18:32Z</time>
      </trkpt>
      <trkpt lat="42.63636" lon="0.85384">
        <ele>1946.33</ele>
        <time>2011-03-10T11:18:43Z</time>
      </trkpt>
      <trkpt lat="42.63633" lon="0.85384">
        <ele>1946.81</ele>
        <time>2011-03-10T11:18:47Z</time>
      </trkpt>
      <trkpt lat="42.63625" lon="0.85376">
        <ele>1948.73</ele>
        <time>2011-03-10T11:19:01Z</time>
      </trkpt>
      <trkpt lat="42.63622" lon="0.85374">
        <ele>1951.61</ele>
        <time>2011-03-10T11:19:13Z</time>
      </trkpt>
      <trkpt lat="42.63615" lon="0.85367">
        <ele>1952.57</ele>
        <time>2011-03-10T11:19:24Z</time>
      </trkpt>
      <trkpt lat="42.6361" lon="0.85361">
        <ele>1954.02</ele>
        <time>2011-03-10T11:19:32Z</time>
      </trkpt>
      <trkpt lat="42.63612" lon="0.85354">
        <ele>1956.42</ele>
        <time>2011-03-10T11:19:44Z</time>
      </trkpt>
      <trkpt lat="42.63613" lon="0.85353">
        <ele>1958.34</ele>
        <time>2011-03-10T11:19:59Z</time>
      </trkpt>
      <trkpt lat="42.63609" lon="0.85351">
        <ele>1959.78</ele>
        <time>2011-03-10T11:20:36Z</time>
      </trkpt>
      <trkpt lat="42.63606" lon="0.8535">
        <ele>1959.3</ele>
        <time>2011-03-10T11:20:39Z</time>
      </trkpt>
      <trkpt lat="42.63598" lon="0.85342">
        <ele>1962.19</ele>
        <time>2011-03-10T11:20:52Z</time>
      </trkpt>
      <trkpt lat="42.63595" lon="0.85343">
        <ele>1964.59</ele>
        <time>2011-03-10T11:21:04Z</time>
      </trkpt>
      <trkpt lat="42.63584" lon="0.85337">
        <ele>1966.51</ele>
        <time>2011-03-10T11:21:20Z</time>
      </trkpt>
      <trkpt lat="42.63586" lon="0.85332">
        <ele>1968.44</ele>
        <time>2011-03-10T11:21:25Z</time>
      </trkpt>
      <trkpt lat="42.63588" lon="0.85314">
        <ele>1969.4</ele>
        <time>2011-03-10T11:21:38Z</time>
      </trkpt>
      <trkpt lat="42.63592" lon="0.85304">
        <ele>1969.88</ele>
        <time>2011-03-10T11:21:48Z</time>
      </trkpt>
      <trkpt lat="42.63594" lon="0.85303">
        <ele>1969.88</ele>
        <time>2011-03-10T11:21:51Z</time>
      </trkpt>
      <trkpt lat="42.63598" lon="0.85299">
        <ele>1970.84</ele>
        <time>2011-03-10T11:21:58Z</time>
      </trkpt>
      <trkpt lat="42.63603" lon="0.85296">
        <ele>1972.28</ele>
        <time>2011-03-10T11:22:04Z</time>
      </trkpt>
      <trkpt lat="42.63613" lon="0.85288">
        <ele>1974.2</ele>
        <time>2011-03-10T11:22:18Z</time>
      </trkpt>
      <trkpt lat="42.63614" lon="0.85287">
        <ele>1974.2</ele>
        <time>2011-03-10T11:22:20Z</time>
      </trkpt>
      <trkpt lat="42.63622" lon="0.85277">
        <ele>1976.13</ele>
        <time>2011-03-10T11:22:34Z</time>
      </trkpt>
      <trkpt lat="42.63622" lon="0.85274">
        <ele>1977.09</ele>
        <time>2011-03-10T11:22:38Z</time>
      </trkpt>
      <trkpt lat="42.63615" lon="0.85265">
        <ele>1977.57</ele>
        <time>2011-03-10T11:22:52Z</time>
      </trkpt>
      <trkpt lat="42.63609" lon="0.85265">
        <ele>1978.53</ele>
        <time>2011-03-10T11:23:00Z</time>
      </trkpt>
      <trkpt lat="42.63601" lon="0.85262">
        <ele>1979.97</ele>
        <time>2011-03-10T11:23:12Z</time>
      </trkpt>
      <trkpt lat="42.63591" lon="0.85258">
        <ele>1983.34</ele>
        <time>2011-03-10T11:23:25Z</time>
      </trkpt>
      <trkpt lat="42.63588" lon="0.85255">
        <ele>1984.3</ele>
        <time>2011-03-10T11:23:31Z</time>
      </trkpt>
      <trkpt lat="42.63589" lon="0.85246">
        <ele>1986.7</ele>
        <time>2011-03-10T11:23:44Z</time>
      </trkpt>
      <trkpt lat="42.63589" lon="0.85245">
        <ele>1986.7</ele>
        <time>2011-03-10T11:23:45Z</time>
      </trkpt>
      <trkpt lat="42.6359" lon="0.85238">
        <ele>1988.14</ele>
        <time>2011-03-10T11:23:50Z</time>
      </trkpt>
      <trkpt lat="42.63586" lon="0.85234">
        <ele>1989.1</ele>
        <time>2011-03-10T11:24:03Z</time>
      </trkpt>
      <trkpt lat="42.63584" lon="0.85236">
        <ele>1988.62</ele>
        <time>2011-03-10T11:24:23Z</time>
      </trkpt>
      <trkpt lat="42.63583" lon="0.85237">
        <ele>1989.1</ele>
        <time>2011-03-10T11:24:31Z</time>
      </trkpt>
      <trkpt lat="42.63577" lon="0.85248">
        <ele>1988.62</ele>
        <time>2011-03-10T11:24:42Z</time>
      </trkpt>
      <trkpt lat="42.63567" lon="0.85265">
        <ele>1989.1</ele>
        <time>2011-03-10T11:24:56Z</time>
      </trkpt>
      <trkpt lat="42.63558" lon="0.8528">
        <ele>1989.1</ele>
        <time>2011-03-10T11:25:08Z</time>
      </trkpt>
      <trkpt lat="42.63548" lon="0.85296">
        <ele>1990.07</ele>
        <time>2011-03-10T11:25:20Z</time>
      </trkpt>
      <trkpt lat="42.63542" lon="0.85306">
        <ele>1989.1</ele>
        <time>2011-03-10T11:25:28Z</time>
      </trkpt>
      <trkpt lat="42.63531" lon="0.85325">
        <ele>1989.59</ele>
        <time>2011-03-10T11:25:42Z</time>
      </trkpt>
      <trkpt lat="42.63521" lon="0.85341">
        <ele>1989.59</ele>
        <time>2011-03-10T11:25:55Z</time>
      </trkpt>
      <trkpt lat="42.63513" lon="0.85352">
        <ele>1989.59</ele>
        <time>2011-03-10T11:26:07Z</time>
      </trkpt>
      <trkpt lat="42.63513" lon="0.85354">
        <ele>1989.1</ele>
        <time>2011-03-10T11:26:18Z</time>
      </trkpt>
      <trkpt lat="42.63507" lon="0.85364">
        <ele>1990.07</ele>
        <time>2011-03-10T11:26:31Z</time>
      </trkpt>
      <trkpt lat="42.63506" lon="0.85366">
        <ele>1990.07</ele>
        <time>2011-03-10T11:26:32Z</time>
      </trkpt>
      <trkpt lat="42.63502" lon="0.85372">
        <ele>1990.07</ele>
        <time>2011-03-10T11:26:38Z</time>
      </trkpt>
      <trkpt lat="42.63499" lon="0.85376">
        <ele>1988.62</ele>
        <time>2011-03-10T11:26:52Z</time>
      </trkpt>
      <trkpt lat="42.63495" lon="0.85385">
        <ele>1990.07</ele>
        <time>2011-03-10T11:27:03Z</time>
      </trkpt>
      <trkpt lat="42.63495" lon="0.85387">
        <ele>1989.1</ele>
        <time>2011-03-10T11:27:09Z</time>
      </trkpt>
      <trkpt lat="42.63494" lon="0.85386">
        <ele>1989.59</ele>
        <time>2011-03-10T11:27:23Z</time>
      </trkpt>
      <trkpt lat="42.63494" lon="0.85387">
        <ele>1990.07</ele>
        <time>2011-03-10T11:27:24Z</time>
      </trkpt>
      <trkpt lat="42.63492" lon="0.85408">
        <ele>1989.59</ele>
        <time>2011-03-10T11:27:36Z</time>
      </trkpt>
      <trkpt lat="42.63491" lon="0.85412">
        <ele>1990.55</ele>
        <time>2011-03-10T11:27:39Z</time>
      </trkpt>
      <trkpt lat="42.63483" lon="0.85425">
        <ele>1991.99</ele>
        <time>2011-03-10T11:27:51Z</time>
      </trkpt>
      <trkpt lat="42.63477" lon="0.85438">
        <ele>1991.03</ele>
        <time>2011-03-10T11:28:02Z</time>
      </trkpt>
      <trkpt lat="42.63474" lon="0.85444">
        <ele>1991.99</ele>
        <time>2011-03-10T11:28:08Z</time>
      </trkpt>
      <trkpt lat="42.63471" lon="0.85456">
        <ele>1993.43</ele>
        <time>2011-03-10T11:28:16Z</time>
      </trkpt>
      <trkpt lat="42.63469" lon="0.85459">
        <ele>1993.43</ele>
        <time>2011-03-10T11:28:19Z</time>
      </trkpt>
      <trkpt lat="42.63467" lon="0.85463">
        <ele>1993.43</ele>
        <time>2011-03-10T11:28:34Z</time>
      </trkpt>
      <trkpt lat="42.63467" lon="0.85463">
        <ele>1992.95</ele>
        <time>2011-03-10T11:28:46Z</time>
      </trkpt>
      <trkpt lat="42.63467" lon="0.85462">
        <ele>1992.95</ele>
        <time>2011-03-10T11:29:08Z</time>
      </trkpt>
      <trkpt lat="42.63467" lon="0.85463">
        <ele>1991.99</ele>
        <time>2011-03-10T11:29:33Z</time>
      </trkpt>
      <trkpt lat="42.63467" lon="0.85462">
        <ele>1993.91</ele>
        <time>2011-03-10T11:29:39Z</time>
      </trkpt>
      <trkpt lat="42.63467" lon="0.85462">
        <ele>1993.91</ele>
        <time>2011-03-10T11:29:43Z</time>
      </trkpt>
      <trkpt lat="42.63466" lon="0.85462">
        <ele>1993.91</ele>
        <time>2011-03-10T11:29:45Z</time>
      </trkpt>
      <trkpt lat="42.63463" lon="0.85469">
        <ele>1993.43</ele>
        <time>2011-03-10T11:29:50Z</time>
      </trkpt>
      <trkpt lat="42.63466" lon="0.85474">
        <ele>1993.91</ele>
        <time>2011-03-10T11:30:01Z</time>
      </trkpt>
      <trkpt lat="42.63466" lon="0.85475">
        <ele>1994.87</ele>
        <time>2011-03-10T11:30:57Z</time>
      </trkpt>
      <trkpt lat="42.63467" lon="0.85474">
        <ele>1996.32</ele>
        <time>2011-03-10T11:31:25Z</time>
      </trkpt>
      <trkpt lat="42.63473" lon="0.85468">
        <ele>1992.47</ele>
        <time>2011-03-10T11:31:52Z</time>
      </trkpt>
      <trkpt lat="42.63473" lon="0.85468">
        <ele>1994.87</ele>
        <time>2011-03-10T11:32:04Z</time>
      </trkpt>
      <trkpt lat="42.63466" lon="0.85475">
        <ele>1994.39</ele>
        <time>2011-03-10T11:32:05Z</time>
      </trkpt>
      <trkpt lat="42.63465" lon="0.85475">
        <ele>1991.51</ele>
        <time>2011-03-10T11:32:06Z</time>
      </trkpt>
      <trkpt lat="42.63464" lon="0.85475">
        <ele>1990.55</ele>
        <time>2011-03-10T11:32:09Z</time>
      </trkpt>
      <trkpt lat="42.63463" lon="0.85475">
        <ele>1996.32</ele>
        <time>2011-03-10T11:32:10Z</time>
      </trkpt>
      <trkpt lat="42.63462" lon="0.85475">
        <ele>1993.91</ele>
        <time>2011-03-10T11:32:12Z</time>
      </trkpt>
      <trkpt lat="42.6346" lon="0.85475">
        <ele>1994.87</ele>
        <time>2011-03-10T11:32:17Z</time>
      </trkpt>
      <trkpt lat="42.6345" lon="0.85474">
        <ele>1992.47</ele>
        <time>2011-03-10T11:32:36Z</time>
      </trkpt>
      <trkpt lat="42.6345" lon="0.85474">
        <ele>1994.39</ele>
        <time>2011-03-10T11:53:53Z</time>
      </trkpt>
      <trkpt lat="42.6345" lon="0.85474">
        <ele>1992.95</ele>
        <time>2011-03-10T11:55:52Z</time>
      </trkpt>
      <trkpt lat="42.6345" lon="0.85474">
        <ele>1993.43</ele>
        <time>2011-03-10T11:55:56Z</time>
      </trkpt>
      <trkpt lat="42.6345" lon="0.85474">
        <ele>1993.43</ele>
        <time>2011-03-10T11:55:58Z</time>
      </trkpt>
      <trkpt lat="42.6345" lon="0.85474">
        <ele>1994.87</ele>
        <time>2011-03-10T11:56:01Z</time>
      </trkpt>
      <trkpt lat="42.6345" lon="0.85474">
        <ele>1991.99</ele>
        <time>2011-03-10T11:56:03Z</time>
      </trkpt>
      <trkpt lat="42.6345" lon="0.85474">
        <ele>1994.87</ele>
        <time>2011-03-10T11:56:42Z</time>
      </trkpt>
      <trkpt lat="42.6345" lon="0.85474">
        <ele>1991.51</ele>
        <time>2011-03-10T11:56:45Z</time>
      </trkpt>
      <trkpt lat="42.6345" lon="0.85474">
        <ele>1993.91</ele>
        <time>2011-03-10T11:56:46Z</time>
      </trkpt>
      <trkpt lat="42.6345" lon="0.85474">
        <ele>1992.95</ele>
        <time>2011-03-10T11:56:52Z</time>
      </trkpt>
      <trkpt lat="42.6345" lon="0.85474">
        <ele>1994.39</ele>
        <time>2011-03-10T11:58:10Z</time>
      </trkpt>
      <trkpt lat="42.63464" lon="0.85462">
        <ele>1993.91</ele>
        <time>2011-03-10T11:58:19Z</time>
      </trkpt>
      <trkpt lat="42.63465" lon="0.85461">
        <ele>1993.91</ele>
        <time>2011-03-10T11:58:20Z</time>
      </trkpt>
      <trkpt lat="42.63468" lon="0.85457">
        <ele>1993.91</ele>
        <time>2011-03-10T11:58:40Z</time>
      </trkpt>
      <trkpt lat="42.63472" lon="0.85454">
        <ele>1994.39</ele>
        <time>2011-03-10T11:58:57Z</time>
      </trkpt>
      <trkpt lat="42.63476" lon="0.8545">
        <ele>1994.39</ele>
        <time>2011-03-10T11:59:02Z</time>
      </trkpt>
      <trkpt lat="42.63478" lon="0.85447">
        <ele>1994.39</ele>
        <time>2011-03-10T11:59:05Z</time>
      </trkpt>
      <trkpt lat="42.6348" lon="0.85437">
        <ele>1992.95</ele>
        <time>2011-03-10T11:59:14Z</time>
      </trkpt>
      <trkpt lat="42.63481" lon="0.85433">
        <ele>1991.99</ele>
        <time>2011-03-10T11:59:18Z</time>
      </trkpt>
      <trkpt lat="42.63482" lon="0.85431">
        <ele>1991.51</ele>
        <time>2011-03-10T11:59:20Z</time>
      </trkpt>
      <trkpt lat="42.63484" lon="0.85428">
        <ele>1991.99</ele>
        <time>2011-03-10T11:59:23Z</time>
      </trkpt>
      <trkpt lat="42.6349" lon="0.85417">
        <ele>1992.47</ele>
        <time>2011-03-10T11:59:32Z</time>
      </trkpt>
      <trkpt lat="42.63491" lon="0.85414">
        <ele>1992.47</ele>
        <time>2011-03-10T11:59:34Z</time>
      </trkpt>
      <trkpt lat="42.63495" lon="0.85396">
        <ele>1991.51</ele>
        <time>2011-03-10T11:59:47Z</time>
      </trkpt>
      <trkpt lat="42.63497" lon="0.85382">
        <ele>1991.51</ele>
        <time>2011-03-10T11:59:56Z</time>
      </trkpt>
      <trkpt lat="42.63502" lon="0.85372">
        <ele>1991.51</ele>
        <time>2011-03-10T12:00:02Z</time>
      </trkpt>
      <trkpt lat="42.63514" lon="0.85352">
        <ele>1991.99</ele>
        <time>2011-03-10T12:00:18Z</time>
      </trkpt>
      <trkpt lat="42.63518" lon="0.85349">
        <ele>1991.99</ele>
        <time>2011-03-10T12:00:30Z</time>
      </trkpt>
      <trkpt lat="42.63518" lon="0.8535">
        <ele>1991.51</ele>
        <time>2011-03-10T12:00:40Z</time>
      </trkpt>
      <trkpt lat="42.63518" lon="0.8535">
        <ele>1992.47</ele>
        <time>2011-03-10T12:00:54Z</time>
      </trkpt>
      <trkpt lat="42.63518" lon="0.8535">
        <ele>1991.99</ele>
        <time>2011-03-10T12:01:12Z</time>
      </trkpt>
      <trkpt lat="42.63521" lon="0.85345">
        <ele>1992.47</ele>
        <time>2011-03-10T12:01:28Z</time>
      </trkpt>
      <trkpt lat="42.63523" lon="0.85343">
        <ele>1992.47</ele>
        <time>2011-03-10T12:01:50Z</time>
      </trkpt>
      <trkpt lat="42.63527" lon="0.85332">
        <ele>1992.47</ele>
        <time>2011-03-10T12:01:59Z</time>
      </trkpt>
      <trkpt lat="42.63528" lon="0.85331">
        <ele>1992.95</ele>
        <time>2011-03-10T12:02:00Z</time>
      </trkpt>
      <trkpt lat="42.63534" lon="0.8532">
        <ele>1992.95</ele>
        <time>2011-03-10T12:02:08Z</time>
      </trkpt>
      <trkpt lat="42.63543" lon="0.85302">
        <ele>1992.95</ele>
        <time>2011-03-10T12:02:19Z</time>
      </trkpt>
      <trkpt lat="42.6355" lon="0.85292">
        <ele>1992.47</ele>
        <time>2011-03-10T12:02:26Z</time>
      </trkpt>
      <trkpt lat="42.63552" lon="0.85289">
        <ele>1992.95</ele>
        <time>2011-03-10T12:02:28Z</time>
      </trkpt>
      <trkpt lat="42.63558" lon="0.85279">
        <ele>1992.95</ele>
        <time>2011-03-10T12:02:35Z</time>
      </trkpt>
      <trkpt lat="42.63565" lon="0.85268">
        <ele>1992.47</ele>
        <time>2011-03-10T12:02:42Z</time>
      </trkpt>
      <trkpt lat="42.63575" lon="0.8525">
        <ele>1992.47</ele>
        <time>2011-03-10T12:02:53Z</time>
      </trkpt>
      <trkpt lat="42.63579" lon="0.85243">
        <ele>1992.95</ele>
        <time>2011-03-10T12:02:58Z</time>
      </trkpt>
      <trkpt lat="42.63587" lon="0.85231">
        <ele>1992.95</ele>
        <time>2011-03-10T12:03:07Z</time>
      </trkpt>
      <trkpt lat="42.63591" lon="0.85228">
        <ele>1993.43</ele>
        <time>2011-03-10T12:03:11Z</time>
      </trkpt>
      <trkpt lat="42.63595" lon="0.8523">
        <ele>1994.39</ele>
        <time>2011-03-10T12:03:16Z</time>
      </trkpt>
      <trkpt lat="42.63597" lon="0.85225">
        <ele>1995.83</ele>
        <time>2011-03-10T12:03:22Z</time>
      </trkpt>
      <trkpt lat="42.63591" lon="0.85214">
        <ele>1998.24</ele>
        <time>2011-03-10T12:03:33Z</time>
      </trkpt>
      <trkpt lat="42.63593" lon="0.85205">
        <ele>1999.2</ele>
        <time>2011-03-10T12:03:40Z</time>
      </trkpt>
      <trkpt lat="42.63593" lon="0.85198">
        <ele>2000.64</ele>
        <time>2011-03-10T12:03:47Z</time>
      </trkpt>
      <trkpt lat="42.63597" lon="0.85193">
        <ele>2001.6</ele>
        <time>2011-03-10T12:03:52Z</time>
      </trkpt>
      <trkpt lat="42.63604" lon="0.85187">
        <ele>2002.08</ele>
        <time>2011-03-10T12:04:03Z</time>
      </trkpt>
      <trkpt lat="42.63609" lon="0.85179">
        <ele>2002.56</ele>
        <time>2011-03-10T12:04:10Z</time>
      </trkpt>
      <trkpt lat="42.6361" lon="0.85176">
        <ele>2003.04</ele>
        <time>2011-03-10T12:04:25Z</time>
      </trkpt>
      <trkpt lat="42.6361" lon="0.85176">
        <ele>2003.04</ele>
        <time>2011-03-10T12:04:37Z</time>
      </trkpt>
      <trkpt lat="42.63613" lon="0.85172">
        <ele>2002.56</ele>
        <time>2011-03-10T12:04:41Z</time>
      </trkpt>
      <trkpt lat="42.63616" lon="0.85166">
        <ele>2001.6</ele>
        <time>2011-03-10T12:04:44Z</time>
      </trkpt>
      <trkpt lat="42.63617" lon="0.85163">
        <ele>2001.12</ele>
        <time>2011-03-10T12:04:53Z</time>
      </trkpt>
      <trkpt lat="42.63618" lon="0.85164">
        <ele>2000.64</ele>
        <time>2011-03-10T12:05:11Z</time>
      </trkpt>
      <trkpt lat="42.63619" lon="0.85165">
        <ele>2002.08</ele>
        <time>2011-03-10T12:06:03Z</time>
      </trkpt>
      <trkpt lat="42.63618" lon="0.85166">
        <ele>2001.6</ele>
        <time>2011-03-10T12:06:31Z</time>
      </trkpt>
      <trkpt lat="42.63617" lon="0.85165">
        <ele>2001.6</ele>
        <time>2011-03-10T12:06:40Z</time>
      </trkpt>
      <trkpt lat="42.63616" lon="0.85164">
        <ele>2002.56</ele>
        <time>2011-03-10T12:06:59Z</time>
      </trkpt>
      <trkpt lat="42.63616" lon="0.85165">
        <ele>2002.56</ele>
        <time>2011-03-10T12:07:18Z</time>
      </trkpt>
      <trkpt lat="42.63617" lon="0.85163">
        <ele>2002.56</ele>
        <time>2011-03-10T12:07:50Z</time>
      </trkpt>
      <trkpt lat="42.63617" lon="0.85163">
        <ele>2003.04</ele>
        <time>2011-03-10T12:07:53Z</time>
      </trkpt>
      <trkpt lat="42.63616" lon="0.85158">
        <ele>2005.93</ele>
        <time>2011-03-10T12:08:05Z</time>
      </trkpt>
      <trkpt lat="42.63615" lon="0.85152">
        <ele>2006.41</ele>
        <time>2011-03-10T12:08:10Z</time>
      </trkpt>
      <trkpt lat="42.63616" lon="0.85142">
        <ele>2008.81</ele>
        <time>2011-03-10T12:08:26Z</time>
      </trkpt>
      <trkpt lat="42.63619" lon="0.85136">
        <ele>2010.73</ele>
        <time>2011-03-10T12:08:41Z</time>
      </trkpt>
      <trkpt lat="42.63623" lon="0.85137">
        <ele>2012.66</ele>
        <time>2011-03-10T12:08:56Z</time>
      </trkpt>
      <trkpt lat="42.63623" lon="0.85137">
        <ele>2012.66</ele>
        <time>2011-03-10T12:09:00Z</time>
      </trkpt>
      <trkpt lat="42.63625" lon="0.85138">
        <ele>2013.14</ele>
        <time>2011-03-10T12:09:02Z</time>
      </trkpt>
      <trkpt lat="42.63628" lon="0.85139">
        <ele>2014.1</ele>
        <time>2011-03-10T12:09:09Z</time>
      </trkpt>
      <trkpt lat="42.63631" lon="0.85137">
        <ele>2015.54</ele>
        <time>2011-03-10T12:09:20Z</time>
      </trkpt>
      <trkpt lat="42.63631" lon="0.85129">
        <ele>2017.46</ele>
        <time>2011-03-10T12:09:28Z</time>
      </trkpt>
      <trkpt lat="42.6363" lon="0.85122">
        <ele>2019.39</ele>
        <time>2011-03-10T12:09:40Z</time>
      </trkpt>
      <trkpt lat="42.6363" lon="0.85121">
        <ele>2019.87</ele>
        <time>2011-03-10T12:09:42Z</time>
      </trkpt>
      <trkpt lat="42.63637" lon="0.85119">
        <ele>2020.83</ele>
        <time>2011-03-10T12:09:53Z</time>
      </trkpt>
      <trkpt lat="42.6364" lon="0.85114">
        <ele>2022.75</ele>
        <time>2011-03-10T12:10:02Z</time>
      </trkpt>
      <trkpt lat="42.63643" lon="0.85103">
        <ele>2025.15</ele>
        <time>2011-03-10T12:10:14Z</time>
      </trkpt>
      <trkpt lat="42.63648" lon="0.85092">
        <ele>2027.56</ele>
        <time>2011-03-10T12:10:27Z</time>
      </trkpt>
      <trkpt lat="42.63648" lon="0.85091">
        <ele>2028.52</ele>
        <time>2011-03-10T12:11:12Z</time>
      </trkpt>
      <trkpt lat="42.63648" lon="0.8509">
        <ele>2028.52</ele>
        <time>2011-03-10T12:11:14Z</time>
      </trkpt>
      <trkpt lat="42.63647" lon="0.85074">
        <ele>2029.48</ele>
        <time>2011-03-10T12:11:24Z</time>
      </trkpt>
      <trkpt lat="42.63653" lon="0.85059">
        <ele>2029.48</ele>
        <time>2011-03-10T12:11:35Z</time>
      </trkpt>
      <trkpt lat="42.63655" lon="0.8505">
        <ele>2031.4</ele>
        <time>2011-03-10T12:11:47Z</time>
      </trkpt>
      <trkpt lat="42.63654" lon="0.85049">
        <ele>2032.36</ele>
        <time>2011-03-10T12:11:49Z</time>
      </trkpt>
      <trkpt lat="42.63653" lon="0.85049">
        <ele>2032.84</ele>
        <time>2011-03-10T12:11:55Z</time>
      </trkpt>
      <trkpt lat="42.6365" lon="0.85052">
        <ele>2033.81</ele>
        <time>2011-03-10T12:12:05Z</time>
      </trkpt>
      <trkpt lat="42.63651" lon="0.85053">
        <ele>2035.25</ele>
        <time>2011-03-10T12:12:11Z</time>
      </trkpt>
      <trkpt lat="42.6365" lon="0.8506">
        <ele>2036.69</ele>
        <time>2011-03-10T12:12:23Z</time>
      </trkpt>
      <trkpt lat="42.6365" lon="0.8506">
        <ele>2036.69</ele>
        <time>2011-03-10T12:12:25Z</time>
      </trkpt>
      <trkpt lat="42.63646" lon="0.8506">
        <ele>2037.65</ele>
        <time>2011-03-10T12:12:29Z</time>
      </trkpt>
      <trkpt lat="42.63644" lon="0.85064">
        <ele>2038.61</ele>
        <time>2011-03-10T12:12:39Z</time>
      </trkpt>
      <trkpt lat="42.63636" lon="0.85071">
        <ele>2041.02</ele>
        <time>2011-03-10T12:12:52Z</time>
      </trkpt>
      <trkpt lat="42.63633" lon="0.85079">
        <ele>2042.94</ele>
        <time>2011-03-10T12:13:01Z</time>
      </trkpt>
      <trkpt lat="42.63628" lon="0.85082">
        <ele>2043.9</ele>
        <time>2011-03-10T12:13:08Z</time>
      </trkpt>
      <trkpt lat="42.63625" lon="0.85081">
        <ele>2044.38</ele>
        <time>2011-03-10T12:13:11Z</time>
      </trkpt>
      <trkpt lat="42.63619" lon="0.85085">
        <ele>2045.82</ele>
        <time>2011-03-10T12:13:22Z</time>
      </trkpt>
      <trkpt lat="42.63614" lon="0.85087">
        <ele>2046.3</ele>
        <time>2011-03-10T12:13:30Z</time>
      </trkpt>
      <trkpt lat="42.63613" lon="0.85084">
        <ele>2046.78</ele>
        <time>2011-03-10T12:13:43Z</time>
      </trkpt>
      <trkpt lat="42.63613" lon="0.85084">
        <ele>2047.75</ele>
        <time>2011-03-10T12:14:33Z</time>
      </trkpt>
      <trkpt lat="42.63615" lon="0.85074">
        <ele>2049.67</ele>
        <time>2011-03-10T12:14:43Z</time>
      </trkpt>
      <trkpt lat="42.63616" lon="0.85072">
        <ele>2051.11</ele>
        <time>2011-03-10T12:14:53Z</time>
      </trkpt>
      <trkpt lat="42.6361" lon="0.85075">
        <ele>2052.07</ele>
        <time>2011-03-10T12:15:00Z</time>
      </trkpt>
      <trkpt lat="42.63602" lon="0.85075">
        <ele>2053.99</ele>
        <time>2011-03-10T12:15:12Z</time>
      </trkpt>
      <trkpt lat="42.63603" lon="0.85071">
        <ele>2055.44</ele>
        <time>2011-03-10T12:15:25Z</time>
      </trkpt>
      <trkpt lat="42.63603" lon="0.8507">
        <ele>2055.44</ele>
        <time>2011-03-10T12:15:26Z</time>
      </trkpt>
      <trkpt lat="42.63605" lon="0.85065">
        <ele>2056.4</ele>
        <time>2011-03-10T12:15:30Z</time>
      </trkpt>
      <trkpt lat="42.63607" lon="0.8506">
        <ele>2057.84</ele>
        <time>2011-03-10T12:15:37Z</time>
      </trkpt>
      <trkpt lat="42.6361" lon="0.85054">
        <ele>2058.8</ele>
        <time>2011-03-10T12:15:42Z</time>
      </trkpt>
      <trkpt lat="42.63612" lon="0.85046">
        <ele>2059.76</ele>
        <time>2011-03-10T12:15:50Z</time>
      </trkpt>
      <trkpt lat="42.63612" lon="0.85042">
        <ele>2060.72</ele>
        <time>2011-03-10T12:15:59Z</time>
      </trkpt>
      <trkpt lat="42.63608" lon="0.85035">
        <ele>2063.13</ele>
        <time>2011-03-10T12:16:09Z</time>
      </trkpt>
      <trkpt lat="42.63601" lon="0.85024">
        <ele>2065.53</ele>
        <time>2011-03-10T12:16:23Z</time>
      </trkpt>
      <trkpt lat="42.63597" lon="0.85019">
        <ele>2067.93</ele>
        <time>2011-03-10T12:16:36Z</time>
      </trkpt>
      <trkpt lat="42.63595" lon="0.85018">
        <ele>2067.93</ele>
        <time>2011-03-10T12:16:48Z</time>
      </trkpt>
      <trkpt lat="42.6359" lon="0.85024">
        <ele>2070.34</ele>
        <time>2011-03-10T12:17:07Z</time>
      </trkpt>
      <trkpt lat="42.63582" lon="0.85035">
        <ele>2072.26</ele>
        <time>2011-03-10T12:17:21Z</time>
      </trkpt>
      <trkpt lat="42.63576" lon="0.8504">
        <ele>2075.14</ele>
        <time>2011-03-10T12:17:34Z</time>
      </trkpt>
      <trkpt lat="42.63576" lon="0.85033">
        <ele>2075.14</ele>
        <time>2011-03-10T12:17:44Z</time>
      </trkpt>
      <trkpt lat="42.63577" lon="0.85019">
        <ele>2077.07</ele>
        <time>2011-03-10T12:17:57Z</time>
      </trkpt>
      <trkpt lat="42.63577" lon="0.85018">
        <ele>2077.55</ele>
        <time>2011-03-10T12:18:33Z</time>
      </trkpt>
      <trkpt lat="42.63577" lon="0.85006">
        <ele>2079.47</ele>
        <time>2011-03-10T12:18:44Z</time>
      </trkpt>
      <trkpt lat="42.63577" lon="0.85001">
        <ele>2080.43</ele>
        <time>2011-03-10T12:18:48Z</time>
      </trkpt>
      <trkpt lat="42.63577" lon="0.84995">
        <ele>2081.39</ele>
        <time>2011-03-10T12:18:54Z</time>
      </trkpt>
      <trkpt lat="42.6357" lon="0.8499">
        <ele>2082.35</ele>
        <time>2011-03-10T12:19:04Z</time>
      </trkpt>
      <trkpt lat="42.63561" lon="0.84984">
        <ele>2085.24</ele>
        <time>2011-03-10T12:19:18Z</time>
      </trkpt>
      <trkpt lat="42.63555" lon="0.84978">
        <ele>2088.12</ele>
        <time>2011-03-10T12:19:29Z</time>
      </trkpt>
      <trkpt lat="42.6355" lon="0.84977">
        <ele>2089.56</ele>
        <time>2011-03-10T12:19:38Z</time>
      </trkpt>
      <trkpt lat="42.63536" lon="0.84979">
        <ele>2090.04</ele>
        <time>2011-03-10T12:19:53Z</time>
      </trkpt>
      <trkpt lat="42.63531" lon="0.84977">
        <ele>2092.45</ele>
        <time>2011-03-10T12:20:03Z</time>
      </trkpt>
      <trkpt lat="42.63531" lon="0.84968">
        <ele>2094.37</ele>
        <time>2011-03-10T12:20:13Z</time>
      </trkpt>
      <trkpt lat="42.63531" lon="0.84965">
        <ele>2094.85</ele>
        <time>2011-03-10T12:20:25Z</time>
      </trkpt>
      <trkpt lat="42.63531" lon="0.84965">
        <ele>2095.33</ele>
        <time>2011-03-10T12:20:53Z</time>
      </trkpt>
      <trkpt lat="42.63527" lon="0.84963">
        <ele>2096.77</ele>
        <time>2011-03-10T12:21:01Z</time>
      </trkpt>
      <trkpt lat="42.63517" lon="0.84968">
        <ele>2098.21</ele>
        <time>2011-03-10T12:21:12Z</time>
      </trkpt>
      <trkpt lat="42.63512" lon="0.84968">
        <ele>2098.7</ele>
        <time>2011-03-10T12:21:18Z</time>
      </trkpt>
      <trkpt lat="42.63507" lon="0.84967">
        <ele>2099.18</ele>
        <time>2011-03-10T12:21:23Z</time>
      </trkpt>
      <trkpt lat="42.63503" lon="0.84965">
        <ele>2100.14</ele>
        <time>2011-03-10T12:21:27Z</time>
      </trkpt>
      <trkpt lat="42.63498" lon="0.8496">
        <ele>2099.66</ele>
        <time>2011-03-10T12:21:41Z</time>
      </trkpt>
      <trkpt lat="42.63498" lon="0.84958">
        <ele>2100.14</ele>
        <time>2011-03-10T12:22:03Z</time>
      </trkpt>
      <trkpt lat="42.63484" lon="0.84937">
        <ele>2097.73</ele>
        <time>2011-03-10T12:22:23Z</time>
      </trkpt>
      <trkpt lat="42.63474" lon="0.84922">
        <ele>2094.37</ele>
        <time>2011-03-10T12:22:28Z</time>
      </trkpt>
      <trkpt lat="42.63471" lon="0.84917">
        <ele>2093.89</ele>
        <time>2011-03-10T12:22:33Z</time>
      </trkpt>
      <trkpt lat="42.63469" lon="0.84914">
        <ele>2094.37</ele>
        <time>2011-03-10T12:22:46Z</time>
      </trkpt>
      <trkpt lat="42.63462" lon="0.84908">
        <ele>2095.81</ele>
        <time>2011-03-10T12:23:12Z</time>
      </trkpt>
      <trkpt lat="42.63455" lon="0.84903">
        <ele>2096.77</ele>
        <time>2011-03-10T12:23:19Z</time>
      </trkpt>
      <trkpt lat="42.63449" lon="0.84903">
        <ele>2097.73</ele>
        <time>2011-03-10T12:23:30Z</time>
      </trkpt>
      <trkpt lat="42.63444" lon="0.84904">
        <ele>2099.66</ele>
        <time>2011-03-10T12:23:38Z</time>
      </trkpt>
      <trkpt lat="42.63435" lon="0.849">
        <ele>2100.62</ele>
        <time>2011-03-10T12:23:46Z</time>
      </trkpt>
      <trkpt lat="42.63425" lon="0.84887">
        <ele>2100.62</ele>
        <time>2011-03-10T12:23:59Z</time>
      </trkpt>
      <trkpt lat="42.63417" lon="0.84875">
        <ele>2102.54</ele>
        <time>2011-03-10T12:24:13Z</time>
      </trkpt>
      <trkpt lat="42.63416" lon="0.84872">
        <ele>2104.46</ele>
        <time>2011-03-10T12:24:18Z</time>
      </trkpt>
      <trkpt lat="42.63414" lon="0.84865">
        <ele>2105.42</ele>
        <time>2011-03-10T12:24:26Z</time>
      </trkpt>
      <trkpt lat="42.63411" lon="0.84857">
        <ele>2106.87</ele>
        <time>2011-03-10T12:24:36Z</time>
      </trkpt>
      <trkpt lat="42.63409" lon="0.84865">
        <ele>2108.31</ele>
        <time>2011-03-10T12:24:47Z</time>
      </trkpt>
      <trkpt lat="42.63408" lon="0.84871">
        <ele>2109.27</ele>
        <time>2011-03-10T12:24:55Z</time>
      </trkpt>
      <trkpt lat="42.63404" lon="0.84877">
        <ele>2111.19</ele>
        <time>2011-03-10T12:25:05Z</time>
      </trkpt>
      <trkpt lat="42.63397" lon="0.84886">
        <ele>2113.12</ele>
        <time>2011-03-10T12:25:18Z</time>
      </trkpt>
      <trkpt lat="42.63395" lon="0.84889">
        <ele>2114.08</ele>
        <time>2011-03-10T12:25:22Z</time>
      </trkpt>
      <trkpt lat="42.63391" lon="0.8489">
        <ele>2114.56</ele>
        <time>2011-03-10T12:25:36Z</time>
      </trkpt>
      <trkpt lat="42.63389" lon="0.84891">
        <ele>2116</ele>
        <time>2011-03-10T12:25:41Z</time>
      </trkpt>
      <trkpt lat="42.63387" lon="0.84891">
        <ele>2117.92</ele>
        <time>2011-03-10T12:25:56Z</time>
      </trkpt>
      <trkpt lat="42.63387" lon="0.84884">
        <ele>2120.32</ele>
        <time>2011-03-10T12:26:08Z</time>
      </trkpt>
      <trkpt lat="42.63385" lon="0.84881">
        <ele>2121.77</ele>
        <time>2011-03-10T12:26:17Z</time>
      </trkpt>
      <trkpt lat="42.63382" lon="0.84871">
        <ele>2123.21</ele>
        <time>2011-03-10T12:26:29Z</time>
      </trkpt>
      <trkpt lat="42.63381" lon="0.84872">
        <ele>2123.69</ele>
        <time>2011-03-10T12:27:05Z</time>
      </trkpt>
      <trkpt lat="42.63381" lon="0.8487">
        <ele>2123.69</ele>
        <time>2011-03-10T12:27:56Z</time>
      </trkpt>
      <trkpt lat="42.63381" lon="0.84863">
        <ele>2124.65</ele>
        <time>2011-03-10T12:28:37Z</time>
      </trkpt>
      <trkpt lat="42.6338" lon="0.84857">
        <ele>2126.57</ele>
        <time>2011-03-10T12:28:51Z</time>
      </trkpt>
      <trkpt lat="42.63379" lon="0.84847">
        <ele>2129.94</ele>
        <time>2011-03-10T12:29:03Z</time>
      </trkpt>
      <trkpt lat="42.63379" lon="0.84847">
        <ele>2129.94</ele>
        <time>2011-03-10T12:29:04Z</time>
      </trkpt>
      <trkpt lat="42.63377" lon="0.84842">
        <ele>2131.38</ele>
        <time>2011-03-10T12:29:17Z</time>
      </trkpt>
      <trkpt lat="42.63377" lon="0.8484">
        <ele>2131.86</ele>
        <time>2011-03-10T12:29:19Z</time>
      </trkpt>
      <trkpt lat="42.63376" lon="0.8483">
        <ele>2134.74</ele>
        <time>2011-03-10T12:29:31Z</time>
      </trkpt>
      <trkpt lat="42.6337" lon="0.84823">
        <ele>2136.19</ele>
        <time>2011-03-10T12:29:42Z</time>
      </trkpt>
      <trkpt lat="42.63365" lon="0.84815">
        <ele>2137.63</ele>
        <time>2011-03-10T12:29:55Z</time>
      </trkpt>
      <trkpt lat="42.63363" lon="0.84813">
        <ele>2139.07</ele>
        <time>2011-03-10T12:30:08Z</time>
      </trkpt>
      <trkpt lat="42.6336" lon="0.8481">
        <ele>2141.95</ele>
        <time>2011-03-10T12:30:22Z</time>
      </trkpt>
      <trkpt lat="42.63357" lon="0.84807">
        <ele>2142.92</ele>
        <time>2011-03-10T12:30:31Z</time>
      </trkpt>
      <trkpt lat="42.63354" lon="0.84818">
        <ele>2145.8</ele>
        <time>2011-03-10T12:30:45Z</time>
      </trkpt>
      <trkpt lat="42.63353" lon="0.84821">
        <ele>2146.28</ele>
        <time>2011-03-10T12:30:48Z</time>
      </trkpt>
      <trkpt lat="42.63347" lon="0.84834">
        <ele>2149.16</ele>
        <time>2011-03-10T12:31:03Z</time>
      </trkpt>
      <trkpt lat="42.63346" lon="0.84835">
        <ele>2149.16</ele>
        <time>2011-03-10T12:31:04Z</time>
      </trkpt>
      <trkpt lat="42.63343" lon="0.84837">
        <ele>2149.65</ele>
        <time>2011-03-10T12:31:17Z</time>
      </trkpt>
      <trkpt lat="42.63342" lon="0.84838">
        <ele>2150.61</ele>
        <time>2011-03-10T12:31:24Z</time>
      </trkpt>
      <trkpt lat="42.63338" lon="0.84838">
        <ele>2153.01</ele>
        <time>2011-03-10T12:31:39Z</time>
      </trkpt>
      <trkpt lat="42.63336" lon="0.84835">
        <ele>2153.97</ele>
        <time>2011-03-10T12:32:14Z</time>
      </trkpt>
      <trkpt lat="42.63334" lon="0.84828">
        <ele>2155.41</ele>
        <time>2011-03-10T12:32:34Z</time>
      </trkpt>
      <trkpt lat="42.63325" lon="0.84819">
        <ele>2156.86</ele>
        <time>2011-03-10T12:32:46Z</time>
      </trkpt>
      <trkpt lat="42.63322" lon="0.84812">
        <ele>2158.3</ele>
        <time>2011-03-10T12:32:59Z</time>
      </trkpt>
      <trkpt lat="42.6332" lon="0.84807">
        <ele>2160.22</ele>
        <time>2011-03-10T12:33:09Z</time>
      </trkpt>
      <trkpt lat="42.6332" lon="0.84806">
        <ele>2161.66</ele>
        <time>2011-03-10T12:33:19Z</time>
      </trkpt>
      <trkpt lat="42.63321" lon="0.84794">
        <ele>2161.66</ele>
        <time>2011-03-10T12:33:27Z</time>
      </trkpt>
      <trkpt lat="42.63317" lon="0.84783">
        <ele>2163.58</ele>
        <time>2011-03-10T12:33:39Z</time>
      </trkpt>
      <trkpt lat="42.63314" lon="0.84784">
        <ele>2165.51</ele>
        <time>2011-03-10T12:33:49Z</time>
      </trkpt>
      <trkpt lat="42.63312" lon="0.84789">
        <ele>2165.99</ele>
        <time>2011-03-10T12:33:55Z</time>
      </trkpt>
      <trkpt lat="42.63305" lon="0.84798">
        <ele>2167.91</ele>
        <time>2011-03-10T12:34:08Z</time>
      </trkpt>
      <trkpt lat="42.63297" lon="0.84806">
        <ele>2170.31</ele>
        <time>2011-03-10T12:34:25Z</time>
      </trkpt>
      <trkpt lat="42.63296" lon="0.84805">
        <ele>2171.27</ele>
        <time>2011-03-10T12:34:37Z</time>
      </trkpt>
      <trkpt lat="42.63296" lon="0.84798">
        <ele>2173.68</ele>
        <time>2011-03-10T12:34:49Z</time>
      </trkpt>
      <trkpt lat="42.63294" lon="0.84788">
        <ele>2174.64</ele>
        <time>2011-03-10T12:35:00Z</time>
      </trkpt>
      <trkpt lat="42.63293" lon="0.84781">
        <ele>2177.04</ele>
        <time>2011-03-10T12:35:16Z</time>
      </trkpt>
      <trkpt lat="42.63292" lon="0.84778">
        <ele>2178.48</ele>
        <time>2011-03-10T12:35:19Z</time>
      </trkpt>
      <trkpt lat="42.6329" lon="0.84771">
        <ele>2180.41</ele>
        <time>2011-03-10T12:35:30Z</time>
      </trkpt>
      <trkpt lat="42.63289" lon="0.84771">
        <ele>2180.41</ele>
        <time>2011-03-10T12:35:39Z</time>
      </trkpt>
      <trkpt lat="42.63284" lon="0.84773">
        <ele>2181.85</ele>
        <time>2011-03-10T12:35:51Z</time>
      </trkpt>
      <trkpt lat="42.63276" lon="0.84779">
        <ele>2184.25</ele>
        <time>2011-03-10T12:36:03Z</time>
      </trkpt>
      <trkpt lat="42.63267" lon="0.84784">
        <ele>2185.69</ele>
        <time>2011-03-10T12:36:17Z</time>
      </trkpt>
      <trkpt lat="42.63261" lon="0.84787">
        <ele>2188.58</ele>
        <time>2011-03-10T12:36:30Z</time>
      </trkpt>
      <trkpt lat="42.63259" lon="0.84779">
        <ele>2190.02</ele>
        <time>2011-03-10T12:36:42Z</time>
      </trkpt>
      <trkpt lat="42.63257" lon="0.84768">
        <ele>2191.94</ele>
        <time>2011-03-10T12:36:57Z</time>
      </trkpt>
      <trkpt lat="42.63256" lon="0.84759">
        <ele>2194.83</ele>
        <time>2011-03-10T12:37:07Z</time>
      </trkpt>
      <trkpt lat="42.63253" lon="0.84746">
        <ele>2196.27</ele>
        <time>2011-03-10T12:37:22Z</time>
      </trkpt>
      <trkpt lat="42.63252" lon="0.84742">
        <ele>2197.23</ele>
        <time>2011-03-10T12:37:26Z</time>
      </trkpt>
      <trkpt lat="42.63245" lon="0.84742">
        <ele>2198.67</ele>
        <time>2011-03-10T12:37:39Z</time>
      </trkpt>
      <trkpt lat="42.63241" lon="0.84747">
        <ele>2200.11</ele>
        <time>2011-03-10T12:37:55Z</time>
      </trkpt>
      <trkpt lat="42.63241" lon="0.84748">
        <ele>2201.08</ele>
        <time>2011-03-10T12:38:17Z</time>
      </trkpt>
      <trkpt lat="42.63239" lon="0.8475">
        <ele>2200.59</ele>
        <time>2011-03-10T12:38:43Z</time>
      </trkpt>
      <trkpt lat="42.63233" lon="0.84748">
        <ele>2202.52</ele>
        <time>2011-03-10T12:38:55Z</time>
      </trkpt>
      <trkpt lat="42.63232" lon="0.84745">
        <ele>2203</ele>
        <time>2011-03-10T12:38:59Z</time>
      </trkpt>
      <trkpt lat="42.63226" lon="0.84743">
        <ele>2205.4</ele>
        <time>2011-03-10T12:39:13Z</time>
      </trkpt>
      <trkpt lat="42.63224" lon="0.84744">
        <ele>2205.88</ele>
        <time>2011-03-10T12:40:03Z</time>
      </trkpt>
      <trkpt lat="42.63219" lon="0.84747">
        <ele>2207.32</ele>
        <time>2011-03-10T12:40:10Z</time>
      </trkpt>
      <trkpt lat="42.63218" lon="0.84747">
        <ele>2207.32</ele>
        <time>2011-03-10T12:40:11Z</time>
      </trkpt>
      <trkpt lat="42.6321" lon="0.84739">
        <ele>2209.73</ele>
        <time>2011-03-10T12:40:25Z</time>
      </trkpt>
      <trkpt lat="42.63209" lon="0.8473">
        <ele>2213.09</ele>
        <time>2011-03-10T12:40:36Z</time>
      </trkpt>
      <trkpt lat="42.63206" lon="0.84726">
        <ele>2215.01</ele>
        <time>2011-03-10T12:40:47Z</time>
      </trkpt>
      <trkpt lat="42.632" lon="0.84717">
        <ele>2216.46</ele>
        <time>2011-03-10T12:40:58Z</time>
      </trkpt>
      <trkpt lat="42.63195" lon="0.8471">
        <ele>2218.38</ele>
        <time>2011-03-10T12:41:10Z</time>
      </trkpt>
      <trkpt lat="42.6319" lon="0.84701">
        <ele>2220.3</ele>
        <time>2011-03-10T12:41:22Z</time>
      </trkpt>
      <trkpt lat="42.63188" lon="0.84694">
        <ele>2222.71</ele>
        <time>2011-03-10T12:41:34Z</time>
      </trkpt>
      <trkpt lat="42.63188" lon="0.84692">
        <ele>2223.67</ele>
        <time>2011-03-10T12:41:59Z</time>
      </trkpt>
      <trkpt lat="42.63184" lon="0.84683">
        <ele>2225.11</ele>
        <time>2011-03-10T12:42:12Z</time>
      </trkpt>
      <trkpt lat="42.6318" lon="0.84679">
        <ele>2226.55</ele>
        <time>2011-03-10T12:42:19Z</time>
      </trkpt>
      <trkpt lat="42.63174" lon="0.84672">
        <ele>2228.95</ele>
        <time>2011-03-10T12:42:35Z</time>
      </trkpt>
      <trkpt lat="42.6317" lon="0.84665">
        <ele>2231.84</ele>
        <time>2011-03-10T12:42:50Z</time>
      </trkpt>
      <trkpt lat="42.63166" lon="0.84656">
        <ele>2234.24</ele>
        <time>2011-03-10T12:43:03Z</time>
      </trkpt>
      <trkpt lat="42.63163" lon="0.8465">
        <ele>2236.64</ele>
        <time>2011-03-10T12:43:16Z</time>
      </trkpt>
      <trkpt lat="42.63162" lon="0.84649">
        <ele>2236.64</ele>
        <time>2011-03-10T12:43:17Z</time>
      </trkpt>
      <trkpt lat="42.63159" lon="0.84642">
        <ele>2239.05</ele>
        <time>2011-03-10T12:43:31Z</time>
      </trkpt>
      <trkpt lat="42.63158" lon="0.84641">
        <ele>2240.01</ele>
        <time>2011-03-10T12:43:33Z</time>
      </trkpt>
      <trkpt lat="42.63152" lon="0.8464">
        <ele>2240.97</ele>
        <time>2011-03-10T12:43:44Z</time>
      </trkpt>
      <trkpt lat="42.63149" lon="0.84641">
        <ele>2242.41</ele>
        <time>2011-03-10T12:43:50Z</time>
      </trkpt>
      <trkpt lat="42.63145" lon="0.84644">
        <ele>2242.41</ele>
        <time>2011-03-10T12:43:55Z</time>
      </trkpt>
      <trkpt lat="42.63142" lon="0.84646">
        <ele>2243.85</ele>
        <time>2011-03-10T12:44:10Z</time>
      </trkpt>
      <trkpt lat="42.63138" lon="0.84653">
        <ele>2245.3</ele>
        <time>2011-03-10T12:44:23Z</time>
      </trkpt>
      <trkpt lat="42.63133" lon="0.84662">
        <ele>2246.26</ele>
        <time>2011-03-10T12:44:35Z</time>
      </trkpt>
      <trkpt lat="42.63128" lon="0.84668">
        <ele>2248.18</ele>
        <time>2011-03-10T12:44:44Z</time>
      </trkpt>
      <trkpt lat="42.63125" lon="0.8467">
        <ele>2248.66</ele>
        <time>2011-03-10T12:44:59Z</time>
      </trkpt>
      <trkpt lat="42.63124" lon="0.8467">
        <ele>2248.66</ele>
        <time>2011-03-10T12:45:19Z</time>
      </trkpt>
      <trkpt lat="42.63125" lon="0.84669">
        <ele>2250.1</ele>
        <time>2011-03-10T12:45:42Z</time>
      </trkpt>
      <trkpt lat="42.63125" lon="0.84668">
        <ele>2249.62</ele>
        <time>2011-03-10T12:46:16Z</time>
      </trkpt>
      <trkpt lat="42.63125" lon="0.84669">
        <ele>2249.14</ele>
        <time>2011-03-10T12:46:38Z</time>
      </trkpt>
      <trkpt lat="42.63126" lon="0.84668">
        <ele>2249.14</ele>
        <time>2011-03-10T12:46:47Z</time>
      </trkpt>
      <trkpt lat="42.63126" lon="0.84669">
        <ele>2250.1</ele>
        <time>2011-03-10T12:46:57Z</time>
      </trkpt>
      <trkpt lat="42.63119" lon="0.84673">
        <ele>2250.58</ele>
        <time>2011-03-10T12:47:21Z</time>
      </trkpt>
      <trkpt lat="42.63116" lon="0.84674">
        <ele>2251.54</ele>
        <time>2011-03-10T12:47:37Z</time>
      </trkpt>
      <trkpt lat="42.63115" lon="0.84674">
        <ele>2252.03</ele>
        <time>2011-03-10T12:47:39Z</time>
      </trkpt>
      <trkpt lat="42.63104" lon="0.84671">
        <ele>2254.91</ele>
        <time>2011-03-10T12:47:52Z</time>
      </trkpt>
      <trkpt lat="42.63099" lon="0.84665">
        <ele>2257.31</ele>
        <time>2011-03-10T12:48:04Z</time>
      </trkpt>
      <trkpt lat="42.63099" lon="0.84661">
        <ele>2258.27</ele>
        <time>2011-03-10T12:48:08Z</time>
      </trkpt>
      <trkpt lat="42.631" lon="0.84653">
        <ele>2259.72</ele>
        <time>2011-03-10T12:48:16Z</time>
      </trkpt>
      <trkpt lat="42.63102" lon="0.84642">
        <ele>2262.12</ele>
        <time>2011-03-10T12:48:28Z</time>
      </trkpt>
      <trkpt lat="42.63103" lon="0.84629">
        <ele>2263.56</ele>
        <time>2011-03-10T12:48:41Z</time>
      </trkpt>
      <trkpt lat="42.63106" lon="0.84621">
        <ele>2266.45</ele>
        <time>2011-03-10T12:48:51Z</time>
      </trkpt>
      <trkpt lat="42.63109" lon="0.84608">
        <ele>2268.85</ele>
        <time>2011-03-10T12:49:05Z</time>
      </trkpt>
      <trkpt lat="42.63105" lon="0.84603">
        <ele>2270.77</ele>
        <time>2011-03-10T12:49:15Z</time>
      </trkpt>
      <trkpt lat="42.63103" lon="0.84604">
        <ele>2271.25</ele>
        <time>2011-03-10T12:49:17Z</time>
      </trkpt>
      <trkpt lat="42.63094" lon="0.84607">
        <ele>2274.14</ele>
        <time>2011-03-10T12:49:30Z</time>
      </trkpt>
      <trkpt lat="42.63082" lon="0.84612">
        <ele>2276.54</ele>
        <time>2011-03-10T12:49:43Z</time>
      </trkpt>
      <trkpt lat="42.63079" lon="0.84613">
        <ele>2277.5</ele>
        <time>2011-03-10T12:49:48Z</time>
      </trkpt>
      <trkpt lat="42.63069" lon="0.8462">
        <ele>2279.42</ele>
        <time>2011-03-10T12:50:01Z</time>
      </trkpt>
      <trkpt lat="42.63062" lon="0.84617">
        <ele>2281.83</ele>
        <time>2011-03-10T12:50:13Z</time>
      </trkpt>
      <trkpt lat="42.63056" lon="0.8461">
        <ele>2283.75</ele>
        <time>2011-03-10T12:50:24Z</time>
      </trkpt>
      <trkpt lat="42.63055" lon="0.84596">
        <ele>2286.63</ele>
        <time>2011-03-10T12:50:39Z</time>
      </trkpt>
      <trkpt lat="42.63054" lon="0.84589">
        <ele>2288.56</ele>
        <time>2011-03-10T12:50:49Z</time>
      </trkpt>
      <trkpt lat="42.63054" lon="0.84584">
        <ele>2289.52</ele>
        <time>2011-03-10T12:50:53Z</time>
      </trkpt>
      <trkpt lat="42.63048" lon="0.84575">
        <ele>2291.44</ele>
        <time>2011-03-10T12:51:06Z</time>
      </trkpt>
      <trkpt lat="42.63049" lon="0.84566">
        <ele>2294.32</ele>
        <time>2011-03-10T12:51:18Z</time>
      </trkpt>
      <trkpt lat="42.63049" lon="0.84565">
        <ele>2294.32</ele>
        <time>2011-03-10T12:51:19Z</time>
      </trkpt>
      <trkpt lat="42.63051" lon="0.84555">
        <ele>2295.28</ele>
        <time>2011-03-10T12:51:26Z</time>
      </trkpt>
      <trkpt lat="42.63054" lon="0.8454">
        <ele>2295.77</ele>
        <time>2011-03-10T12:51:40Z</time>
      </trkpt>
      <trkpt lat="42.63054" lon="0.84539">
        <ele>2295.77</ele>
        <time>2011-03-10T12:51:41Z</time>
      </trkpt>
      <trkpt lat="42.63057" lon="0.84529">
        <ele>2298.65</ele>
        <time>2011-03-10T12:51:52Z</time>
      </trkpt>
      <trkpt lat="42.63059" lon="0.8452">
        <ele>2300.57</ele>
        <time>2011-03-10T12:52:01Z</time>
      </trkpt>
      <trkpt lat="42.63057" lon="0.8452">
        <ele>2301.05</ele>
        <time>2011-03-10T12:52:13Z</time>
      </trkpt>
      <trkpt lat="42.63057" lon="0.84521">
        <ele>2301.53</ele>
        <time>2011-03-10T12:52:14Z</time>
      </trkpt>
      <trkpt lat="42.63048" lon="0.84531">
        <ele>2302.49</ele>
        <time>2011-03-10T12:52:27Z</time>
      </trkpt>
      <trkpt lat="42.63047" lon="0.84532">
        <ele>2302.49</ele>
        <time>2011-03-10T12:52:28Z</time>
      </trkpt>
      <trkpt lat="42.63044" lon="0.84534">
        <ele>2304.42</ele>
        <time>2011-03-10T12:52:32Z</time>
      </trkpt>
      <trkpt lat="42.63041" lon="0.84535">
        <ele>2304.9</ele>
        <time>2011-03-10T12:52:43Z</time>
      </trkpt>
      <trkpt lat="42.63041" lon="0.84534">
        <ele>2305.86</ele>
        <time>2011-03-10T12:52:46Z</time>
      </trkpt>
      <trkpt lat="42.63036" lon="0.8453">
        <ele>2307.78</ele>
        <time>2011-03-10T12:52:55Z</time>
      </trkpt>
      <trkpt lat="42.63029" lon="0.84529">
        <ele>2309.7</ele>
        <time>2011-03-10T12:53:05Z</time>
      </trkpt>
      <trkpt lat="42.63022" lon="0.84516">
        <ele>2313.07</ele>
        <time>2011-03-10T12:53:19Z</time>
      </trkpt>
      <trkpt lat="42.63028" lon="0.8451">
        <ele>2315.47</ele>
        <time>2011-03-10T12:53:31Z</time>
      </trkpt>
      <trkpt lat="42.63031" lon="0.84506">
        <ele>2316.91</ele>
        <time>2011-03-10T12:53:43Z</time>
      </trkpt>
      <trkpt lat="42.63027" lon="0.84496">
        <ele>2318.36</ele>
        <time>2011-03-10T12:53:54Z</time>
      </trkpt>
      <trkpt lat="42.63025" lon="0.84491">
        <ele>2319.8</ele>
        <time>2011-03-10T12:54:01Z</time>
      </trkpt>
      <trkpt lat="42.63027" lon="0.84486">
        <ele>2319.32</ele>
        <time>2011-03-10T12:54:09Z</time>
      </trkpt>
      <trkpt lat="42.63027" lon="0.84484">
        <ele>2319.8</ele>
        <time>2011-03-10T12:54:12Z</time>
      </trkpt>
      <trkpt lat="42.6303" lon="0.84468">
        <ele>2320.76</ele>
        <time>2011-03-10T12:54:26Z</time>
      </trkpt>
      <trkpt lat="42.6303" lon="0.84464">
        <ele>2321.72</ele>
        <time>2011-03-10T12:54:30Z</time>
      </trkpt>
      <trkpt lat="42.63027" lon="0.84461">
        <ele>2323.16</ele>
        <time>2011-03-10T12:54:34Z</time>
      </trkpt>
      <trkpt lat="42.63021" lon="0.84455">
        <ele>2325.57</ele>
        <time>2011-03-10T12:54:46Z</time>
      </trkpt>
      <trkpt lat="42.63021" lon="0.84453">
        <ele>2326.05</ele>
        <time>2011-03-10T12:54:48Z</time>
      </trkpt>
      <trkpt lat="42.63022" lon="0.84441">
        <ele>2328.93</ele>
        <time>2011-03-10T12:55:00Z</time>
      </trkpt>
      <trkpt lat="42.63023" lon="0.84435">
        <ele>2330.37</ele>
        <time>2011-03-10T12:55:10Z</time>
      </trkpt>
      <trkpt lat="42.63024" lon="0.84435">
        <ele>2329.89</ele>
        <time>2011-03-10T12:55:26Z</time>
      </trkpt>
      <trkpt lat="42.63024" lon="0.84435">
        <ele>2329.89</ele>
        <time>2011-03-10T12:55:54Z</time>
      </trkpt>
      <trkpt lat="42.63024" lon="0.84436">
        <ele>2330.85</ele>
        <time>2011-03-10T12:56:41Z</time>
      </trkpt>
      <trkpt lat="42.63024" lon="0.84436">
        <ele>2330.85</ele>
        <time>2011-03-10T12:58:56Z</time>
      </trkpt>
      <trkpt lat="42.63024" lon="0.84421">
        <ele>2329.89</ele>
        <time>2011-03-10T12:59:16Z</time>
      </trkpt>
      <trkpt lat="42.63024" lon="0.84417">
        <ele>2331.33</ele>
        <time>2011-03-10T12:59:19Z</time>
      </trkpt>
      <trkpt lat="42.63023" lon="0.8441">
        <ele>2332.3</ele>
        <time>2011-03-10T12:59:23Z</time>
      </trkpt>
      <trkpt lat="42.6302" lon="0.84402">
        <ele>2332.3</ele>
        <time>2011-03-10T12:59:30Z</time>
      </trkpt>
      <trkpt lat="42.63024" lon="0.84388">
        <ele>2332.78</ele>
        <time>2011-03-10T12:59:38Z</time>
      </trkpt>
      <trkpt lat="42.63026" lon="0.84387">
        <ele>2332.78</ele>
        <time>2011-03-10T12:59:41Z</time>
      </trkpt>
      <trkpt lat="42.63027" lon="0.84383">
        <ele>2333.74</ele>
        <time>2011-03-10T12:59:47Z</time>
      </trkpt>
      <trkpt lat="42.63025" lon="0.8438">
        <ele>2334.22</ele>
        <time>2011-03-10T12:59:50Z</time>
      </trkpt>
      <trkpt lat="42.63023" lon="0.84378">
        <ele>2335.18</ele>
        <time>2011-03-10T12:59:52Z</time>
      </trkpt>
      <trkpt lat="42.63021" lon="0.84375">
        <ele>2336.14</ele>
        <time>2011-03-10T12:59:55Z</time>
      </trkpt>
      <trkpt lat="42.6302" lon="0.84367">
        <ele>2337.1</ele>
        <time>2011-03-10T13:00:01Z</time>
      </trkpt>
      <trkpt lat="42.6302" lon="0.84364">
        <ele>2338.06</ele>
        <time>2011-03-10T13:00:03Z</time>
      </trkpt>
      <trkpt lat="42.6302" lon="0.84348">
        <ele>2339.51</ele>
        <time>2011-03-10T13:00:15Z</time>
      </trkpt>
      <trkpt lat="42.63018" lon="0.84344">
        <ele>2340.47</ele>
        <time>2011-03-10T13:00:29Z</time>
      </trkpt>
      <trkpt lat="42.63019" lon="0.84344">
        <ele>2340.95</ele>
        <time>2011-03-10T13:00:42Z</time>
      </trkpt>
      <trkpt lat="42.63018" lon="0.84345">
        <ele>2339.02</ele>
        <time>2011-03-10T13:00:55Z</time>
      </trkpt>
      <trkpt lat="42.63018" lon="0.84345">
        <ele>2338.06</ele>
        <time>2011-03-10T13:01:04Z</time>
      </trkpt>
      <trkpt lat="42.63018" lon="0.84345">
        <ele>2344.31</ele>
        <time>2011-03-10T13:01:12Z</time>
      </trkpt>
      <trkpt lat="42.63018" lon="0.84345">
        <ele>2341.91</ele>
        <time>2011-03-10T13:01:13Z</time>
      </trkpt>
      <trkpt lat="42.63018" lon="0.84345">
        <ele>2338.06</ele>
        <time>2011-03-10T13:01:15Z</time>
      </trkpt>
      <trkpt lat="42.63018" lon="0.84345">
        <ele>2339.02</ele>
        <time>2011-03-10T13:01:30Z</time>
      </trkpt>
      <trkpt lat="42.63018" lon="0.84345">
        <ele>2339.99</ele>
        <time>2011-03-10T13:01:51Z</time>
      </trkpt>
      <trkpt lat="42.63018" lon="0.84346">
        <ele>2339.99</ele>
        <time>2011-03-10T13:05:19Z</time>
      </trkpt>
      <trkpt lat="42.63018" lon="0.84346">
        <ele>2340.47</ele>
        <time>2011-03-10T13:05:28Z</time>
      </trkpt>
      <trkpt lat="42.63018" lon="0.84346">
        <ele>2337.1</ele>
        <time>2011-03-10T13:05:47Z</time>
      </trkpt>
      <trkpt lat="42.63018" lon="0.84346">
        <ele>2337.58</ele>
        <time>2011-03-10T13:05:48Z</time>
      </trkpt>
      <trkpt lat="42.63018" lon="0.84346">
        <ele>2339.99</ele>
        <time>2011-03-10T13:05:51Z</time>
      </trkpt>
      <trkpt lat="42.63018" lon="0.84344">
        <ele>2338.06</ele>
        <time>2011-03-10T13:12:16Z</time>
      </trkpt>
      <trkpt lat="42.63018" lon="0.84344">
        <ele>2340.47</ele>
        <time>2011-03-10T13:12:22Z</time>
      </trkpt>
      <trkpt lat="42.63017" lon="0.84346">
        <ele>2339.02</ele>
        <time>2011-03-10T13:12:41Z</time>
      </trkpt>
      <trkpt lat="42.63017" lon="0.84346">
        <ele>2340.47</ele>
        <time>2011-03-10T13:12:47Z</time>
      </trkpt>
      <trkpt lat="42.63017" lon="0.84346">
        <ele>2338.54</ele>
        <time>2011-03-10T13:12:50Z</time>
      </trkpt>
      <trkpt lat="42.63017" lon="0.84346">
        <ele>2342.39</ele>
        <time>2011-03-10T13:12:51Z</time>
      </trkpt>
      <trkpt lat="42.63017" lon="0.84346">
        <ele>2342.39</ele>
        <time>2011-03-10T13:12:52Z</time>
      </trkpt>
      <trkpt lat="42.63017" lon="0.84346">
        <ele>2341.91</ele>
        <time>2011-03-10T13:12:54Z</time>
      </trkpt>
      <trkpt lat="42.63018" lon="0.84346">
        <ele>2342.39</ele>
        <time>2011-03-10T13:13:01Z</time>
      </trkpt>
      <trkpt lat="42.63018" lon="0.84347">
        <ele>2341.91</ele>
        <time>2011-03-10T13:13:14Z</time>
      </trkpt>
      <trkpt lat="42.63019" lon="0.84347">
        <ele>2341.91</ele>
        <time>2011-03-10T13:13:37Z</time>
      </trkpt>
      <trkpt lat="42.63019" lon="0.84346">
        <ele>2342.87</ele>
        <time>2011-03-10T13:13:50Z</time>
      </trkpt>
      <trkpt lat="42.63019" lon="0.84346">
        <ele>2342.39</ele>
        <time>2011-03-10T13:14:04Z</time>
      </trkpt>
      <trkpt lat="42.63019" lon="0.84346">
        <ele>2342.39</ele>
        <time>2011-03-10T13:14:28Z</time>
      </trkpt>
      <trkpt lat="42.63019" lon="0.8434">
        <ele>2341.91</ele>
        <time>2011-03-10T13:14:53Z</time>
      </trkpt>
      <trkpt lat="42.63019" lon="0.8434">
        <ele>2341.91</ele>
        <time>2011-03-10T13:14:54Z</time>
      </trkpt>
      <trkpt lat="42.63023" lon="0.84321">
        <ele>2338.54</ele>
        <time>2011-03-10T13:15:00Z</time>
      </trkpt>
      <trkpt lat="42.63023" lon="0.84319">
        <ele>2338.54</ele>
        <time>2011-03-10T13:15:01Z</time>
      </trkpt>
      <trkpt lat="42.63024" lon="0.84317">
        <ele>2338.54</ele>
        <time>2011-03-10T13:15:03Z</time>
      </trkpt>
      <trkpt lat="42.63024" lon="0.84303">
        <ele>2340.47</ele>
        <time>2011-03-10T13:15:15Z</time>
      </trkpt>
      <trkpt lat="42.63024" lon="0.84298">
        <ele>2340.47</ele>
        <time>2011-03-10T13:15:19Z</time>
      </trkpt>
      <trkpt lat="42.63025" lon="0.84281">
        <ele>2341.91</ele>
        <time>2011-03-10T13:15:32Z</time>
      </trkpt>
      <trkpt lat="42.63029" lon="0.84267">
        <ele>2344.31</ele>
        <time>2011-03-10T13:15:44Z</time>
      </trkpt>
      <trkpt lat="42.63029" lon="0.84264">
        <ele>2344.79</ele>
        <time>2011-03-10T13:15:47Z</time>
      </trkpt>
      <trkpt lat="42.63025" lon="0.8424">
        <ele>2343.35</ele>
        <time>2011-03-10T13:15:59Z</time>
      </trkpt>
      <trkpt lat="42.63021" lon="0.84224">
        <ele>2339.99</ele>
        <time>2011-03-10T13:16:03Z</time>
      </trkpt>
      <trkpt lat="42.63021" lon="0.84218">
        <ele>2340.47</ele>
        <time>2011-03-10T13:16:15Z</time>
      </trkpt>
      <trkpt lat="42.63021" lon="0.84215">
        <ele>2340.47</ele>
        <time>2011-03-10T13:16:47Z</time>
      </trkpt>
      <trkpt lat="42.63022" lon="0.84206">
        <ele>2340.47</ele>
        <time>2011-03-10T13:16:52Z</time>
      </trkpt>
      <trkpt lat="42.63022" lon="0.842">
        <ele>2340.95</ele>
        <time>2011-03-10T13:16:56Z</time>
      </trkpt>
      <trkpt lat="42.63026" lon="0.84188">
        <ele>2342.39</ele>
        <time>2011-03-10T13:17:05Z</time>
      </trkpt>
      <trkpt lat="42.63032" lon="0.84176">
        <ele>2344.79</ele>
        <time>2011-03-10T13:17:18Z</time>
      </trkpt>
      <trkpt lat="42.63032" lon="0.84175">
        <ele>2344.79</ele>
        <time>2011-03-10T13:17:19Z</time>
      </trkpt>
      <trkpt lat="42.63032" lon="0.84154">
        <ele>2345.27</ele>
        <time>2011-03-10T13:17:32Z</time>
      </trkpt>
      <trkpt lat="42.63032" lon="0.8415">
        <ele>2345.27</ele>
        <time>2011-03-10T13:17:42Z</time>
      </trkpt>
      <trkpt lat="42.63031" lon="0.84143">
        <ele>2346.23</ele>
        <time>2011-03-10T13:17:54Z</time>
      </trkpt>
      <trkpt lat="42.63029" lon="0.84141">
        <ele>2346.23</ele>
        <time>2011-03-10T13:17:56Z</time>
      </trkpt>
      <trkpt lat="42.63024" lon="0.84125">
        <ele>2346.72</ele>
        <time>2011-03-10T13:18:06Z</time>
      </trkpt>
      <trkpt lat="42.63021" lon="0.84108">
        <ele>2347.68</ele>
        <time>2011-03-10T13:18:18Z</time>
      </trkpt>
      <trkpt lat="42.63021" lon="0.84097">
        <ele>2347.68</ele>
        <time>2011-03-10T13:18:24Z</time>
      </trkpt>
      <trkpt lat="42.63021" lon="0.84091">
        <ele>2347.68</ele>
        <time>2011-03-10T13:18:27Z</time>
      </trkpt>
      <trkpt lat="42.63021" lon="0.84084">
        <ele>2348.16</ele>
        <time>2011-03-10T13:18:32Z</time>
      </trkpt>
      <trkpt lat="42.6302" lon="0.84081">
        <ele>2348.16</ele>
        <time>2011-03-10T13:18:34Z</time>
      </trkpt>
      <trkpt lat="42.6302" lon="0.84065">
        <ele>2349.6</ele>
        <time>2011-03-10T13:18:46Z</time>
      </trkpt>
      <trkpt lat="42.63024" lon="0.84054">
        <ele>2352</ele>
        <time>2011-03-10T13:18:58Z</time>
      </trkpt>
      <trkpt lat="42.63025" lon="0.84053">
        <ele>2352.48</ele>
        <time>2011-03-10T13:19:12Z</time>
      </trkpt>
      <trkpt lat="42.63026" lon="0.84053">
        <ele>2352.96</ele>
        <time>2011-03-10T13:19:34Z</time>
      </trkpt>
      <trkpt lat="42.63031" lon="0.84049">
        <ele>2354.89</ele>
        <time>2011-03-10T13:19:45Z</time>
      </trkpt>
      <trkpt lat="42.63028" lon="0.84046">
        <ele>2357.77</ele>
        <time>2011-03-10T13:19:54Z</time>
      </trkpt>
      <trkpt lat="42.63026" lon="0.84039">
        <ele>2360.17</ele>
        <time>2011-03-10T13:20:08Z</time>
      </trkpt>
      <trkpt lat="42.6303" lon="0.84037">
        <ele>2361.14</ele>
        <time>2011-03-10T13:20:17Z</time>
      </trkpt>
      <trkpt lat="42.63031" lon="0.84037">
        <ele>2362.1</ele>
        <time>2011-03-10T13:20:19Z</time>
      </trkpt>
      <trkpt lat="42.63035" lon="0.84034">
        <ele>2362.58</ele>
        <time>2011-03-10T13:20:25Z</time>
      </trkpt>
      <trkpt lat="42.63038" lon="0.84031">
        <ele>2364.02</ele>
        <time>2011-03-10T13:20:38Z</time>
      </trkpt>
      <trkpt lat="42.63034" lon="0.84029">
        <ele>2365.46</ele>
        <time>2011-03-10T13:20:48Z</time>
      </trkpt>
      <trkpt lat="42.63033" lon="0.84024">
        <ele>2366.42</ele>
        <time>2011-03-10T13:20:52Z</time>
      </trkpt>
      <trkpt lat="42.63034" lon="0.84017">
        <ele>2368.35</ele>
        <time>2011-03-10T13:21:02Z</time>
      </trkpt>
      <trkpt lat="42.63034" lon="0.8401">
        <ele>2368.83</ele>
        <time>2011-03-10T13:21:08Z</time>
      </trkpt>
      <trkpt lat="42.63038" lon="0.84008">
        <ele>2370.75</ele>
        <time>2011-03-10T13:21:15Z</time>
      </trkpt>
      <trkpt lat="42.63044" lon="0.84004">
        <ele>2372.19</ele>
        <time>2011-03-10T13:21:26Z</time>
      </trkpt>
      <trkpt lat="42.63047" lon="0.84003">
        <ele>2374.11</ele>
        <time>2011-03-10T13:21:39Z</time>
      </trkpt>
      <trkpt lat="42.63048" lon="0.84002">
        <ele>2375.07</ele>
        <time>2011-03-10T13:21:51Z</time>
      </trkpt>
      <trkpt lat="42.6306" lon="0.83987">
        <ele>2376.52</ele>
        <time>2011-03-10T13:22:07Z</time>
      </trkpt>
      <trkpt lat="42.63067" lon="0.83977">
        <ele>2379.4</ele>
        <time>2011-03-10T13:22:20Z</time>
      </trkpt>
      <trkpt lat="42.6307" lon="0.83973">
        <ele>2380.36</ele>
        <time>2011-03-10T13:22:36Z</time>
      </trkpt>
      <trkpt lat="42.63074" lon="0.83959">
        <ele>2382.28</ele>
        <time>2011-03-10T13:22:48Z</time>
      </trkpt>
      <trkpt lat="42.63078" lon="0.83943">
        <ele>2384.21</ele>
        <time>2011-03-10T13:23:02Z</time>
      </trkpt>
      <trkpt lat="42.63078" lon="0.8393">
        <ele>2386.13</ele>
        <time>2011-03-10T13:23:15Z</time>
      </trkpt>
      <trkpt lat="42.63079" lon="0.83914">
        <ele>2387.57</ele>
        <time>2011-03-10T13:23:29Z</time>
      </trkpt>
      <trkpt lat="42.63081" lon="0.839">
        <ele>2390.94</ele>
        <time>2011-03-10T13:23:42Z</time>
      </trkpt>
      <trkpt lat="42.63081" lon="0.83897">
        <ele>2390.94</ele>
        <time>2011-03-10T13:23:46Z</time>
      </trkpt>
      <trkpt lat="42.63082" lon="0.83894">
        <ele>2391.9</ele>
        <time>2011-03-10T13:23:48Z</time>
      </trkpt>
      <trkpt lat="42.63079" lon="0.83889">
        <ele>2392.38</ele>
        <time>2011-03-10T13:24:01Z</time>
      </trkpt>
      <trkpt lat="42.63078" lon="0.8389">
        <ele>2393.34</ele>
        <time>2011-03-10T13:24:03Z</time>
      </trkpt>
      <trkpt lat="42.6307" lon="0.839">
        <ele>2395.26</ele>
        <time>2011-03-10T13:24:17Z</time>
      </trkpt>
      <trkpt lat="42.63069" lon="0.83902">
        <ele>2395.74</ele>
        <time>2011-03-10T13:24:19Z</time>
      </trkpt>
      <trkpt lat="42.63066" lon="0.83905">
        <ele>2396.7</ele>
        <time>2011-03-10T13:24:24Z</time>
      </trkpt>
      <trkpt lat="42.63057" lon="0.83914">
        <ele>2397.18</ele>
        <time>2011-03-10T13:24:37Z</time>
      </trkpt>
      <trkpt lat="42.63054" lon="0.83916">
        <ele>2398.15</ele>
        <time>2011-03-10T13:24:41Z</time>
      </trkpt>
      <trkpt lat="42.63046" lon="0.8392">
        <ele>2399.59</ele>
        <time>2011-03-10T13:24:53Z</time>
      </trkpt>
      <trkpt lat="42.63045" lon="0.8392">
        <ele>2399.59</ele>
        <time>2011-03-10T13:24:54Z</time>
      </trkpt>
      <trkpt lat="42.6304" lon="0.83919">
        <ele>2401.03</ele>
        <time>2011-03-10T13:25:08Z</time>
      </trkpt>
      <trkpt lat="42.63041" lon="0.83918">
        <ele>2401.51</ele>
        <time>2011-03-10T13:25:09Z</time>
      </trkpt>
      <trkpt lat="42.63042" lon="0.8391">
        <ele>2402.47</ele>
        <time>2011-03-10T13:25:24Z</time>
      </trkpt>
      <trkpt lat="42.63042" lon="0.83909">
        <ele>2402.47</ele>
        <time>2011-03-10T13:27:04Z</time>
      </trkpt>
      <trkpt lat="42.63039" lon="0.83906">
        <ele>2403.91</ele>
        <time>2011-03-10T13:27:59Z</time>
      </trkpt>
      <trkpt lat="42.63038" lon="0.83906">
        <ele>2404.39</ele>
        <time>2011-03-10T13:28:01Z</time>
      </trkpt>
      <trkpt lat="42.63033" lon="0.83904">
        <ele>2404.88</ele>
        <time>2011-03-10T13:28:06Z</time>
      </trkpt>
      <trkpt lat="42.6303" lon="0.83902">
        <ele>2406.8</ele>
        <time>2011-03-10T13:28:11Z</time>
      </trkpt>
      <trkpt lat="42.63027" lon="0.83899">
        <ele>2407.76</ele>
        <time>2011-03-10T13:28:16Z</time>
      </trkpt>
      <trkpt lat="42.63027" lon="0.83892">
        <ele>2408.24</ele>
        <time>2011-03-10T13:28:22Z</time>
      </trkpt>
      <trkpt lat="42.63029" lon="0.83882">
        <ele>2410.16</ele>
        <time>2011-03-10T13:28:32Z</time>
      </trkpt>
      <trkpt lat="42.63031" lon="0.83876">
        <ele>2412.09</ele>
        <time>2011-03-10T13:28:37Z</time>
      </trkpt>
      <trkpt lat="42.63037" lon="0.83869">
        <ele>2413.53</ele>
        <time>2011-03-10T13:28:48Z</time>
      </trkpt>
      <trkpt lat="42.63036" lon="0.83865">
        <ele>2414.97</ele>
        <time>2011-03-10T13:29:10Z</time>
      </trkpt>
      <trkpt lat="42.63038" lon="0.83862">
        <ele>2414.49</ele>
        <time>2011-03-10T13:29:20Z</time>
      </trkpt>
      <trkpt lat="42.63043" lon="0.83851">
        <ele>2415.93</ele>
        <time>2011-03-10T13:29:30Z</time>
      </trkpt>
      <trkpt lat="42.63043" lon="0.83846">
        <ele>2417.37</ele>
        <time>2011-03-10T13:29:36Z</time>
      </trkpt>
      <trkpt lat="42.63043" lon="0.83836">
        <ele>2419.3</ele>
        <time>2011-03-10T13:29:45Z</time>
      </trkpt>
      <trkpt lat="42.63039" lon="0.83834">
        <ele>2420.26</ele>
        <time>2011-03-10T13:29:51Z</time>
      </trkpt>
      <trkpt lat="42.63032" lon="0.83825">
        <ele>2423.62</ele>
        <time>2011-03-10T13:30:02Z</time>
      </trkpt>
      <trkpt lat="42.63028" lon="0.83814">
        <ele>2425.54</ele>
        <time>2011-03-10T13:30:15Z</time>
      </trkpt>
      <trkpt lat="42.63027" lon="0.83804">
        <ele>2427.47</ele>
        <time>2011-03-10T13:30:25Z</time>
      </trkpt>
      <trkpt lat="42.63025" lon="0.83789">
        <ele>2428.43</ele>
        <time>2011-03-10T13:30:38Z</time>
      </trkpt>
      <trkpt lat="42.63025" lon="0.83781">
        <ele>2428.43</ele>
        <time>2011-03-10T13:30:43Z</time>
      </trkpt>
      <trkpt lat="42.63023" lon="0.83768">
        <ele>2431.31</ele>
        <time>2011-03-10T13:30:57Z</time>
      </trkpt>
      <trkpt lat="42.63027" lon="0.83759">
        <ele>2433.23</ele>
        <time>2011-03-10T13:31:08Z</time>
      </trkpt>
      <trkpt lat="42.63034" lon="0.83757">
        <ele>2436.12</ele>
        <time>2011-03-10T13:31:23Z</time>
      </trkpt>
      <trkpt lat="42.63035" lon="0.83756">
        <ele>2436.12</ele>
        <time>2011-03-10T13:31:24Z</time>
      </trkpt>
      <trkpt lat="42.63036" lon="0.8375">
        <ele>2437.56</ele>
        <time>2011-03-10T13:31:30Z</time>
      </trkpt>
      <trkpt lat="42.63043" lon="0.83743">
        <ele>2439</ele>
        <time>2011-03-10T13:31:41Z</time>
      </trkpt>
      <trkpt lat="42.63047" lon="0.8374">
        <ele>2439.96</ele>
        <time>2011-03-10T13:31:53Z</time>
      </trkpt>
      <trkpt lat="42.63051" lon="0.83733">
        <ele>2441.89</ele>
        <time>2011-03-10T13:32:04Z</time>
      </trkpt>
      <trkpt lat="42.63049" lon="0.83732">
        <ele>2443.33</ele>
        <time>2011-03-10T13:32:07Z</time>
      </trkpt>
      <trkpt lat="42.63046" lon="0.8373">
        <ele>2442.85</ele>
        <time>2011-03-10T13:32:10Z</time>
      </trkpt>
      <trkpt lat="42.63042" lon="0.83729">
        <ele>2443.33</ele>
        <time>2011-03-10T13:32:15Z</time>
      </trkpt>
      <trkpt lat="42.63034" lon="0.83724">
        <ele>2446.21</ele>
        <time>2011-03-10T13:32:28Z</time>
      </trkpt>
      <trkpt lat="42.63033" lon="0.83718">
        <ele>2448.13</ele>
        <time>2011-03-10T13:32:41Z</time>
      </trkpt>
      <trkpt lat="42.63039" lon="0.8371">
        <ele>2450.54</ele>
        <time>2011-03-10T13:32:52Z</time>
      </trkpt>
      <trkpt lat="42.63045" lon="0.83704">
        <ele>2453.42</ele>
        <time>2011-03-10T13:33:08Z</time>
      </trkpt>
      <trkpt lat="42.63052" lon="0.83697">
        <ele>2454.86</ele>
        <time>2011-03-10T13:33:18Z</time>
      </trkpt>
      <trkpt lat="42.63053" lon="0.83697">
        <ele>2455.34</ele>
        <time>2011-03-10T13:33:19Z</time>
      </trkpt>
      <trkpt lat="42.63056" lon="0.8369">
        <ele>2456.31</ele>
        <time>2011-03-10T13:33:28Z</time>
      </trkpt>
      <trkpt lat="42.63054" lon="0.83687">
        <ele>2457.27</ele>
        <time>2011-03-10T13:33:32Z</time>
      </trkpt>
      <trkpt lat="42.63047" lon="0.83682">
        <ele>2459.67</ele>
        <time>2011-03-10T13:33:44Z</time>
      </trkpt>
      <trkpt lat="42.63043" lon="0.83677">
        <ele>2460.63</ele>
        <time>2011-03-10T13:33:51Z</time>
      </trkpt>
      <trkpt lat="42.6304" lon="0.83667">
        <ele>2463.52</ele>
        <time>2011-03-10T13:34:04Z</time>
      </trkpt>
      <trkpt lat="42.6304" lon="0.83666">
        <ele>2463.52</ele>
        <time>2011-03-10T13:34:05Z</time>
      </trkpt>
      <trkpt lat="42.63039" lon="0.83654">
        <ele>2464.48</ele>
        <time>2011-03-10T13:34:16Z</time>
      </trkpt>
      <trkpt lat="42.63036" lon="0.83643">
        <ele>2465.44</ele>
        <time>2011-03-10T13:34:27Z</time>
      </trkpt>
      <trkpt lat="42.6303" lon="0.83628">
        <ele>2467.84</ele>
        <time>2011-03-10T13:34:41Z</time>
      </trkpt>
      <trkpt lat="42.6303" lon="0.83627">
        <ele>2467.84</ele>
        <time>2011-03-10T13:34:42Z</time>
      </trkpt>
      <trkpt lat="42.63027" lon="0.83618">
        <ele>2469.76</ele>
        <time>2011-03-10T13:34:50Z</time>
      </trkpt>
      <trkpt lat="42.63027" lon="0.8361">
        <ele>2471.21</ele>
        <time>2011-03-10T13:35:00Z</time>
      </trkpt>
      <trkpt lat="42.63032" lon="0.83596">
        <ele>2473.13</ele>
        <time>2011-03-10T13:35:14Z</time>
      </trkpt>
      <trkpt lat="42.63036" lon="0.83586">
        <ele>2474.57</ele>
        <time>2011-03-10T13:35:25Z</time>
      </trkpt>
      <trkpt lat="42.63045" lon="0.83574">
        <ele>2477.94</ele>
        <time>2011-03-10T13:35:41Z</time>
      </trkpt>
      <trkpt lat="42.63052" lon="0.83567">
        <ele>2477.94</ele>
        <time>2011-03-10T13:35:51Z</time>
      </trkpt>
      <trkpt lat="42.63058" lon="0.83557">
        <ele>2477.94</ele>
        <time>2011-03-10T13:36:03Z</time>
      </trkpt>
      <trkpt lat="42.63062" lon="0.8355">
        <ele>2477.94</ele>
        <time>2011-03-10T13:36:09Z</time>
      </trkpt>
      <trkpt lat="42.63068" lon="0.83538">
        <ele>2478.42</ele>
        <time>2011-03-10T13:36:21Z</time>
      </trkpt>
      <trkpt lat="42.63075" lon="0.83532">
        <ele>2479.86</ele>
        <time>2011-03-10T13:36:33Z</time>
      </trkpt>
      <trkpt lat="42.63074" lon="0.83532">
        <ele>2479.38</ele>
        <time>2011-03-10T13:37:23Z</time>
      </trkpt>
      <trkpt lat="42.63074" lon="0.83532">
        <ele>2479.38</ele>
        <time>2011-03-10T13:38:17Z</time>
      </trkpt>
      <trkpt lat="42.63074" lon="0.83531">
        <ele>2479.86</ele>
        <time>2011-03-10T13:38:23Z</time>
      </trkpt>
      <trkpt lat="42.63068" lon="0.83535">
        <ele>2478.42</ele>
        <time>2011-03-10T13:38:33Z</time>
      </trkpt>
      <trkpt lat="42.63068" lon="0.83535">
        <ele>2478.9</ele>
        <time>2011-03-10T13:38:44Z</time>
      </trkpt>
      <trkpt lat="42.63063" lon="0.83544">
        <ele>2477.94</ele>
        <time>2011-03-10T13:38:48Z</time>
      </trkpt>
      <trkpt lat="42.63059" lon="0.83549">
        <ele>2477.94</ele>
        <time>2011-03-10T13:38:53Z</time>
      </trkpt>
      <trkpt lat="42.63049" lon="0.83569">
        <ele>2477.94</ele>
        <time>2011-03-10T13:39:05Z</time>
      </trkpt>
      <trkpt lat="42.63046" lon="0.83573">
        <ele>2477.45</ele>
        <time>2011-03-10T13:39:07Z</time>
      </trkpt>
      <trkpt lat="42.63037" lon="0.8359">
        <ele>2475.05</ele>
        <time>2011-03-10T13:39:19Z</time>
      </trkpt>
      <trkpt lat="42.63037" lon="0.8359">
        <ele>2474.57</ele>
        <time>2011-03-10T13:39:37Z</time>
      </trkpt>
      <trkpt lat="42.63037" lon="0.83589">
        <ele>2474.09</ele>
        <time>2011-03-10T13:39:51Z</time>
      </trkpt>
      <trkpt lat="42.63037" lon="0.83587">
        <ele>2474.57</ele>
        <time>2011-03-10T13:40:11Z</time>
      </trkpt>
      <trkpt lat="42.63037" lon="0.83587">
        <ele>2475.53</ele>
        <time>2011-03-10T13:40:14Z</time>
      </trkpt>
      <trkpt lat="42.63041" lon="0.8358">
        <ele>2475.53</ele>
        <time>2011-03-10T13:40:21Z</time>
      </trkpt>
      <trkpt lat="42.63043" lon="0.83575">
        <ele>2477.45</ele>
        <time>2011-03-10T13:40:34Z</time>
      </trkpt>
      <trkpt lat="42.63044" lon="0.83574">
        <ele>2477.45</ele>
        <time>2011-03-10T13:40:45Z</time>
      </trkpt>
      <trkpt lat="42.63047" lon="0.83571">
        <ele>2477.45</ele>
        <time>2011-03-10T13:40:48Z</time>
      </trkpt>
      <trkpt lat="42.63057" lon="0.83558">
        <ele>2477.45</ele>
        <time>2011-03-10T13:41:00Z</time>
      </trkpt>
      <trkpt lat="42.63058" lon="0.83557">
        <ele>2478.42</ele>
        <time>2011-03-10T13:41:06Z</time>
      </trkpt>
      <trkpt lat="42.63059" lon="0.83554">
        <ele>2477.94</ele>
        <time>2011-03-10T13:41:10Z</time>
      </trkpt>
      <trkpt lat="42.63064" lon="0.83546">
        <ele>2477.94</ele>
        <time>2011-03-10T13:41:15Z</time>
      </trkpt>
      <trkpt lat="42.63076" lon="0.83533">
        <ele>2478.9</ele>
        <time>2011-03-10T13:41:29Z</time>
      </trkpt>
      <trkpt lat="42.63081" lon="0.83521">
        <ele>2478.42</ele>
        <time>2011-03-10T13:41:36Z</time>
      </trkpt>
      <trkpt lat="42.63087" lon="0.8351">
        <ele>2477.45</ele>
        <time>2011-03-10T13:41:43Z</time>
      </trkpt>
      <trkpt lat="42.63096" lon="0.83496">
        <ele>2476.97</ele>
        <time>2011-03-10T13:41:55Z</time>
      </trkpt>
      <trkpt lat="42.63103" lon="0.83483">
        <ele>2476.01</ele>
        <time>2011-03-10T13:42:05Z</time>
      </trkpt>
      <trkpt lat="42.63109" lon="0.83469">
        <ele>2476.97</ele>
        <time>2011-03-10T13:42:15Z</time>
      </trkpt>
      <trkpt lat="42.63112" lon="0.83455">
        <ele>2479.86</ele>
        <time>2011-03-10T13:42:26Z</time>
      </trkpt>
      <trkpt lat="42.63115" lon="0.83442">
        <ele>2482.26</ele>
        <time>2011-03-10T13:42:37Z</time>
      </trkpt>
      <trkpt lat="42.63117" lon="0.83434">
        <ele>2483.7</ele>
        <time>2011-03-10T13:42:44Z</time>
      </trkpt>
      <trkpt lat="42.63118" lon="0.83432">
        <ele>2484.18</ele>
        <time>2011-03-10T13:42:46Z</time>
      </trkpt>
      <trkpt lat="42.63119" lon="0.8343">
        <ele>2484.66</ele>
        <time>2011-03-10T13:43:08Z</time>
      </trkpt>
      <trkpt lat="42.63124" lon="0.83419">
        <ele>2485.15</ele>
        <time>2011-03-10T13:43:18Z</time>
      </trkpt>
      <trkpt lat="42.63126" lon="0.83417">
        <ele>2486.59</ele>
        <time>2011-03-10T13:43:21Z</time>
      </trkpt>
      <trkpt lat="42.63129" lon="0.83409">
        <ele>2488.03</ele>
        <time>2011-03-10T13:43:30Z</time>
      </trkpt>
      <trkpt lat="42.63131" lon="0.83398">
        <ele>2488.51</ele>
        <time>2011-03-10T13:43:41Z</time>
      </trkpt>
      <trkpt lat="42.63132" lon="0.83391">
        <ele>2489.95</ele>
        <time>2011-03-10T13:43:51Z</time>
      </trkpt>
      <trkpt lat="42.63134" lon="0.83378">
        <ele>2492.36</ele>
        <time>2011-03-10T13:44:02Z</time>
      </trkpt>
      <trkpt lat="42.63136" lon="0.83366">
        <ele>2493.8</ele>
        <time>2011-03-10T13:44:17Z</time>
      </trkpt>
      <trkpt lat="42.63137" lon="0.83355">
        <ele>2495.24</ele>
        <time>2011-03-10T13:44:32Z</time>
      </trkpt>
      <trkpt lat="42.63136" lon="0.83351">
        <ele>2496.68</ele>
        <time>2011-03-10T13:44:36Z</time>
      </trkpt>
      <trkpt lat="42.63134" lon="0.8334">
        <ele>2499.08</ele>
        <time>2011-03-10T13:44:50Z</time>
      </trkpt>
      <trkpt lat="42.63133" lon="0.83337">
        <ele>2500.05</ele>
        <time>2011-03-10T13:44:54Z</time>
      </trkpt>
      <trkpt lat="42.63131" lon="0.83324">
        <ele>2502.45</ele>
        <time>2011-03-10T13:45:10Z</time>
      </trkpt>
      <trkpt lat="42.63131" lon="0.83321">
        <ele>2503.89</ele>
        <time>2011-03-10T13:45:26Z</time>
      </trkpt>
      <trkpt lat="42.63131" lon="0.83321">
        <ele>2503.89</ele>
        <time>2011-03-10T13:47:01Z</time>
      </trkpt>
      <trkpt lat="42.63138" lon="0.83319">
        <ele>2504.85</ele>
        <time>2011-03-10T13:47:29Z</time>
      </trkpt>
      <trkpt lat="42.63141" lon="0.83319">
        <ele>2506.29</ele>
        <time>2011-03-10T13:47:34Z</time>
      </trkpt>
      <trkpt lat="42.6315" lon="0.83318">
        <ele>2509.66</ele>
        <time>2011-03-10T13:47:46Z</time>
      </trkpt>
      <trkpt lat="42.63162" lon="0.83323">
        <ele>2512.54</ele>
        <time>2011-03-10T13:48:00Z</time>
      </trkpt>
      <trkpt lat="42.63168" lon="0.83331">
        <ele>2513.98</ele>
        <time>2011-03-10T13:48:12Z</time>
      </trkpt>
      <trkpt lat="42.63169" lon="0.83326">
        <ele>2515.43</ele>
        <time>2011-03-10T13:48:21Z</time>
      </trkpt>
      <trkpt lat="42.63168" lon="0.83316">
        <ele>2518.79</ele>
        <time>2011-03-10T13:48:33Z</time>
      </trkpt>
      <trkpt lat="42.63169" lon="0.83302">
        <ele>2522.16</ele>
        <time>2011-03-10T13:48:47Z</time>
      </trkpt>
      <trkpt lat="42.63169" lon="0.83298">
        <ele>2523.12</ele>
        <time>2011-03-10T13:48:51Z</time>
      </trkpt>
      <trkpt lat="42.63169" lon="0.8329">
        <ele>2525.52</ele>
        <time>2011-03-10T13:49:04Z</time>
      </trkpt>
      <trkpt lat="42.63167" lon="0.8328">
        <ele>2528.89</ele>
        <time>2011-03-10T13:49:16Z</time>
      </trkpt>
      <trkpt lat="42.63169" lon="0.83278">
        <ele>2529.85</ele>
        <time>2011-03-10T13:49:29Z</time>
      </trkpt>
      <trkpt lat="42.63174" lon="0.8328">
        <ele>2532.25</ele>
        <time>2011-03-10T13:49:38Z</time>
      </trkpt>
      <trkpt lat="42.63183" lon="0.83286">
        <ele>2534.17</ele>
        <time>2011-03-10T13:49:50Z</time>
      </trkpt>
      <trkpt lat="42.63186" lon="0.83288">
        <ele>2536.1</ele>
        <time>2011-03-10T13:50:01Z</time>
      </trkpt>
      <trkpt lat="42.63191" lon="0.83294">
        <ele>2538.02</ele>
        <time>2011-03-10T13:50:14Z</time>
      </trkpt>
      <trkpt lat="42.63192" lon="0.83296">
        <ele>2538.98</ele>
        <time>2011-03-10T13:50:18Z</time>
      </trkpt>
      <trkpt lat="42.63198" lon="0.83307">
        <ele>2539.94</ele>
        <time>2011-03-10T13:50:31Z</time>
      </trkpt>
      <trkpt lat="42.63198" lon="0.83306">
        <ele>2541.38</ele>
        <time>2011-03-10T13:50:41Z</time>
      </trkpt>
      <trkpt lat="42.63198" lon="0.83296">
        <ele>2542.82</ele>
        <time>2011-03-10T13:51:28Z</time>
      </trkpt>
      <trkpt lat="42.63198" lon="0.83287">
        <ele>2543.79</ele>
        <time>2011-03-10T13:51:36Z</time>
      </trkpt>
      <trkpt lat="42.63199" lon="0.83282">
        <ele>2546.19</ele>
        <time>2011-03-10T13:51:40Z</time>
      </trkpt>
      <trkpt lat="42.63199" lon="0.83279">
        <ele>2546.67</ele>
        <time>2011-03-10T13:51:48Z</time>
      </trkpt>
      <trkpt lat="42.63197" lon="0.83263">
        <ele>2550.03</ele>
        <time>2011-03-10T13:52:02Z</time>
      </trkpt>
      <trkpt lat="42.63195" lon="0.83255">
        <ele>2551.48</ele>
        <time>2011-03-10T13:52:11Z</time>
      </trkpt>
      <trkpt lat="42.63195" lon="0.83255">
        <ele>2551.48</ele>
        <time>2011-03-10T13:52:23Z</time>
      </trkpt>
      <trkpt lat="42.63203" lon="0.8326">
        <ele>2553.88</ele>
        <time>2011-03-10T13:53:58Z</time>
      </trkpt>
      <trkpt lat="42.63204" lon="0.83262">
        <ele>2553.88</ele>
        <time>2011-03-10T13:54:00Z</time>
      </trkpt>
      <trkpt lat="42.63209" lon="0.83265">
        <ele>2555.8</ele>
        <time>2011-03-10T13:54:10Z</time>
      </trkpt>
      <trkpt lat="42.63209" lon="0.83265">
        <ele>2555.8</ele>
        <time>2011-03-10T13:54:15Z</time>
      </trkpt>
      <trkpt lat="42.63209" lon="0.83263">
        <ele>2556.28</ele>
        <time>2011-03-10T13:54:23Z</time>
      </trkpt>
      <trkpt lat="42.63208" lon="0.83259">
        <ele>2558.21</ele>
        <time>2011-03-10T13:54:30Z</time>
      </trkpt>
      <trkpt lat="42.63208" lon="0.8325">
        <ele>2559.65</ele>
        <time>2011-03-10T13:54:40Z</time>
      </trkpt>
      <trkpt lat="42.63204" lon="0.83238">
        <ele>2562.05</ele>
        <time>2011-03-10T13:54:51Z</time>
      </trkpt>
      <trkpt lat="42.63203" lon="0.83233">
        <ele>2564.45</ele>
        <time>2011-03-10T13:55:04Z</time>
      </trkpt>
      <trkpt lat="42.63203" lon="0.83232">
        <ele>2564.45</ele>
        <time>2011-03-10T13:55:16Z</time>
      </trkpt>
      <trkpt lat="42.63209" lon="0.83234">
        <ele>2565.9</ele>
        <time>2011-03-10T13:55:34Z</time>
      </trkpt>
      <trkpt lat="42.63211" lon="0.83235">
        <ele>2567.34</ele>
        <time>2011-03-10T13:55:44Z</time>
      </trkpt>
      <trkpt lat="42.63212" lon="0.83236">
        <ele>2567.82</ele>
        <time>2011-03-10T13:55:55Z</time>
      </trkpt>
      <trkpt lat="42.63215" lon="0.83238">
        <ele>2568.78</ele>
        <time>2011-03-10T13:56:06Z</time>
      </trkpt>
      <trkpt lat="42.63217" lon="0.83238">
        <ele>2570.22</ele>
        <time>2011-03-10T13:56:16Z</time>
      </trkpt>
      <trkpt lat="42.63218" lon="0.83238">
        <ele>2570.7</ele>
        <time>2011-03-10T13:56:28Z</time>
      </trkpt>
      <trkpt lat="42.63218" lon="0.83232">
        <ele>2572.63</ele>
        <time>2011-03-10T13:56:39Z</time>
      </trkpt>
      <trkpt lat="42.63217" lon="0.8323">
        <ele>2572.14</ele>
        <time>2011-03-10T13:56:50Z</time>
      </trkpt>
      <trkpt lat="42.63217" lon="0.8323">
        <ele>2572.63</ele>
        <time>2011-03-10T13:57:03Z</time>
      </trkpt>
      <trkpt lat="42.63217" lon="0.83231">
        <ele>2573.11</ele>
        <time>2011-03-10T13:57:12Z</time>
      </trkpt>
      <trkpt lat="42.63218" lon="0.83231">
        <ele>2570.7</ele>
        <time>2011-03-10T13:57:23Z</time>
      </trkpt>
      <trkpt lat="42.63218" lon="0.83231">
        <ele>2570.7</ele>
        <time>2011-03-10T14:03:03Z</time>
      </trkpt>
      <trkpt lat="42.63218" lon="0.83233">
        <ele>2567.82</ele>
        <time>2011-03-10T14:05:38Z</time>
      </trkpt>
      <trkpt lat="42.63218" lon="0.83233">
        <ele>2574.07</ele>
        <time>2011-03-10T14:05:39Z</time>
      </trkpt>
      <trkpt lat="42.63218" lon="0.83233">
        <ele>2571.18</ele>
        <time>2011-03-10T14:05:41Z</time>
      </trkpt>
      <trkpt lat="42.63218" lon="0.83233">
        <ele>2574.07</ele>
        <time>2011-03-10T14:05:44Z</time>
      </trkpt>
      <trkpt lat="42.63219" lon="0.83234">
        <ele>2570.7</ele>
        <time>2011-03-10T14:05:52Z</time>
      </trkpt>
      <trkpt lat="42.63219" lon="0.83234">
        <ele>2566.86</ele>
        <time>2011-03-10T14:10:56Z</time>
      </trkpt>
      <trkpt lat="42.63219" lon="0.83234">
        <ele>2571.66</ele>
        <time>2011-03-10T14:10:57Z</time>
      </trkpt>
      <trkpt lat="42.63219" lon="0.83234">
        <ele>2571.66</ele>
        <time>2011-03-10T14:10:58Z</time>
      </trkpt>
      <trkpt lat="42.63219" lon="0.83234">
        <ele>2570.22</ele>
        <time>2011-03-10T14:11:00Z</time>
      </trkpt>
      <trkpt lat="42.63219" lon="0.83235">
        <ele>2569.26</ele>
        <time>2011-03-10T14:11:50Z</time>
      </trkpt>
      <trkpt lat="42.63218" lon="0.83236">
        <ele>2568.3</ele>
        <time>2011-03-10T14:12:42Z</time>
      </trkpt>
      <trkpt lat="42.63219" lon="0.83236">
        <ele>2573.59</ele>
        <time>2011-03-10T14:12:49Z</time>
      </trkpt>
      <trkpt lat="42.63219" lon="0.83236">
        <ele>2571.18</ele>
        <time>2011-03-10T14:12:50Z</time>
      </trkpt>
      <trkpt lat="42.63219" lon="0.83236">
        <ele>2570.22</ele>
        <time>2011-03-10T14:12:52Z</time>
      </trkpt>
      <trkpt lat="42.6322" lon="0.83235">
        <ele>2568.78</ele>
        <time>2011-03-10T14:14:18Z</time>
      </trkpt>
      <trkpt lat="42.6322" lon="0.83235">
        <ele>2568.3</ele>
        <time>2011-03-10T14:15:30Z</time>
      </trkpt>
      <trkpt lat="42.63219" lon="0.83236">
        <ele>2568.78</ele>
        <time>2011-03-10T14:15:51Z</time>
      </trkpt>
      <trkpt lat="42.6322" lon="0.83236">
        <ele>2564.45</ele>
        <time>2011-03-10T14:16:05Z</time>
      </trkpt>
      <trkpt lat="42.6322" lon="0.83236">
        <ele>2565.9</ele>
        <time>2011-03-10T14:16:06Z</time>
      </trkpt>
      <trkpt lat="42.6322" lon="0.83236">
        <ele>2569.26</ele>
        <time>2011-03-10T14:16:07Z</time>
      </trkpt>
      <trkpt lat="42.6322" lon="0.83236">
        <ele>2569.74</ele>
        <time>2011-03-10T14:16:09Z</time>
      </trkpt>
      <trkpt lat="42.6322" lon="0.83236">
        <ele>2568.3</ele>
        <time>2011-03-10T14:16:14Z</time>
      </trkpt>
      <trkpt lat="42.63219" lon="0.83236">
        <ele>2569.74</ele>
        <time>2011-03-10T14:17:57Z</time>
      </trkpt>
      <trkpt lat="42.63219" lon="0.83236">
        <ele>2570.7</ele>
        <time>2011-03-10T14:18:19Z</time>
      </trkpt>
      <trkpt lat="42.63218" lon="0.83233">
        <ele>2570.22</ele>
        <time>2011-03-10T14:18:35Z</time>
      </trkpt>
      <trkpt lat="42.63218" lon="0.83234">
        <ele>2569.74</ele>
        <time>2011-03-10T14:18:48Z</time>
      </trkpt>
      <trkpt lat="42.63218" lon="0.83234">
        <ele>2570.22</ele>
        <time>2011-03-10T14:19:00Z</time>
      </trkpt>
      <trkpt lat="42.63218" lon="0.83234">
        <ele>2569.74</ele>
        <time>2011-03-10T14:19:17Z</time>
      </trkpt>
      <trkpt lat="42.63218" lon="0.83234">
        <ele>2569.74</ele>
        <time>2011-03-10T14:19:45Z</time>
      </trkpt>
      <trkpt lat="42.63218" lon="0.83233">
        <ele>2569.74</ele>
        <time>2011-03-10T14:20:09Z</time>
      </trkpt>
      <trkpt lat="42.63218" lon="0.83233">
        <ele>2570.22</ele>
        <time>2011-03-10T14:20:34Z</time>
      </trkpt>
      <trkpt lat="42.63217" lon="0.83232">
        <ele>2569.74</ele>
        <time>2011-03-10T14:22:32Z</time>
      </trkpt>
      <trkpt lat="42.63217" lon="0.83233">
        <ele>2568.78</ele>
        <time>2011-03-10T14:23:26Z</time>
      </trkpt>
      <trkpt lat="42.63217" lon="0.83234">
        <ele>2569.26</ele>
        <time>2011-03-10T14:24:30Z</time>
      </trkpt>
      <trkpt lat="42.63215" lon="0.83238">
        <ele>2567.34</ele>
        <time>2011-03-10T14:24:38Z</time>
      </trkpt>
      <trkpt lat="42.63205" lon="0.83233">
        <ele>2564.45</ele>
        <time>2011-03-10T14:24:41Z</time>
      </trkpt>
      <trkpt lat="42.63199" lon="0.83229">
        <ele>2561.57</ele>
        <time>2011-03-10T14:24:43Z</time>
      </trkpt>
      <trkpt lat="42.63188" lon="0.83229">
        <ele>2557.73</ele>
        <time>2011-03-10T14:24:47Z</time>
      </trkpt>
      <trkpt lat="42.6319" lon="0.8323">
        <ele>2558.21</ele>
        <time>2011-03-10T14:25:01Z</time>
      </trkpt>
      <trkpt lat="42.63196" lon="0.83239">
        <ele>2554.36</ele>
        <time>2011-03-10T14:25:05Z</time>
      </trkpt>
      <trkpt lat="42.63191" lon="0.83243">
        <ele>2551</ele>
        <time>2011-03-10T14:25:09Z</time>
      </trkpt>
      <trkpt lat="42.6319" lon="0.83243">
        <ele>2551.48</ele>
        <time>2011-03-10T14:25:10Z</time>
      </trkpt>
      <trkpt lat="42.63188" lon="0.83243">
        <ele>2550.03</ele>
        <time>2011-03-10T14:25:13Z</time>
      </trkpt>
      <trkpt lat="42.63188" lon="0.83243">
        <ele>2550.03</ele>
        <time>2011-03-10T14:25:21Z</time>
      </trkpt>
      <trkpt lat="42.63186" lon="0.83253">
        <ele>2546.67</ele>
        <time>2011-03-10T14:25:24Z</time>
      </trkpt>
      <trkpt lat="42.63191" lon="0.83265">
        <ele>2543.31</ele>
        <time>2011-03-10T14:25:26Z</time>
      </trkpt>
      <trkpt lat="42.63192" lon="0.83266">
        <ele>2543.31</ele>
        <time>2011-03-10T14:25:27Z</time>
      </trkpt>
      <trkpt lat="42.63192" lon="0.83266">
        <ele>2542.34</ele>
        <time>2011-03-10T14:25:30Z</time>
      </trkpt>
      <trkpt lat="42.63179" lon="0.83261">
        <ele>2538.98</ele>
        <time>2011-03-10T14:25:35Z</time>
      </trkpt>
      <trkpt lat="42.63177" lon="0.8326">
        <ele>2537.06</ele>
        <time>2011-03-10T14:25:36Z</time>
      </trkpt>
      <trkpt lat="42.6317" lon="0.83259">
        <ele>2532.25</ele>
        <time>2011-03-10T14:25:38Z</time>
      </trkpt>
      <trkpt lat="42.6316" lon="0.8326">
        <ele>2530.33</ele>
        <time>2011-03-10T14:25:41Z</time>
      </trkpt>
      <trkpt lat="42.63159" lon="0.8326">
        <ele>2530.33</ele>
        <time>2011-03-10T14:25:42Z</time>
      </trkpt>
      <trkpt lat="42.63167" lon="0.83275">
        <ele>2525.52</ele>
        <time>2011-03-10T14:25:46Z</time>
      </trkpt>
      <trkpt lat="42.63169" lon="0.83278">
        <ele>2525.52</ele>
        <time>2011-03-10T14:25:47Z</time>
      </trkpt>
      <trkpt lat="42.63164" lon="0.83286">
        <ele>2523.12</ele>
        <time>2011-03-10T14:25:50Z</time>
      </trkpt>
      <trkpt lat="42.63143" lon="0.83293">
        <ele>2514.95</ele>
        <time>2011-03-10T14:25:55Z</time>
      </trkpt>
      <trkpt lat="42.63145" lon="0.83304">
        <ele>2510.62</ele>
        <time>2011-03-10T14:25:58Z</time>
      </trkpt>
      <trkpt lat="42.63148" lon="0.83307">
        <ele>2510.62</ele>
        <time>2011-03-10T14:26:01Z</time>
      </trkpt>
      <trkpt lat="42.6315" lon="0.83316">
        <ele>2509.66</ele>
        <time>2011-03-10T14:26:04Z</time>
      </trkpt>
      <trkpt lat="42.63156" lon="0.83334">
        <ele>2507.74</ele>
        <time>2011-03-10T14:26:07Z</time>
      </trkpt>
      <trkpt lat="42.63145" lon="0.83339">
        <ele>2501.97</ele>
        <time>2011-03-10T14:26:11Z</time>
      </trkpt>
      <trkpt lat="42.63139" lon="0.83348">
        <ele>2498.12</ele>
        <time>2011-03-10T14:26:13Z</time>
      </trkpt>
      <trkpt lat="42.63136" lon="0.83359">
        <ele>2495.24</ele>
        <time>2011-03-10T14:26:15Z</time>
      </trkpt>
      <trkpt lat="42.63134" lon="0.83372">
        <ele>2491.39</ele>
        <time>2011-03-10T14:26:17Z</time>
      </trkpt>
      <trkpt lat="42.63132" lon="0.83388">
        <ele>2488.51</ele>
        <time>2011-03-10T14:26:20Z</time>
      </trkpt>
      <trkpt lat="42.63119" lon="0.83425">
        <ele>2482.26</ele>
        <time>2011-03-10T14:26:26Z</time>
      </trkpt>
      <trkpt lat="42.63118" lon="0.8343">
        <ele>2482.26</ele>
        <time>2011-03-10T14:26:27Z</time>
      </trkpt>
      <trkpt lat="42.63119" lon="0.83439">
        <ele>2480.34</ele>
        <time>2011-03-10T14:26:35Z</time>
      </trkpt>
      <trkpt lat="42.63118" lon="0.83438">
        <ele>2480.82</ele>
        <time>2011-03-10T14:26:51Z</time>
      </trkpt>
      <trkpt lat="42.63118" lon="0.83438">
        <ele>2480.82</ele>
        <time>2011-03-10T14:27:20Z</time>
      </trkpt>
      <trkpt lat="42.63118" lon="0.83438">
        <ele>2481.3</ele>
        <time>2011-03-10T14:27:22Z</time>
      </trkpt>
      <trkpt lat="42.63113" lon="0.83457">
        <ele>2478.42</ele>
        <time>2011-03-10T14:27:26Z</time>
      </trkpt>
      <trkpt lat="42.63084" lon="0.83508">
        <ele>2475.05</ele>
        <time>2011-03-10T14:27:34Z</time>
      </trkpt>
      <trkpt lat="42.63074" lon="0.83523">
        <ele>2476.01</ele>
        <time>2011-03-10T14:27:46Z</time>
      </trkpt>
      <trkpt lat="42.63073" lon="0.83526">
        <ele>2476.01</ele>
        <time>2011-03-10T14:27:51Z</time>
      </trkpt>
      <trkpt lat="42.63072" lon="0.83527">
        <ele>2476.49</ele>
        <time>2011-03-10T14:27:53Z</time>
      </trkpt>
      <trkpt lat="42.6306" lon="0.83549">
        <ele>2475.05</ele>
        <time>2011-03-10T14:28:04Z</time>
      </trkpt>
      <trkpt lat="42.63048" lon="0.8357">
        <ele>2475.53</ele>
        <time>2011-03-10T14:28:13Z</time>
      </trkpt>
      <trkpt lat="42.63038" lon="0.83582">
        <ele>2473.61</ele>
        <time>2011-03-10T14:28:19Z</time>
      </trkpt>
      <trkpt lat="42.63036" lon="0.83586">
        <ele>2473.61</ele>
        <time>2011-03-10T14:28:20Z</time>
      </trkpt>
      <trkpt lat="42.63032" lon="0.83606">
        <ele>2472.17</ele>
        <time>2011-03-10T14:28:24Z</time>
      </trkpt>
      <trkpt lat="42.63032" lon="0.83616">
        <ele>2470.73</ele>
        <time>2011-03-10T14:28:26Z</time>
      </trkpt>
      <trkpt lat="42.63038" lon="0.83627">
        <ele>2471.21</ele>
        <time>2011-03-10T14:28:35Z</time>
      </trkpt>
      <trkpt lat="42.63038" lon="0.83627">
        <ele>2470.24</ele>
        <time>2011-03-10T14:29:10Z</time>
      </trkpt>
      <trkpt lat="42.63038" lon="0.83627">
        <ele>2470.24</ele>
        <time>2011-03-10T14:29:11Z</time>
      </trkpt>
      <trkpt lat="42.63045" lon="0.83638">
        <ele>2468.8</ele>
        <time>2011-03-10T14:29:16Z</time>
      </trkpt>
      <trkpt lat="42.63049" lon="0.83644">
        <ele>2468.32</ele>
        <time>2011-03-10T14:29:18Z</time>
      </trkpt>
      <trkpt lat="42.63052" lon="0.83664">
        <ele>2464.96</ele>
        <time>2011-03-10T14:29:24Z</time>
      </trkpt>
      <trkpt lat="42.63042" lon="0.83672">
        <ele>2461.11</ele>
        <time>2011-03-10T14:29:26Z</time>
      </trkpt>
      <trkpt lat="42.6304" lon="0.83679">
        <ele>2460.15</ele>
        <time>2011-03-10T14:29:28Z</time>
      </trkpt>
      <trkpt lat="42.63046" lon="0.83678">
        <ele>2457.75</ele>
        <time>2011-03-10T14:29:41Z</time>
      </trkpt>
      <trkpt lat="42.63046" lon="0.83678">
        <ele>2458.71</ele>
        <time>2011-03-10T14:29:58Z</time>
      </trkpt>
      <trkpt lat="42.63044" lon="0.83695">
        <ele>2454.86</ele>
        <time>2011-03-10T14:30:03Z</time>
      </trkpt>
      <trkpt lat="42.63042" lon="0.83703">
        <ele>2452.94</ele>
        <time>2011-03-10T14:30:05Z</time>
      </trkpt>
      <trkpt lat="42.6305" lon="0.83718">
        <ele>2446.21</ele>
        <time>2011-03-10T14:30:09Z</time>
      </trkpt>
      <trkpt lat="42.63052" lon="0.83722">
        <ele>2445.25</ele>
        <time>2011-03-10T14:30:19Z</time>
      </trkpt>
      <trkpt lat="42.63052" lon="0.83722">
        <ele>2444.77</ele>
        <time>2011-03-10T14:30:29Z</time>
      </trkpt>
      <trkpt lat="42.6305" lon="0.83724">
        <ele>2444.77</ele>
        <time>2011-03-10T14:30:31Z</time>
      </trkpt>
      <trkpt lat="42.63052" lon="0.83733">
        <ele>2442.85</ele>
        <time>2011-03-10T14:30:33Z</time>
      </trkpt>
      <trkpt lat="42.63055" lon="0.83743">
        <ele>2439</ele>
        <time>2011-03-10T14:30:35Z</time>
      </trkpt>
      <trkpt lat="42.63062" lon="0.83755">
        <ele>2435.16</ele>
        <time>2011-03-10T14:30:38Z</time>
      </trkpt>
      <trkpt lat="42.63055" lon="0.83766">
        <ele>2431.79</ele>
        <time>2011-03-10T14:30:40Z</time>
      </trkpt>
      <trkpt lat="42.63049" lon="0.8378">
        <ele>2428.91</ele>
        <time>2011-03-10T14:30:42Z</time>
      </trkpt>
      <trkpt lat="42.63038" lon="0.83794">
        <ele>2426.5</ele>
        <time>2011-03-10T14:30:44Z</time>
      </trkpt>
      <trkpt lat="42.63031" lon="0.83805">
        <ele>2425.06</ele>
        <time>2011-03-10T14:30:46Z</time>
      </trkpt>
      <trkpt lat="42.63031" lon="0.83822">
        <ele>2421.7</ele>
        <time>2011-03-10T14:30:49Z</time>
      </trkpt>
      <trkpt lat="42.63033" lon="0.83827">
        <ele>2421.7</ele>
        <time>2011-03-10T14:30:50Z</time>
      </trkpt>
      <trkpt lat="42.6303" lon="0.83839">
        <ele>2418.33</ele>
        <time>2011-03-10T14:30:53Z</time>
      </trkpt>
      <trkpt lat="42.63031" lon="0.8384">
        <ele>2418.81</ele>
        <time>2011-03-10T14:31:00Z</time>
      </trkpt>
      <trkpt lat="42.63039" lon="0.83837">
        <ele>2417.85</ele>
        <time>2011-03-10T14:31:04Z</time>
      </trkpt>
      <trkpt lat="42.63043" lon="0.8384">
        <ele>2415.45</ele>
        <time>2011-03-10T14:31:14Z</time>
      </trkpt>
      <trkpt lat="42.63043" lon="0.8384">
        <ele>2415.93</ele>
        <time>2011-03-10T14:31:37Z</time>
      </trkpt>
      <trkpt lat="42.63043" lon="0.83861">
        <ele>2412.57</ele>
        <time>2011-03-10T14:31:43Z</time>
      </trkpt>
      <trkpt lat="42.63044" lon="0.83872">
        <ele>2409.2</ele>
        <time>2011-03-10T14:31:46Z</time>
      </trkpt>
      <trkpt lat="42.63044" lon="0.83872">
        <ele>2409.2</ele>
        <time>2011-03-10T14:31:47Z</time>
      </trkpt>
      <trkpt lat="42.63045" lon="0.83872">
        <ele>2408.72</ele>
        <time>2011-03-10T14:31:48Z</time>
      </trkpt>
      <trkpt lat="42.63051" lon="0.83891">
        <ele>2403.91</ele>
        <time>2011-03-10T14:31:52Z</time>
      </trkpt>
      <trkpt lat="42.63049" lon="0.83903">
        <ele>2400.07</ele>
        <time>2011-03-10T14:31:54Z</time>
      </trkpt>
      <trkpt lat="42.63042" lon="0.83917">
        <ele>2398.63</ele>
        <time>2011-03-10T14:31:58Z</time>
      </trkpt>
      <trkpt lat="42.63034" lon="0.83931">
        <ele>2396.22</ele>
        <time>2011-03-10T14:32:03Z</time>
      </trkpt>
      <trkpt lat="42.63036" lon="0.83931">
        <ele>2396.22</ele>
        <time>2011-03-10T14:32:12Z</time>
      </trkpt>
      <trkpt lat="42.63038" lon="0.8393">
        <ele>2396.22</ele>
        <time>2011-03-10T14:32:15Z</time>
      </trkpt>
      <trkpt lat="42.63049" lon="0.83919">
        <ele>2395.74</ele>
        <time>2011-03-10T14:32:24Z</time>
      </trkpt>
      <trkpt lat="42.63059" lon="0.8392">
        <ele>2393.34</ele>
        <time>2011-03-10T14:32:27Z</time>
      </trkpt>
      <trkpt lat="42.63068" lon="0.8393">
        <ele>2389.49</ele>
        <time>2011-03-10T14:32:30Z</time>
      </trkpt>
      <trkpt lat="42.6307" lon="0.83941">
        <ele>2385.65</ele>
        <time>2011-03-10T14:32:32Z</time>
      </trkpt>
      <trkpt lat="42.63072" lon="0.83948">
        <ele>2386.13</ele>
        <time>2011-03-10T14:32:33Z</time>
      </trkpt>
      <trkpt lat="42.63067" lon="0.8396">
        <ele>2383.25</ele>
        <time>2011-03-10T14:32:35Z</time>
      </trkpt>
      <trkpt lat="42.63064" lon="0.83963">
        <ele>2382.28</ele>
        <time>2011-03-10T14:32:36Z</time>
      </trkpt>
      <trkpt lat="42.63059" lon="0.83966">
        <ele>2381.8</ele>
        <time>2011-03-10T14:32:46Z</time>
      </trkpt>
      <trkpt lat="42.63052" lon="0.83985">
        <ele>2380.36</ele>
        <time>2011-03-10T14:32:51Z</time>
      </trkpt>
      <trkpt lat="42.63042" lon="0.83998">
        <ele>2374.11</ele>
        <time>2011-03-10T14:32:54Z</time>
      </trkpt>
      <trkpt lat="42.63045" lon="0.83998">
        <ele>2373.63</ele>
        <time>2011-03-10T14:33:00Z</time>
      </trkpt>
      <trkpt lat="42.63042" lon="0.8401">
        <ele>2369.31</ele>
        <time>2011-03-10T14:33:06Z</time>
      </trkpt>
      <trkpt lat="42.63044" lon="0.84011">
        <ele>2368.35</ele>
        <time>2011-03-10T14:33:08Z</time>
      </trkpt>
      <trkpt lat="42.63044" lon="0.84011">
        <ele>2367.86</ele>
        <time>2011-03-10T14:33:09Z</time>
      </trkpt>
      <trkpt lat="42.63045" lon="0.84015">
        <ele>2367.38</ele>
        <time>2011-03-10T14:33:12Z</time>
      </trkpt>
      <trkpt lat="42.63046" lon="0.84018">
        <ele>2365.94</ele>
        <time>2011-03-10T14:33:14Z</time>
      </trkpt>
      <trkpt lat="42.63047" lon="0.84018">
        <ele>2364.98</ele>
        <time>2011-03-10T14:33:16Z</time>
      </trkpt>
      <trkpt lat="42.63047" lon="0.84018">
        <ele>2364.02</ele>
        <time>2011-03-10T14:33:23Z</time>
      </trkpt>
      <trkpt lat="42.63047" lon="0.84019">
        <ele>2363.54</ele>
        <time>2011-03-10T14:33:26Z</time>
      </trkpt>
      <trkpt lat="42.63051" lon="0.84021">
        <ele>2361.14</ele>
        <time>2011-03-10T14:33:36Z</time>
      </trkpt>
      <trkpt lat="42.63052" lon="0.84025">
        <ele>2358.25</ele>
        <time>2011-03-10T14:33:44Z</time>
      </trkpt>
      <trkpt lat="42.63052" lon="0.84025">
        <ele>2358.25</ele>
        <time>2011-03-10T14:33:46Z</time>
      </trkpt>
      <trkpt lat="42.63047" lon="0.84034">
        <ele>2354.41</ele>
        <time>2011-03-10T14:33:50Z</time>
      </trkpt>
      <trkpt lat="42.63045" lon="0.84036">
        <ele>2354.41</ele>
        <time>2011-03-10T14:34:02Z</time>
      </trkpt>
      <trkpt lat="42.63046" lon="0.84036">
        <ele>2354.41</ele>
        <time>2011-03-10T14:34:35Z</time>
      </trkpt>
      <trkpt lat="42.63046" lon="0.84039">
        <ele>2352.96</ele>
        <time>2011-03-10T14:34:51Z</time>
      </trkpt>
      <trkpt lat="42.63046" lon="0.84039">
        <ele>2352.96</ele>
        <time>2011-03-10T14:35:27Z</time>
      </trkpt>
      <trkpt lat="42.63046" lon="0.84039">
        <ele>2352.48</ele>
        <time>2011-03-10T14:35:44Z</time>
      </trkpt>
      <trkpt lat="42.63038" lon="0.84051">
        <ele>2349.12</ele>
        <time>2011-03-10T14:35:49Z</time>
      </trkpt>
      <trkpt lat="42.63036" lon="0.84052">
        <ele>2349.12</ele>
        <time>2011-03-10T14:35:50Z</time>
      </trkpt>
      <trkpt lat="42.63034" lon="0.84053">
        <ele>2348.64</ele>
        <time>2011-03-10T14:35:52Z</time>
      </trkpt>
      <trkpt lat="42.63038" lon="0.84052">
        <ele>2348.16</ele>
        <time>2011-03-10T14:35:56Z</time>
      </trkpt>
      <trkpt lat="42.63028" lon="0.84069">
        <ele>2345.27</ele>
        <time>2011-03-10T14:36:01Z</time>
      </trkpt>
      <trkpt lat="42.63028" lon="0.84074">
        <ele>2344.31</ele>
        <time>2011-03-10T14:36:03Z</time>
      </trkpt>
      <trkpt lat="42.63036" lon="0.84073">
        <ele>2342.87</ele>
        <time>2011-03-10T14:36:05Z</time>
      </trkpt>
      <trkpt lat="42.63044" lon="0.84084">
        <ele>2338.06</ele>
        <time>2011-03-10T14:36:08Z</time>
      </trkpt>
      <trkpt lat="42.63048" lon="0.84094">
        <ele>2336.14</ele>
        <time>2011-03-10T14:36:10Z</time>
      </trkpt>
      <trkpt lat="42.63054" lon="0.84112">
        <ele>2332.3</ele>
        <time>2011-03-10T14:36:17Z</time>
      </trkpt>
      <trkpt lat="42.63062" lon="0.84111">
        <ele>2327.49</ele>
        <time>2011-03-10T14:36:20Z</time>
      </trkpt>
      <trkpt lat="42.63068" lon="0.84111">
        <ele>2323.64</ele>
        <time>2011-03-10T14:36:22Z</time>
      </trkpt>
      <trkpt lat="42.63075" lon="0.84114">
        <ele>2319.32</ele>
        <time>2011-03-10T14:36:24Z</time>
      </trkpt>
      <trkpt lat="42.63079" lon="0.84124">
        <ele>2315.47</ele>
        <time>2011-03-10T14:36:26Z</time>
      </trkpt>
      <trkpt lat="42.6308" lon="0.84129">
        <ele>2314.99</ele>
        <time>2011-03-10T14:36:27Z</time>
      </trkpt>
      <trkpt lat="42.63087" lon="0.84141">
        <ele>2310.19</ele>
        <time>2011-03-10T14:36:30Z</time>
      </trkpt>
      <trkpt lat="42.63092" lon="0.8415">
        <ele>2303.94</ele>
        <time>2011-03-10T14:36:32Z</time>
      </trkpt>
      <trkpt lat="42.63102" lon="0.84167">
        <ele>2295.28</ele>
        <time>2011-03-10T14:36:36Z</time>
      </trkpt>
      <trkpt lat="42.63101" lon="0.84173">
        <ele>2294.32</ele>
        <time>2011-03-10T14:36:43Z</time>
      </trkpt>
      <trkpt lat="42.631" lon="0.84185">
        <ele>2293.36</ele>
        <time>2011-03-10T14:36:55Z</time>
      </trkpt>
      <trkpt lat="42.631" lon="0.84188">
        <ele>2293.84</ele>
        <time>2011-03-10T14:37:06Z</time>
      </trkpt>
      <trkpt lat="42.631" lon="0.84202">
        <ele>2292.4</ele>
        <time>2011-03-10T14:37:10Z</time>
      </trkpt>
      <trkpt lat="42.63108" lon="0.84213">
        <ele>2287.59</ele>
        <time>2011-03-10T14:37:13Z</time>
      </trkpt>
      <trkpt lat="42.63116" lon="0.84217">
        <ele>2283.27</ele>
        <time>2011-03-10T14:37:15Z</time>
      </trkpt>
      <trkpt lat="42.63119" lon="0.84219">
        <ele>2279.9</ele>
        <time>2011-03-10T14:37:16Z</time>
      </trkpt>
      <trkpt lat="42.63126" lon="0.84226">
        <ele>2274.62</ele>
        <time>2011-03-10T14:37:18Z</time>
      </trkpt>
      <trkpt lat="42.63128" lon="0.8424">
        <ele>2272.21</ele>
        <time>2011-03-10T14:37:20Z</time>
      </trkpt>
      <trkpt lat="42.63133" lon="0.84261">
        <ele>2268.37</ele>
        <time>2011-03-10T14:37:24Z</time>
      </trkpt>
      <trkpt lat="42.63136" lon="0.84273">
        <ele>2264.52</ele>
        <time>2011-03-10T14:37:27Z</time>
      </trkpt>
      <trkpt lat="42.63139" lon="0.84279">
        <ele>2263.08</ele>
        <time>2011-03-10T14:37:29Z</time>
      </trkpt>
      <trkpt lat="42.63142" lon="0.84295">
        <ele>2260.68</ele>
        <time>2011-03-10T14:37:32Z</time>
      </trkpt>
      <trkpt lat="42.63145" lon="0.8431">
        <ele>2258.75</ele>
        <time>2011-03-10T14:37:34Z</time>
      </trkpt>
      <trkpt lat="42.63147" lon="0.84324">
        <ele>2256.35</ele>
        <time>2011-03-10T14:37:36Z</time>
      </trkpt>
      <trkpt lat="42.63154" lon="0.84347">
        <ele>2252.99</ele>
        <time>2011-03-10T14:37:39Z</time>
      </trkpt>
      <trkpt lat="42.63157" lon="0.8437">
        <ele>2251.06</ele>
        <time>2011-03-10T14:37:43Z</time>
      </trkpt>
      <trkpt lat="42.63158" lon="0.84375">
        <ele>2250.58</ele>
        <time>2011-03-10T14:37:44Z</time>
      </trkpt>
      <trkpt lat="42.63159" lon="0.84388">
        <ele>2249.14</ele>
        <time>2011-03-10T14:37:46Z</time>
      </trkpt>
      <trkpt lat="42.63161" lon="0.84413">
        <ele>2245.78</ele>
        <time>2011-03-10T14:37:49Z</time>
      </trkpt>
      <trkpt lat="42.63161" lon="0.84422">
        <ele>2245.78</ele>
        <time>2011-03-10T14:37:50Z</time>
      </trkpt>
      <trkpt lat="42.63166" lon="0.84458">
        <ele>2240.97</ele>
        <time>2011-03-10T14:37:54Z</time>
      </trkpt>
      <trkpt lat="42.63174" lon="0.84487">
        <ele>2237.13</ele>
        <time>2011-03-10T14:37:57Z</time>
      </trkpt>
      <trkpt lat="42.63182" lon="0.84508">
        <ele>2234.24</ele>
        <time>2011-03-10T14:38:00Z</time>
      </trkpt>
      <trkpt lat="42.63186" lon="0.84519">
        <ele>2232.32</ele>
        <time>2011-03-10T14:38:02Z</time>
      </trkpt>
      <trkpt lat="42.63187" lon="0.84528">
        <ele>2230.4</ele>
        <time>2011-03-10T14:38:10Z</time>
      </trkpt>
      <trkpt lat="42.63187" lon="0.84528">
        <ele>2230.88</ele>
        <time>2011-03-10T14:38:12Z</time>
      </trkpt>
      <trkpt lat="42.63194" lon="0.84537">
        <ele>2224.63</ele>
        <time>2011-03-10T14:38:16Z</time>
      </trkpt>
      <trkpt lat="42.63194" lon="0.84537">
        <ele>2224.63</ele>
        <time>2011-03-10T14:38:17Z</time>
      </trkpt>
      <trkpt lat="42.63194" lon="0.84539">
        <ele>2225.11</ele>
        <time>2011-03-10T14:38:28Z</time>
      </trkpt>
      <trkpt lat="42.63196" lon="0.84546">
        <ele>2223.19</ele>
        <time>2011-03-10T14:38:35Z</time>
      </trkpt>
      <trkpt lat="42.63198" lon="0.84549">
        <ele>2222.22</ele>
        <time>2011-03-10T14:38:40Z</time>
      </trkpt>
      <trkpt lat="42.63198" lon="0.84552">
        <ele>2222.22</ele>
        <time>2011-03-10T14:38:43Z</time>
      </trkpt>
      <trkpt lat="42.63199" lon="0.84558">
        <ele>2222.71</ele>
        <time>2011-03-10T14:38:45Z</time>
      </trkpt>
      <trkpt lat="42.63203" lon="0.8458">
        <ele>2220.3</ele>
        <time>2011-03-10T14:38:49Z</time>
      </trkpt>
      <trkpt lat="42.63203" lon="0.84602">
        <ele>2217.42</ele>
        <time>2011-03-10T14:38:54Z</time>
      </trkpt>
      <trkpt lat="42.63202" lon="0.84608">
        <ele>2216.94</ele>
        <time>2011-03-10T14:39:01Z</time>
      </trkpt>
      <trkpt lat="42.63206" lon="0.84623">
        <ele>2214.53</ele>
        <time>2011-03-10T14:39:04Z</time>
      </trkpt>
      <trkpt lat="42.6321" lon="0.84634">
        <ele>2214.53</ele>
        <time>2011-03-10T14:39:06Z</time>
      </trkpt>
      <trkpt lat="42.63229" lon="0.84691">
        <ele>2206.84</ele>
        <time>2011-03-10T14:39:13Z</time>
      </trkpt>
      <trkpt lat="42.63237" lon="0.84711">
        <ele>2203.96</ele>
        <time>2011-03-10T14:39:15Z</time>
      </trkpt>
      <trkpt lat="42.63242" lon="0.84753">
        <ele>2203</ele>
        <time>2011-03-10T14:39:25Z</time>
      </trkpt>
      <trkpt lat="42.63241" lon="0.84757">
        <ele>2202.52</ele>
        <time>2011-03-10T14:39:36Z</time>
      </trkpt>
      <trkpt lat="42.63241" lon="0.84757">
        <ele>2203.48</ele>
        <time>2011-03-10T14:40:07Z</time>
      </trkpt>
      <trkpt lat="42.63241" lon="0.84757">
        <ele>2202.52</ele>
        <time>2011-03-10T14:40:40Z</time>
      </trkpt>
      <trkpt lat="42.63241" lon="0.84757">
        <ele>2202.52</ele>
        <time>2011-03-10T14:41:02Z</time>
      </trkpt>
      <trkpt lat="42.6325" lon="0.84769">
        <ele>2199.63</ele>
        <time>2011-03-10T14:41:06Z</time>
      </trkpt>
      <trkpt lat="42.63262" lon="0.84779">
        <ele>2194.35</ele>
        <time>2011-03-10T14:41:08Z</time>
      </trkpt>
      <trkpt lat="42.63272" lon="0.84789">
        <ele>2189.06</ele>
        <time>2011-03-10T14:41:10Z</time>
      </trkpt>
      <trkpt lat="42.6329" lon="0.84805">
        <ele>2179.45</ele>
        <time>2011-03-10T14:41:14Z</time>
      </trkpt>
      <trkpt lat="42.633" lon="0.84807">
        <ele>2175.12</ele>
        <time>2011-03-10T14:41:16Z</time>
      </trkpt>
      <trkpt lat="42.63306" lon="0.84807">
        <ele>2171.76</ele>
        <time>2011-03-10T14:41:17Z</time>
      </trkpt>
      <trkpt lat="42.63315" lon="0.84814">
        <ele>2167.43</ele>
        <time>2011-03-10T14:41:19Z</time>
      </trkpt>
      <trkpt lat="42.63321" lon="0.84817">
        <ele>2164.55</ele>
        <time>2011-03-10T14:41:20Z</time>
      </trkpt>
      <trkpt lat="42.63326" lon="0.84828">
        <ele>2160.22</ele>
        <time>2011-03-10T14:41:22Z</time>
      </trkpt>
      <trkpt lat="42.63331" lon="0.84827">
        <ele>2158.3</ele>
        <time>2011-03-10T14:41:27Z</time>
      </trkpt>
      <trkpt lat="42.63332" lon="0.84825">
        <ele>2158.3</ele>
        <time>2011-03-10T14:41:59Z</time>
      </trkpt>
      <trkpt lat="42.63343" lon="0.84829">
        <ele>2154.93</ele>
        <time>2011-03-10T14:42:04Z</time>
      </trkpt>
      <trkpt lat="42.63345" lon="0.84834">
        <ele>2154.45</ele>
        <time>2011-03-10T14:42:05Z</time>
      </trkpt>
      <trkpt lat="42.63353" lon="0.84832">
        <ele>2150.13</ele>
        <time>2011-03-10T14:42:08Z</time>
      </trkpt>
      <trkpt lat="42.63355" lon="0.84838">
        <ele>2149.65</ele>
        <time>2011-03-10T14:42:14Z</time>
      </trkpt>
      <trkpt lat="42.63349" lon="0.84858">
        <ele>2146.76</ele>
        <time>2011-03-10T14:42:25Z</time>
      </trkpt>
      <trkpt lat="42.63346" lon="0.84862">
        <ele>2146.28</ele>
        <time>2011-03-10T14:42:28Z</time>
      </trkpt>
      <trkpt lat="42.63351" lon="0.84863">
        <ele>2143.88</ele>
        <time>2011-03-10T14:42:31Z</time>
      </trkpt>
      <trkpt lat="42.63363" lon="0.8486">
        <ele>2140.03</ele>
        <time>2011-03-10T14:42:34Z</time>
      </trkpt>
      <trkpt lat="42.63373" lon="0.84861">
        <ele>2135.23</ele>
        <time>2011-03-10T14:42:36Z</time>
      </trkpt>
      <trkpt lat="42.63378" lon="0.84855">
        <ele>2132.82</ele>
        <time>2011-03-10T14:42:39Z</time>
      </trkpt>
      <trkpt lat="42.63383" lon="0.84843">
        <ele>2130.9</ele>
        <time>2011-03-10T14:42:51Z</time>
      </trkpt>
      <trkpt lat="42.6339" lon="0.84838">
        <ele>2128.02</ele>
        <time>2011-03-10T14:42:54Z</time>
      </trkpt>
      <trkpt lat="42.63395" lon="0.84839">
        <ele>2123.69</ele>
        <time>2011-03-10T14:42:57Z</time>
      </trkpt>
      <trkpt lat="42.63395" lon="0.84839">
        <ele>2123.69</ele>
        <time>2011-03-10T14:42:58Z</time>
      </trkpt>
      <trkpt lat="42.63395" lon="0.84839">
        <ele>2123.69</ele>
        <time>2011-03-10T14:43:13Z</time>
      </trkpt>
      <trkpt lat="42.63401" lon="0.84849">
        <ele>2120.32</ele>
        <time>2011-03-10T14:43:17Z</time>
      </trkpt>
      <trkpt lat="42.63402" lon="0.84857">
        <ele>2116.96</ele>
        <time>2011-03-10T14:43:19Z</time>
      </trkpt>
      <trkpt lat="42.63402" lon="0.84856">
        <ele>2116.48</ele>
        <time>2011-03-10T14:43:24Z</time>
      </trkpt>
      <trkpt lat="42.63411" lon="0.84865">
        <ele>2112.15</ele>
        <time>2011-03-10T14:43:27Z</time>
      </trkpt>
      <trkpt lat="42.63427" lon="0.84891">
        <ele>2107.35</ele>
        <time>2011-03-10T14:43:31Z</time>
      </trkpt>
      <trkpt lat="42.63438" lon="0.84906">
        <ele>2103.5</ele>
        <time>2011-03-10T14:43:34Z</time>
      </trkpt>
      <trkpt lat="42.6344" lon="0.84907">
        <ele>2103.98</ele>
        <time>2011-03-10T14:43:35Z</time>
      </trkpt>
      <trkpt lat="42.63443" lon="0.84907">
        <ele>2103.98</ele>
        <time>2011-03-10T14:43:48Z</time>
      </trkpt>
      <trkpt lat="42.63443" lon="0.84907">
        <ele>2103.98</ele>
        <time>2011-03-10T14:43:50Z</time>
      </trkpt>
      <trkpt lat="42.63466" lon="0.84913">
        <ele>2102.06</ele>
        <time>2011-03-10T14:43:56Z</time>
      </trkpt>
      <trkpt lat="42.63484" lon="0.84938">
        <ele>2100.62</ele>
        <time>2011-03-10T14:44:02Z</time>
      </trkpt>
      <trkpt lat="42.63487" lon="0.84946">
        <ele>2100.14</ele>
        <time>2011-03-10T14:44:09Z</time>
      </trkpt>
      <trkpt lat="42.63489" lon="0.84947">
        <ele>2101.1</ele>
        <time>2011-03-10T14:44:13Z</time>
      </trkpt>
      <trkpt lat="42.6349" lon="0.84948">
        <ele>2102.54</ele>
        <time>2011-03-10T14:44:17Z</time>
      </trkpt>
      <trkpt lat="42.63492" lon="0.84949">
        <ele>2103.02</ele>
        <time>2011-03-10T14:44:22Z</time>
      </trkpt>
      <trkpt lat="42.63495" lon="0.84955">
        <ele>2103.02</ele>
        <time>2011-03-10T14:44:29Z</time>
      </trkpt>
      <trkpt lat="42.63498" lon="0.84964">
        <ele>2103.98</ele>
        <time>2011-03-10T14:44:39Z</time>
      </trkpt>
      <trkpt lat="42.63506" lon="0.84972">
        <ele>2103.98</ele>
        <time>2011-03-10T14:44:50Z</time>
      </trkpt>
      <trkpt lat="42.6351" lon="0.84974">
        <ele>2103.98</ele>
        <time>2011-03-10T14:45:03Z</time>
      </trkpt>
      <trkpt lat="42.6351" lon="0.84974">
        <ele>2103.5</ele>
        <time>2011-03-10T14:46:03Z</time>
      </trkpt>
      <trkpt lat="42.63511" lon="0.84973">
        <ele>2103.02</ele>
        <time>2011-03-10T14:46:24Z</time>
      </trkpt>
      <trkpt lat="42.6351" lon="0.84973">
        <ele>2103.02</ele>
        <time>2011-03-10T14:47:01Z</time>
      </trkpt>
      <trkpt lat="42.63513" lon="0.84974">
        <ele>2102.06</ele>
        <time>2011-03-10T14:47:03Z</time>
      </trkpt>
      <trkpt lat="42.6352" lon="0.84973">
        <ele>2102.06</ele>
        <time>2011-03-10T14:47:11Z</time>
      </trkpt>
      <trkpt lat="42.6352" lon="0.84973">
        <ele>2101.58</ele>
        <time>2011-03-10T14:47:33Z</time>
      </trkpt>
      <trkpt lat="42.63523" lon="0.84974">
        <ele>2101.1</ele>
        <time>2011-03-10T14:47:35Z</time>
      </trkpt>
      <trkpt lat="42.63538" lon="0.84979">
        <ele>2097.73</ele>
        <time>2011-03-10T14:47:38Z</time>
      </trkpt>
      <trkpt lat="42.63551" lon="0.84989">
        <ele>2095.81</ele>
        <time>2011-03-10T14:47:41Z</time>
      </trkpt>
      <trkpt lat="42.63552" lon="0.84992">
        <ele>2094.85</ele>
        <time>2011-03-10T14:47:49Z</time>
      </trkpt>
      <trkpt lat="42.63553" lon="0.84994">
        <ele>2094.85</ele>
        <time>2011-03-10T14:47:54Z</time>
      </trkpt>
      <trkpt lat="42.6355" lon="0.85006">
        <ele>2092.93</ele>
        <time>2011-03-10T14:48:01Z</time>
      </trkpt>
      <trkpt lat="42.6356" lon="0.85014">
        <ele>2089.08</ele>
        <time>2011-03-10T14:48:05Z</time>
      </trkpt>
      <trkpt lat="42.63565" lon="0.85021">
        <ele>2086.68</ele>
        <time>2011-03-10T14:48:07Z</time>
      </trkpt>
      <trkpt lat="42.6357" lon="0.85029">
        <ele>2085.24</ele>
        <time>2011-03-10T14:48:09Z</time>
      </trkpt>
      <trkpt lat="42.63574" lon="0.85033">
        <ele>2082.83</ele>
        <time>2011-03-10T14:48:11Z</time>
      </trkpt>
      <trkpt lat="42.63582" lon="0.85033">
        <ele>2079.47</ele>
        <time>2011-03-10T14:48:13Z</time>
      </trkpt>
      <trkpt lat="42.63587" lon="0.85042">
        <ele>2076.1</ele>
        <time>2011-03-10T14:48:16Z</time>
      </trkpt>
      <trkpt lat="42.63588" lon="0.85043">
        <ele>2076.1</ele>
        <time>2011-03-10T14:48:17Z</time>
      </trkpt>
      <trkpt lat="42.63589" lon="0.85044">
        <ele>2076.59</ele>
        <time>2011-03-10T14:48:22Z</time>
      </trkpt>
      <trkpt lat="42.63591" lon="0.85029">
        <ele>2074.18</ele>
        <time>2011-03-10T14:48:31Z</time>
      </trkpt>
      <trkpt lat="42.63591" lon="0.85029">
        <ele>2074.18</ele>
        <time>2011-03-10T14:48:39Z</time>
      </trkpt>
      <trkpt lat="42.63593" lon="0.85027">
        <ele>2073.7</ele>
        <time>2011-03-10T14:48:41Z</time>
      </trkpt>
      <trkpt lat="42.63603" lon="0.8503">
        <ele>2069.86</ele>
        <time>2011-03-10T14:48:45Z</time>
      </trkpt>
      <trkpt lat="42.63608" lon="0.85038">
        <ele>2066.97</ele>
        <time>2011-03-10T14:48:49Z</time>
      </trkpt>
      <trkpt lat="42.63614" lon="0.85051">
        <ele>2064.57</ele>
        <time>2011-03-10T14:48:53Z</time>
      </trkpt>
      <trkpt lat="42.63614" lon="0.85052">
        <ele>2064.09</ele>
        <time>2011-03-10T14:48:54Z</time>
      </trkpt>
      <trkpt lat="42.63614" lon="0.85053">
        <ele>2064.57</ele>
        <time>2011-03-10T14:48:58Z</time>
      </trkpt>
      <trkpt lat="42.63611" lon="0.85057">
        <ele>2064.09</ele>
        <time>2011-03-10T14:49:02Z</time>
      </trkpt>
      <trkpt lat="42.63609" lon="0.85058">
        <ele>2064.09</ele>
        <time>2011-03-10T14:49:04Z</time>
      </trkpt>
      <trkpt lat="42.63597" lon="0.85073">
        <ele>2059.76</ele>
        <time>2011-03-10T14:49:10Z</time>
      </trkpt>
      <trkpt lat="42.63599" lon="0.85087">
        <ele>2055.92</ele>
        <time>2011-03-10T14:49:15Z</time>
      </trkpt>
      <trkpt lat="42.6361" lon="0.85082">
        <ele>2053.99</ele>
        <time>2011-03-10T14:49:24Z</time>
      </trkpt>
      <trkpt lat="42.63614" lon="0.85091">
        <ele>2052.55</ele>
        <time>2011-03-10T14:49:27Z</time>
      </trkpt>
      <trkpt lat="42.63619" lon="0.8509">
        <ele>2049.67</ele>
        <time>2011-03-10T14:49:30Z</time>
      </trkpt>
      <trkpt lat="42.63621" lon="0.85087">
        <ele>2048.23</ele>
        <time>2011-03-10T14:49:41Z</time>
      </trkpt>
      <trkpt lat="42.63625" lon="0.85086">
        <ele>2048.23</ele>
        <time>2011-03-10T14:49:54Z</time>
      </trkpt>
      <trkpt lat="42.63629" lon="0.85085">
        <ele>2045.82</ele>
        <time>2011-03-10T14:50:02Z</time>
      </trkpt>
      <trkpt lat="42.6363" lon="0.85085">
        <ele>2045.34</ele>
        <time>2011-03-10T14:50:13Z</time>
      </trkpt>
      <trkpt lat="42.63632" lon="0.85082">
        <ele>2043.9</ele>
        <time>2011-03-10T14:50:29Z</time>
      </trkpt>
      <trkpt lat="42.63632" lon="0.85083">
        <ele>2042.94</ele>
        <time>2011-03-10T14:50:44Z</time>
      </trkpt>
      <trkpt lat="42.63633" lon="0.8508">
        <ele>2042.46</ele>
        <time>2011-03-10T14:50:58Z</time>
      </trkpt>
      <trkpt lat="42.63633" lon="0.8508">
        <ele>2041.5</ele>
        <time>2011-03-10T14:50:59Z</time>
      </trkpt>
      <trkpt lat="42.63637" lon="0.85079">
        <ele>2040.05</ele>
        <time>2011-03-10T14:51:13Z</time>
      </trkpt>
      <trkpt lat="42.6364" lon="0.85078">
        <ele>2039.09</ele>
        <time>2011-03-10T14:51:46Z</time>
      </trkpt>
      <trkpt lat="42.63641" lon="0.85077">
        <ele>2038.61</ele>
        <time>2011-03-10T14:52:10Z</time>
      </trkpt>
      <trkpt lat="42.63647" lon="0.8509">
        <ele>2034.77</ele>
        <time>2011-03-10T14:52:16Z</time>
      </trkpt>
      <trkpt lat="42.63647" lon="0.8509">
        <ele>2035.73</ele>
        <time>2011-03-10T14:52:28Z</time>
      </trkpt>
      <trkpt lat="42.63645" lon="0.85093">
        <ele>2035.25</ele>
        <time>2011-03-10T14:52:49Z</time>
      </trkpt>
      <trkpt lat="42.63644" lon="0.85095">
        <ele>2034.77</ele>
        <time>2011-03-10T14:53:26Z</time>
      </trkpt>
      <trkpt lat="42.63643" lon="0.85096">
        <ele>2034.77</ele>
        <time>2011-03-10T14:53:49Z</time>
      </trkpt>
      <trkpt lat="42.63643" lon="0.85096">
        <ele>2034.77</ele>
        <time>2011-03-10T14:53:53Z</time>
      </trkpt>
      <trkpt lat="42.63643" lon="0.85096">
        <ele>2034.77</ele>
        <time>2011-03-10T14:54:04Z</time>
      </trkpt>
      <trkpt lat="42.63642" lon="0.85096">
        <ele>2035.25</ele>
        <time>2011-03-10T14:54:38Z</time>
      </trkpt>
      <trkpt lat="42.63642" lon="0.85096">
        <ele>2035.25</ele>
        <time>2011-03-10T14:54:58Z</time>
      </trkpt>
      <trkpt lat="42.63642" lon="0.85096">
        <ele>2034.77</ele>
        <time>2011-03-10T14:55:42Z</time>
      </trkpt>
      <trkpt lat="42.63642" lon="0.85096">
        <ele>2034.29</ele>
        <time>2011-03-10T14:56:07Z</time>
      </trkpt>
      <trkpt lat="42.63642" lon="0.85096">
        <ele>2034.29</ele>
        <time>2011-03-10T14:56:32Z</time>
      </trkpt>
      <trkpt lat="42.63644" lon="0.85121">
        <ele>2031.4</ele>
        <time>2011-03-10T14:56:38Z</time>
      </trkpt>
      <trkpt lat="42.63632" lon="0.85123">
        <ele>2028.04</ele>
        <time>2011-03-10T14:56:42Z</time>
      </trkpt>
      <trkpt lat="42.6363" lon="0.85122">
        <ele>2028.04</ele>
        <time>2011-03-10T14:56:43Z</time>
      </trkpt>
      <trkpt lat="42.63631" lon="0.85136">
        <ele>2024.19</ele>
        <time>2011-03-10T14:56:49Z</time>
      </trkpt>
      <trkpt lat="42.6363" lon="0.85138">
        <ele>2023.23</ele>
        <time>2011-03-10T14:56:51Z</time>
      </trkpt>
      <trkpt lat="42.63629" lon="0.85139">
        <ele>2023.23</ele>
        <time>2011-03-10T14:56:52Z</time>
      </trkpt>
      <trkpt lat="42.63621" lon="0.85137">
        <ele>2022.27</ele>
        <time>2011-03-10T14:56:55Z</time>
      </trkpt>
      <trkpt lat="42.63622" lon="0.85136">
        <ele>2020.83</ele>
        <time>2011-03-10T14:57:00Z</time>
      </trkpt>
      <trkpt lat="42.63618" lon="0.85137">
        <ele>2019.87</ele>
        <time>2011-03-10T14:57:05Z</time>
      </trkpt>
      <trkpt lat="42.63617" lon="0.85139">
        <ele>2018.91</ele>
        <time>2011-03-10T14:57:08Z</time>
      </trkpt>
      <trkpt lat="42.63617" lon="0.8514">
        <ele>2018.43</ele>
        <time>2011-03-10T14:57:09Z</time>
      </trkpt>
      <trkpt lat="42.63617" lon="0.85149">
        <ele>2016.98</ele>
        <time>2011-03-10T14:57:14Z</time>
      </trkpt>
      <trkpt lat="42.63608" lon="0.85183">
        <ele>2013.62</ele>
        <time>2011-03-10T14:57:20Z</time>
      </trkpt>
      <trkpt lat="42.63605" lon="0.85187">
        <ele>2013.62</ele>
        <time>2011-03-10T14:57:21Z</time>
      </trkpt>
      <trkpt lat="42.63598" lon="0.852">
        <ele>2012.66</ele>
        <time>2011-03-10T14:57:30Z</time>
      </trkpt>
      <trkpt lat="42.63597" lon="0.85203">
        <ele>2012.66</ele>
        <time>2011-03-10T14:57:33Z</time>
      </trkpt>
      <trkpt lat="42.63593" lon="0.85216">
        <ele>2009.77</ele>
        <time>2011-03-10T14:57:39Z</time>
      </trkpt>
      <trkpt lat="42.63593" lon="0.85224">
        <ele>2008.33</ele>
        <time>2011-03-10T14:57:47Z</time>
      </trkpt>
      <trkpt lat="42.63595" lon="0.85228">
        <ele>2007.37</ele>
        <time>2011-03-10T14:57:48Z</time>
      </trkpt>
      <trkpt lat="42.63593" lon="0.85234">
        <ele>2005.93</ele>
        <time>2011-03-10T14:57:52Z</time>
      </trkpt>
      <trkpt lat="42.63588" lon="0.85235">
        <ele>2004.49</ele>
        <time>2011-03-10T14:57:58Z</time>
      </trkpt>
      <trkpt lat="42.63572" lon="0.8526">
        <ele>2004.49</ele>
        <time>2011-03-10T14:58:17Z</time>
      </trkpt>
      <trkpt lat="42.63563" lon="0.85274">
        <ele>2003.52</ele>
        <time>2011-03-10T14:58:30Z</time>
      </trkpt>
      <trkpt lat="42.63553" lon="0.85293">
        <ele>2004.01</ele>
        <time>2011-03-10T14:58:46Z</time>
      </trkpt>
      <trkpt lat="42.63543" lon="0.85307">
        <ele>2004.49</ele>
        <time>2011-03-10T14:59:01Z</time>
      </trkpt>
      <trkpt lat="42.63531" lon="0.85327">
        <ele>2003.52</ele>
        <time>2011-03-10T14:59:17Z</time>
      </trkpt>
      <trkpt lat="42.63518" lon="0.8535">
        <ele>2004.01</ele>
        <time>2011-03-10T14:59:34Z</time>
      </trkpt>
      <trkpt lat="42.63515" lon="0.85355">
        <ele>2004.49</ele>
        <time>2011-03-10T14:59:49Z</time>
      </trkpt>
      <trkpt lat="42.63515" lon="0.85353">
        <ele>2004.01</ele>
        <time>2011-03-10T15:00:00Z</time>
      </trkpt>
      <trkpt lat="42.63514" lon="0.85353">
        <ele>2004.01</ele>
        <time>2011-03-10T15:00:11Z</time>
      </trkpt>
      <trkpt lat="42.63515" lon="0.85353">
        <ele>2003.52</ele>
        <time>2011-03-10T15:00:25Z</time>
      </trkpt>
      <trkpt lat="42.63515" lon="0.85352">
        <ele>2003.52</ele>
        <time>2011-03-10T15:00:38Z</time>
      </trkpt>
      <trkpt lat="42.63514" lon="0.85353">
        <ele>2003.04</ele>
        <time>2011-03-10T15:00:47Z</time>
      </trkpt>
      <trkpt lat="42.63514" lon="0.85354">
        <ele>2003.52</ele>
        <time>2011-03-10T15:00:55Z</time>
      </trkpt>
      <trkpt lat="42.63513" lon="0.85358">
        <ele>2004.01</ele>
        <time>2011-03-10T15:00:59Z</time>
      </trkpt>
      <trkpt lat="42.63502" lon="0.85374">
        <ele>2004.01</ele>
        <time>2011-03-10T15:01:12Z</time>
      </trkpt>
      <trkpt lat="42.63494" lon="0.85399">
        <ele>2003.52</ele>
        <time>2011-03-10T15:01:28Z</time>
      </trkpt>
      <trkpt lat="42.63493" lon="0.85406">
        <ele>2003.52</ele>
        <time>2011-03-10T15:01:32Z</time>
      </trkpt>
      <trkpt lat="42.63492" lon="0.8541">
        <ele>2003.52</ele>
        <time>2011-03-10T15:01:35Z</time>
      </trkpt>
      <trkpt lat="42.63491" lon="0.85415">
        <ele>2004.01</ele>
        <time>2011-03-10T15:01:38Z</time>
      </trkpt>
      <trkpt lat="42.63486" lon="0.85422">
        <ele>2004.01</ele>
        <time>2011-03-10T15:01:46Z</time>
      </trkpt>
      <trkpt lat="42.63486" lon="0.85424">
        <ele>2004.01</ele>
        <time>2011-03-10T15:01:48Z</time>
      </trkpt>
      <trkpt lat="42.6348" lon="0.85435">
        <ele>2003.52</ele>
        <time>2011-03-10T15:02:00Z</time>
      </trkpt>
      <trkpt lat="42.63479" lon="0.85439">
        <ele>2004.01</ele>
        <time>2011-03-10T15:02:03Z</time>
      </trkpt>
      <trkpt lat="42.63476" lon="0.85453">
        <ele>2005.93</ele>
        <time>2011-03-10T15:02:16Z</time>
      </trkpt>
      <trkpt lat="42.63474" lon="0.85457">
        <ele>2006.41</ele>
        <time>2011-03-10T15:02:21Z</time>
      </trkpt>
      <trkpt lat="42.63471" lon="0.85461">
        <ele>2006.89</ele>
        <time>2011-03-10T15:02:25Z</time>
      </trkpt>
      <trkpt lat="42.63467" lon="0.85466">
        <ele>2005.93</ele>
        <time>2011-03-10T15:02:32Z</time>
      </trkpt>
      <trkpt lat="42.63464" lon="0.85472">
        <ele>2005.45</ele>
        <time>2011-03-10T15:02:43Z</time>
      </trkpt>
      <trkpt lat="42.63465" lon="0.85474">
        <ele>2005.93</ele>
        <time>2011-03-10T15:02:55Z</time>
      </trkpt>
      <trkpt lat="42.63466" lon="0.85477">
        <ele>2006.41</ele>
        <time>2011-03-10T15:03:28Z</time>
      </trkpt>
      <trkpt lat="42.63467" lon="0.85477">
        <ele>2006.41</ele>
        <time>2011-03-10T15:03:43Z</time>
      </trkpt>
      <trkpt lat="42.63468" lon="0.85476">
        <ele>2005.93</ele>
        <time>2011-03-10T15:04:50Z</time>
      </trkpt>
      <trkpt lat="42.63462" lon="0.85475">
        <ele>2005.45</ele>
        <time>2011-03-10T15:05:26Z</time>
      </trkpt>
      <trkpt lat="42.63462" lon="0.85475">
        <ele>2002.08</ele>
        <time>2011-03-10T15:05:32Z</time>
      </trkpt>
      <trkpt lat="42.63462" lon="0.85475">
        <ele>2006.41</ele>
        <time>2011-03-10T15:05:33Z</time>
      </trkpt>
      <trkpt lat="42.63462" lon="0.85475">
        <ele>2002.08</ele>
        <time>2011-03-10T15:05:36Z</time>
      </trkpt>
      <trkpt lat="42.63462" lon="0.85475">
        <ele>2007.37</ele>
        <time>2011-03-10T15:05:37Z</time>
      </trkpt>
      <trkpt lat="42.63462" lon="0.85475">
        <ele>2010.73</ele>
        <time>2011-03-10T15:05:39Z</time>
      </trkpt>
      <trkpt lat="42.63461" lon="0.85476">
        <ele>2005.45</ele>
        <time>2011-03-10T15:05:40Z</time>
      </trkpt>
      <trkpt lat="42.63462" lon="0.85477">
        <ele>2008.33</ele>
        <time>2011-03-10T15:05:47Z</time>
      </trkpt>
      <trkpt lat="42.63462" lon="0.85477">
        <ele>2006.89</ele>
        <time>2011-03-10T15:05:48Z</time>
      </trkpt>
      <trkpt lat="42.63462" lon="0.85477">
        <ele>1995.35</ele>
        <time>2011-03-10T15:05:49Z</time>
      </trkpt>
      <trkpt lat="42.63462" lon="0.85477">
        <ele>2004.97</ele>
        <time>2011-03-10T15:05:50Z</time>
      </trkpt>
      <trkpt lat="42.63462" lon="0.85477">
        <ele>2000.16</ele>
        <time>2011-03-10T15:05:56Z</time>
      </trkpt>
      <trkpt lat="42.63462" lon="0.85477">
        <ele>2004.97</ele>
        <time>2011-03-10T15:05:57Z</time>
      </trkpt>
      <trkpt lat="42.63462" lon="0.85477">
        <ele>2001.6</ele>
        <time>2011-03-10T15:05:59Z</time>
      </trkpt>
    </trkseg>
  </trk>
</gpx>